GFSGBSN_925_thetae_000.txt.gz
Theta_e
310 312 314 315 316 316 315 314 311 311 311 312 313 314 313 313 312 312 311 310 311 312 313 313 315 317 315 320 318 316 316 316 317 317 319 320 319 319 318 318 318 318 318 318 316 316 317
311 313 315 315 315 315 313 312 311 312 313 313 314 313 312 312 311 310 310 311 312 313 314 315 317 316 319 318 316 315 316 316 318 319 319 320 320 320 319 319 319 319 319 318 318 318 317
311 314 315 315 314 314 312 312 312 313 314 314 313 312 311 310 310 311 312 314 314 314 314 316 317 316 318 318 316 315 315 316 317 318 320 318 318 319 320 321 318 318 319 320 318 318 319
311 315 315 314 314 313 312 312 313 314 314 314 313 312 312 312 313 314 315 315 314 315 316 319 318 317 318 316 316 315 314 315 316 317 318 317 317 318 319 318 317 318 319 319 319 319 319
310 315 316 315 314 314 313 313 313 314 314 315 315 315 315 315 315 315 315 315 316 316 318 319 320 321 317 316 316 315 314 316 317 317 316 315 317 319 317 320 319 318 317 316 319 318 320
309 315 316 315 314 314 313 313 313 314 315 315 316 316 317 317 317 317 317 316 316 316 315 314 315 318 316 316 315 314 314 315 318 318 319 319 319 319 318 317 317 317 317 317 317 318 319
308 314 316 315 314 314 313 313 312 313 314 316 316 316 316 317 317 317 316 317 319 320 317 317 316 316 316 316 316 316 313 316 317 319 319 318 319 319 318 318 317 317 317 318 317 318 321
307 312 315 315 314 314 314 313 313 313 314 315 315 316 319 322 320 319 320 323 322 319 317 316 315 317 315 315 318 318 317 317 318 318 319 318 319 316 317 317 316 317 318 318 318 318 321
306 310 314 315 314 314 314 313 314 313 313 314 314 315 318 320 320 322 326 326 324 319 318 317 316 317 316 318 318 318 317 317 317 318 318 318 316 315 317 320 320 318 318 320 320 320 321
306 307 311 315 314 314 313 314 314 314 313 313 313 314 315 320 320 320 322 321 322 318 319 317 317 317 316 316 318 316 315 317 318 317 317 317 316 318 319 320 320 320 318 320 320 321 323
306 307 309 314 314 314 313 314 314 314 313 313 313 314 316 319 322 321 321 320 324 321 323 317 317 316 318 318 317 318 315 319 319 318 319 317 319 320 321 319 320 321 319 320 321 322 323
307 307 308 312 314 314 313 314 314 314 313 313 314 318 320 320 320 320 318 321 324 328 321 319 317 319 320 319 318 318 318 317 316 320 319 319 317 319 320 318 318 319 320 321 322 324 327
307 307 308 311 314 314 313 314 314 314 314 313 314 316 319 317 323 319 319 325 324 324 319 318 318 320 320 320 319 318 320 321 320 320 322 320 320 319 319 321 321 321 321 325 329 328 326
307 307 308 311 313 314 313 314 314 315 317 316 315 317 319 318 318 320 323 327 323 321 320 317 318 319 320 320 319 319 320 321 320 320 321 322 323 321 320 320 321 321 322 326 325 325 323
308 307 308 310 312 314 314 313 315 316 318 318 318 318 319 319 319 321 324 331 325 321 318 319 319 320 321 320 320 320 320 320 319 319 322 322 322 319 318 319 319 321 324 320 323 318 327
308 307 307 309 311 313 314 313 315 317 319 318 319 321 322 319 321 323 329 320 320 317 318 318 321 320 322 322 321 321 321 319 319 318 318 320 323 318 318 319 320 321 319 323 321 327 318
309 308 307 308 310 312 314 313 315 318 320 320 319 320 320 322 317 326 327 321 319 318 319 321 322 322 322 322 321 322 320 319 318 319 318 317 319 319 318 321 321 322 322 320 319 321 321
309 308 307 307 309 311 313 313 316 318 321 323 320 324 316 318 325 320 322 320 316 319 319 321 321 321 322 322 322 322 322 320 318 319 319 318 320 317 317 318 318 319 320 319 317 318 320
309 309 307 307 308 310 312 313 314 318 319 319 324 323 315 318 330 327 319 319 318 320 319 320 321 321 320 321 323 321 321 318 318 319 320 319 320 316 318 320 319 320 319 318 318 318 321
309 309 307 307 308 310 311 313 313 318 317 315 322 332 322 319 318 322 322 321 320 317 318 319 319 320 321 322 321 323 322 319 318 319 313 316 319 317 314 314 315 315 315 316 317 321 319
309 309 308 307 308 310 311 312 313 317 316 316 321 324 319 328 323 322 321 321 320 320 318 318 319 320 321 323 321 322 321 319 317 315 319 320 318 319 317 316 316 316 316 315 316 318 320
309 309 309 307 308 309 311 312 313 316 316 317 324 323 317 318 318 321 319 321 320 318 319 319 320 319 318 318 316 318 316 316 315 319 318 318 319 317 317 315 315 316 316 316 316 317 317
309 309 309 308 308 309 311 312 313 317 316 319 313 312 321 311 318 323 322 320 319 319 318 318 319 319 320 318 317 318 318 318 317 317 319 320 320 319 323 315 316 321 317 316 315 316 316
309 310 310 309 308 310 311 312 313 317 316 317 314 315 327 323 319 320 318 319 319 318 320 318 318 322 316 315 316 315 314 315 317 317 317 316 319 316 322 319 324 316 314 314 315 315 314
310 310 310 310 309 310 311 312 313 318 317 316 311 315 320 316 318 316 318 319 318 317 318 318 318 315 316 318 320 321 317 316 314 313 314 315 318 317 319 317 316 315 314 314 314 315 314
310 310 311 310 310 311 312 312 313 316 318 315 312 310 316 314 322 315 318 318 321 321 320 318 314 313 316 320 321 323 321 316 316 315 311 312 313 320 317 319 320 316 312 311 313 317 314
311 311 311 311 310 311 312 313 313 314 319 316 315 312 315 323 314 315 320 319 317 319 322 319 318 317 316 318 322 325 321 314 317 319 317 314 313 317 317 318 317 314 312 311 318 319 314
311 311 311 311 311 311 312 313 313 313 317 318 315 314 316 318 315 314 313 316 315 319 324 318 320 318 317 318 316 319 318 319 316 315 316 317 319 317 315 317 318 311 312 316 316 312 310
312 311 311 311 312 311 312 313 314 314 314 318 318 313 312 318 317 314 315 312 315 315 318 316 319 318 321 319 313 313 317 310 321 319 313 317 316 316 316 318 314 313 312 312 310 311 311

GFSGBSN_925_thetae_003.txt.gz
Theta_e
311 311 314 315 317 317 316 316 315 313 312 312 313 314 314 314 314 314 313 311 311 311 312 313 315 316 317 323 319 318 317 317 320 320 320 321 320 320 319 319 318 317 317 317 317 317 317
310 313 314 316 317 316 316 315 313 312 313 314 314 314 314 313 313 313 311 311 312 312 313 314 316 317 322 321 317 317 318 318 319 320 319 319 320 320 319 318 319 319 320 320 320 320 319
311 313 315 316 315 315 314 313 312 313 314 314 314 313 312 312 311 311 311 312 313 314 314 316 317 316 325 319 317 317 317 318 318 320 320 320 320 320 320 320 320 320 320 320 320 321 321
312 313 316 316 315 315 314 313 313 314 314 314 313 312 311 311 311 312 313 314 314 315 316 318 317 321 321 317 317 316 316 317 318 320 320 320 320 322 321 321 320 320 321 321 321 321 321
311 313 316 316 315 315 314 313 313 314 314 315 315 314 314 313 314 315 315 315 315 317 318 320 321 326 318 316 317 316 316 317 318 320 318 318 321 320 321 320 320 320 321 319 321 321 321
309 314 316 316 315 315 314 313 313 314 315 316 316 317 316 316 316 316 315 317 317 317 315 318 321 319 317 318 316 316 316 318 320 321 321 321 321 321 320 320 321 320 318 318 319 321 319
309 313 315 316 315 315 314 314 313 313 315 316 317 317 318 318 317 317 317 318 322 323 320 320 319 318 317 316 316 317 317 319 320 321 322 321 322 322 321 320 319 319 319 319 320 320 320
308 311 314 316 315 314 314 314 314 313 314 315 316 317 318 319 318 318 321 325 326 321 318 318 319 319 318 318 318 318 318 319 320 320 320 319 321 319 320 320 320 320 320 321 320 319 321
307 309 313 315 314 314 314 314 314 313 313 314 315 317 320 322 320 323 326 327 326 324 319 318 318 318 318 319 319 319 319 319 319 318 318 321 320 319 320 321 322 321 321 323 322 321 320
306 308 312 315 314 314 314 314 314 314 313 314 315 315 317 320 323 326 326 325 327 324 321 317 318 319 318 320 320 318 318 319 319 318 319 320 320 320 321 322 322 323 320 321 321 322 324
307 308 310 314 314 314 314 314 314 314 313 314 314 315 317 319 323 322 325 328 328 329 326 318 319 319 319 320 320 320 319 320 319 319 321 321 321 322 323 321 321 324 322 322 322 323 323
307 308 309 313 314 314 314 314 314 314 314 313 314 319 318 320 327 325 325 327 329 330 324 319 319 321 321 320 320 321 321 320 321 321 321 321 320 322 322 321 321 322 323 323 325 325 326
307 308 309 312 314 314 313 314 314 314 313 313 314 320 323 323 324 326 324 327 322 328 320 319 320 321 321 321 321 322 322 323 323 324 324 322 322 322 321 323 323 322 324 329 330 329 329
307 307 309 311 313 314 313 314 314 315 313 314 315 319 321 326 325 321 327 325 329 322 320 319 320 321 322 321 321 321 322 323 321 322 322 324 327 322 320 322 322 322 324 330 326 327 325
307 307 308 310 312 313 313 314 315 317 316 315 317 326 325 322 320 326 324 330 326 321 320 320 320 321 322 321 321 322 322 321 320 321 324 324 324 320 320 321 321 323 324 321 326 324 327
307 307 307 309 311 313 313 314 316 318 317 317 319 319 322 319 319 328 330 326 323 320 319 320 322 323 323 322 323 323 322 320 320 319 319 320 325 319 319 320 321 323 321 326 322 327 319
308 307 307 308 310 312 313 314 317 319 317 319 320 321 325 320 322 326 332 325 321 321 321 322 322 322 323 323 323 323 322 320 320 320 319 318 320 321 319 322 323 323 324 321 318 320 322
308 308 307 307 309 311 313 314 317 319 319 320 322 324 323 322 325 330 327 323 317 321 322 323 323 323 324 323 324 324 323 323 320 320 321 319 320 320 318 320 321 321 321 319 319 318 319
309 308 307 307 308 310 312 313 317 318 322 324 323 325 323 325 333 333 324 322 322 322 322 323 324 323 323 324 325 323 323 321 320 321 322 320 323 321 320 322 321 320 320 318 319 318 321
309 308 307 306 308 309 311 312 316 317 319 322 324 331 325 326 324 324 324 323 323 321 322 322 323 323 323 323 323 324 324 321 321 321 314 318 320 319 319 317 316 316 316 315 317 321 321
309 309 307 306 307 309 310 312 315 317 315 321 325 327 325 328 327 324 324 323 323 322 321 321 322 322 323 324 323 323 322 321 319 316 319 320 320 320 318 316 315 316 316 316 316 317 320
308 309 308 306 307 308 310 311 315 317 314 322 323 325 322 325 324 324 321 323 322 321 321 321 322 321 321 322 317 319 318 317 317 319 319 319 322 319 318 316 315 316 315 315 316 317 317
308 308 308 307 307 308 310 311 315 316 317 321 319 320 325 316 325 326 325 323 321 321 321 320 321 319 321 319 320 320 320 319 318 320 320 321 321 320 322 319 318 323 319 316 316 316 317
308 309 309 307 307 308 310 312 315 316 317 322 320 321 329 326 325 324 321 321 321 321 321 320 319 322 320 318 318 318 318 319 320 319 319 322 320 321 323 320 327 319 316 315 315 315 315
309 309 309 308 308 308 310 312 314 317 316 319 315 321 324 329 323 321 321 321 320 320 321 321 320 320 319 320 322 321 318 315 318 316 317 319 321 320 323 320 318 317 315 315 315 316 315
310 310 310 309 309 309 310 312 313 318 316 319 316 316 322 320 326 320 322 322 323 323 323 321 318 318 321 324 322 325 322 318 319 318 315 317 319 322 321 321 322 319 316 314 315 318 317
310 310 311 310 310 310 310 312 313 316 317 321 318 313 321 327 319 320 323 323 321 322 323 322 321 321 321 322 326 327 323 318 318 320 316 317 317 322 319 321 318 315 314 314 318 320 317
310 311 311 311 311 310 311 312 313 313 318 320 318 314 322 323 319 318 318 321 321 321 326 323 322 322 324 319 322 324 323 320 319 316 317 319 321 318 319 320 319 314 314 318 317 315 314
311 311 311 311 311 311 311 312 313 314 315 319 322 313 318 322 321 318 318 317 319 319 321 322 321 322 322 325 321 321 324 316 321 321 316 318 318 319 318 318 315 315 315 316 314 314 312

GFSGBSN_925_thetae_006.txt.gz
Theta_e
311 311 313 314 315 317 316 316 317 314 313 313 313 313 313 313 315 314 313 312 311 311 311 312 313 315 318 324 320 318 318 319 319 321 321 321 321 321 319 319 318 318 317 317 316 316 317
311 312 314 315 316 316 314 315 313 313 313 313 313 313 314 314 313 313 312 312 311 311 312 313 314 316 322 323 318 318 318 319 320 320 319 320 320 320 318 318 318 318 317 317 317 318 318
310 313 314 316 316 315 315 313 312 313 313 314 314 314 314 313 312 312 312 311 311 312 313 314 316 317 324 322 317 317 318 318 319 320 321 320 320 319 320 319 320 319 318 319 319 320 319
311 313 315 316 315 315 315 313 313 313 314 314 314 313 312 311 312 311 311 311 312 314 314 316 317 320 323 318 317 317 317 317 318 319 320 319 319 321 322 320 318 319 320 320 320 320 321
311 312 315 316 316 315 314 313 313 313 314 314 314 312 311 311 311 311 312 313 314 315 318 319 318 325 322 316 317 317 317 318 318 320 319 319 321 319 319 318 319 320 320 322 322 320 321
310 312 315 316 315 315 314 313 313 313 314 315 316 315 315 314 314 315 315 315 317 317 317 318 321 325 318 318 317 316 317 318 320 320 320 320 321 320 320 321 321 320 320 319 319 320 318
309 311 315 316 315 314 314 313 313 312 313 315 317 317 317 316 316 316 317 317 322 322 322 321 318 318 316 315 316 317 317 318 321 321 322 320 322 323 321 320 319 319 319 319 321 320 319
308 310 314 315 315 314 314 314 313 313 313 315 316 316 317 317 317 317 320 328 325 322 320 318 319 318 318 319 318 317 318 320 320 321 321 318 322 320 320 319 320 319 320 320 321 320 319
307 309 313 315 314 314 314 314 314 314 313 314 316 318 320 320 318 319 325 327 326 327 320 319 319 318 319 320 320 319 320 319 319 320 318 323 320 319 319 322 321 322 321 324 322 322 321
307 308 312 314 314 314 313 314 314 314 313 314 315 316 321 320 320 325 326 325 327 326 321 317 319 319 319 320 319 319 319 320 319 319 320 321 319 321 321 323 322 322 323 321 321 321 322
307 308 310 314 314 314 313 314 314 314 314 313 314 315 317 319 323 323 326 327 327 329 328 318 319 319 318 321 320 320 319 320 319 320 321 322 322 323 323 322 321 324 322 321 322 322 322
307 308 309 312 314 314 313 314 314 314 314 313 314 318 318 319 329 325 326 328 326 335 329 319 319 320 320 320 321 321 320 321 322 321 322 321 320 322 322 321 321 322 324 323 324 325 332
307 307 309 311 313 313 313 314 314 314 314 313 315 319 321 326 327 326 325 328 324 331 320 320 321 321 321 321 322 322 322 323 324 324 324 323 322 322 321 324 324 322 325 334 338 337 335
307 307 308 311 312 313 313 314 314 314 314 314 315 319 325 328 328 322 329 326 330 323 320 319 320 321 322 321 321 322 323 322 322 325 323 325 327 322 321 322 321 323 323 336 330 334 330
307 307 308 310 311 313 313 314 314 314 314 314 315 324 325 325 323 328 328 331 329 321 321 320 320 321 322 321 322 323 322 321 320 321 324 325 324 321 319 320 320 324 324 320 326 326 330
308 307 308 309 311 312 312 315 315 317 315 315 321 321 322 319 318 330 332 331 326 321 319 320 321 322 322 321 322 323 322 321 320 320 319 319 325 319 318 321 322 321 320 325 330 330 323
308 307 307 308 310 312 312 316 317 318 316 316 324 321 327 318 319 324 333 331 322 320 322 320 322 322 323 322 323 323 323 321 321 320 320 319 322 321 320 322 321 323 323 321 319 324 325
308 307 307 307 309 311 312 316 317 318 317 319 325 323 326 319 322 325 331 324 318 322 323 324 323 322 323 323 324 324 324 324 320 320 321 318 320 327 320 319 319 320 321 319 328 322 326
308 308 307 307 308 311 312 315 317 318 317 323 324 327 326 326 331 340 325 323 322 321 321 322 324 324 324 324 325 324 325 321 321 322 322 320 325 328 323 323 320 319 320 318 321 322 321
309 308 307 306 308 310 311 313 317 319 320 321 327 331 323 324 329 329 326 324 324 323 323 323 323 323 324 324 324 324 324 322 320 320 315 319 320 320 323 318 317 317 316 316 316 327 323
309 308 307 306 307 309 310 312 316 317 319 318 328 327 322 328 328 326 325 323 324 324 322 322 322 323 324 324 324 324 323 321 319 315 319 320 322 320 318 316 316 316 316 316 316 317 319
309 309 308 306 307 309 310 312 316 316 315 322 328 326 325 326 326 325 322 324 323 322 323 322 323 323 323 325 321 322 320 319 320 320 320 320 325 321 320 317 316 316 315 315 315 315 316
309 309 308 307 307 308 310 311 316 316 317 324 322 324 326 321 326 328 327 324 323 323 323 321 322 323 324 322 321 321 320 320 319 321 321 323 325 323 325 319 319 325 321 317 316 316 316
308 309 308 307 307 308 309 311 316 316 319 325 325 323 333 331 328 325 324 323 323 323 322 321 321 324 321 318 319 319 320 320 320 319 321 322 322 322 323 321 327 319 316 316 316 316 315
309 309 309 308 308 308 310 311 314 317 318 322 319 326 327 324 327 324 323 322 322 321 322 323 321 320 320 320 325 318 319 316 318 317 318 320 323 318 325 321 318 317 317 316 316 317 315
309 310 309 309 308 309 310 311 313 318 317 322 315 321 326 323 330 322 322 323 325 326 324 322 321 320 320 328 324 321 327 320 321 318 316 319 322 325 319 320 320 319 316 315 315 319 318
310 310 310 310 309 309 310 311 313 316 317 323 320 316 327 332 322 323 325 326 323 324 325 323 322 323 322 322 321 331 326 318 322 321 318 316 318 320 320 319 319 315 315 314 318 320 317
310 310 310 310 310 310 310 311 313 313 318 323 321 314 326 327 321 321 322 323 322 324 329 324 324 326 329 319 323 327 324 324 322 318 318 317 320 317 319 319 319 315 314 317 319 317 315
310 311 310 310 311 310 311 312 313 313 315 320 324 316 322 326 323 321 320 320 320 321 324 325 322 324 326 325 325 324 323 318 321 325 316 321 322 323 320 320 318 316 316 316 315 316 313

GFSGBSN_925_thetae_009.txt.gz
Theta_e
311 311 312 313 314 315 316 317 315 314 314 313 313 313 313 313 313 314 314 312 312 311 310 310 311 312 318 325 321 317 318 318 317 317 320 322 320 317 317 316 316 314 313 313 313 314 314
310 311 311 313 315 315 316 315 314 313 313 313 313 313 313 313 313 313 313 313 312 311 310 310 312 315 319 322 319 318 318 318 318 319 322 321 319 318 318 315 315 315 313 312 313 315 316
310 311 312 314 315 315 315 314 313 313 313 314 314 314 314 314 313 312 313 312 311 311 311 312 314 317 323 325 319 317 317 318 318 318 319 319 319 317 318 318 317 315 314 313 314 315 316
310 311 312 314 315 315 314 314 313 313 314 314 313 313 313 313 312 312 312 311 311 311 313 315 317 319 323 319 317 317 317 317 317 319 319 319 320 318 319 316 317 317 315 315 316 317 316
310 311 312 315 316 315 314 314 313 313 314 314 314 313 311 311 311 311 311 311 312 314 316 317 317 323 322 317 315 317 316 316 318 319 319 319 319 318 317 315 315 316 315 318 318 317 318
310 311 312 315 316 315 314 314 313 313 314 314 315 315 312 311 311 312 313 314 317 316 317 317 319 322 323 318 317 316 317 316 318 319 319 318 317 316 314 315 318 318 318 318 317 318 316
310 310 311 314 315 314 314 314 313 313 313 315 316 316 315 315 315 315 316 317 320 320 322 319 320 322 315 314 315 315 317 317 318 319 319 319 318 318 318 318 318 318 317 318 317 318 318
310 309 311 314 315 314 314 314 313 313 313 315 316 316 317 316 316 316 318 325 324 323 321 322 317 317 318 318 316 316 318 318 319 319 319 317 318 318 318 320 319 319 321 321 318 318 316
309 308 310 314 314 314 313 314 313 314 313 314 315 317 317 317 317 317 317 325 327 321 318 319 318 318 318 319 318 317 318 318 318 318 319 319 318 318 319 320 321 320 321 320 320 318 317
309 308 309 314 314 314 313 313 313 314 313 313 314 318 321 319 318 320 326 325 326 326 317 317 318 317 318 318 318 318 318 318 319 319 319 318 319 321 321 321 319 324 321 321 320 319 319
308 307 309 313 314 314 313 313 313 314 314 313 314 314 320 319 320 327 325 326 324 327 321 318 319 318 317 319 318 318 319 320 319 317 320 320 320 321 322 320 320 323 321 321 321 320 320
307 307 308 312 313 314 313 313 314 314 314 313 314 317 317 321 324 326 324 322 321 329 323 319 319 320 319 319 320 319 318 320 321 320 318 319 319 319 319 321 320 320 322 323 322 321 323
307 307 308 311 313 313 313 314 314 313 314 313 315 318 320 328 329 326 321 324 321 325 322 318 321 321 320 321 320 321 321 321 322 322 322 321 321 320 320 321 321 320 323 324 325 323 324
307 307 308 310 312 313 313 313 314 313 314 313 315 319 328 327 326 322 328 325 329 323 320 319 320 321 321 321 321 322 321 320 318 322 322 324 324 319 319 319 320 321 322 319 329 325 323
307 307 308 310 311 313 313 313 314 313 314 314 315 322 327 318 317 321 326 327 329 324 320 320 320 322 321 321 322 321 319 318 318 318 322 325 322 319 317 318 319 323 319 318 322 322 319
307 307 308 309 310 312 312 314 315 314 314 314 319 325 326 322 316 326 326 328 327 320 319 319 321 321 321 320 321 322 321 320 320 318 317 318 322 318 317 319 320 318 318 321 318 321 321
308 307 307 308 310 312 312 315 316 316 314 315 322 319 326 322 316 321 326 332 322 321 323 322 323 321 323 321 321 323 322 321 320 320 316 319 322 319 319 318 320 320 322 319 318 316 319
308 307 307 307 309 311 312 316 316 317 315 317 325 322 325 322 318 322 325 328 317 321 322 323 323 322 323 322 324 325 325 322 319 320 319 317 318 316 320 318 318 319 319 319 315 320 315
308 307 307 307 309 311 312 315 316 317 317 321 322 325 326 329 317 318 326 323 321 321 322 322 323 324 323 324 324 325 324 321 321 319 319 319 319 318 322 321 319 318 317 320 319 312 315
308 308 307 306 308 310 311 314 317 317 317 322 326 320 323 323 324 329 328 323 324 322 323 323 323 322 324 324 323 325 324 322 319 317 315 318 319 317 318 317 315 315 315 315 318 315 317
308 308 307 306 308 309 310 313 316 318 318 320 325 324 318 318 321 325 325 324 324 323 322 322 322 323 323 323 324 324 322 321 319 314 319 318 320 319 317 316 315 315 315 314 314 314 314
309 308 307 306 308 309 310 312 316 316 317 319 328 326 322 321 319 325 323 324 324 323 322 323 322 323 323 322 322 322 321 320 321 318 320 319 318 317 317 317 315 315 314 314 313 314 314
309 309 307 307 308 308 310 312 316 316 315 324 324 324 324 323 322 323 324 324 324 322 321 322 321 320 318 320 319 318 317 317 319 319 321 320 313 312 318 316 315 313 316 317 316 315 315
309 309 308 307 308 308 310 312 317 316 321 325 323 326 319 317 324 324 325 323 323 322 321 322 321 318 319 315 313 311 311 314 317 317 319 315 315 310 309 307 310 318 314 314 315 314 313
309 309 308 308 308 309 310 312 317 316 321 319 321 326 315 311 324 324 323 323 320 321 322 321 320 317 315 319 312 310 309 306 312 316 317 318 310 306 311 312 312 315 316 315 314 314 316
309 309 309 308 309 309 310 311 315 317 321 317 316 324 320 313 319 325 321 320 320 321 320 321 320 319 320 310 306 312 314 314 316 317 313 316 310 308 310 307 307 313 315 314 314 312 316
309 309 309 309 309 309 310 311 313 317 321 321 314 320 327 319 320 322 322 320 321 321 319 320 321 320 316 309 314 313 314 317 316 314 309 307 306 306 313 303 310 313 314 313 314 311 315
309 310 310 310 309 310 310 311 312 314 319 324 316 320 325 317 318 320 321 322 321 320 315 318 315 313 308 312 309 310 311 311 314 315 312 309 308 311 311 308 310 313 313 311 311 314 313
310 310 310 310 310 310 310 311 312 313 317 324 322 321 322 321 320 320 318 318 319 320 319 317 314 321 316 313 308 312 310 313 309 312 314 314 312 311 311 310 310 313 312 312 312 313 310

GFSGBSN_925_thetae_015.txt.gz
Theta_e
313 315 314 312 310 311 313 313 314 315 314 314 313 313 313 313 313 314 315 314 312 313 312 310 310 310 316 320 317 317 318 317 318 316 314 314 317 317 316 314 314 312 311 311 310 310 309
313 314 314 311 309 311 313 313 314 314 313 313 313 312 313 313 313 313 315 313 313 312 311 310 310 313 315 315 316 318 316 316 316 315 316 315 316 318 317 314 310 310 310 310 312 312 311
313 314 313 310 310 312 313 314 314 314 313 313 312 313 313 313 313 313 314 313 313 312 310 310 312 315 319 315 316 315 315 316 317 316 316 318 318 318 314 313 312 310 311 311 312 313 314
313 313 313 310 309 312 313 314 314 313 313 313 313 313 312 312 313 313 312 312 312 310 310 313 315 316 315 314 316 317 316 315 315 316 318 317 317 316 314 312 312 313 310 311 312 314 312
313 312 312 309 310 313 314 314 314 313 313 313 313 313 312 312 312 311 311 311 310 313 315 315 315 318 313 314 316 316 315 315 316 317 317 317 316 313 312 311 310 310 312 314 315 313 313
313 312 311 309 311 313 314 314 313 313 312 312 313 314 312 311 311 311 311 313 316 316 315 315 316 317 316 315 316 316 315 316 316 317 316 315 313 313 311 309 311 313 315 313 314 314 314
313 313 311 309 312 313 314 314 313 313 312 312 314 315 312 310 310 312 314 315 313 315 317 310 313 316 318 316 314 315 315 316 316 314 316 315 314 314 315 315 314 316 315 315 314 314 314
312 313 310 309 311 313 314 313 313 313 313 313 315 315 314 312 313 314 317 320 318 323 318 317 319 318 317 317 314 314 318 316 316 316 316 314 315 316 317 318 318 317 316 317 317 313 314
312 313 309 310 311 313 314 313 313 313 313 312 314 315 315 314 315 315 316 317 322 320 321 316 317 317 316 315 315 316 316 316 316 317 316 315 316 317 317 317 319 319 318 318 318 314 314
312 312 309 310 311 313 314 313 313 313 313 312 314 315 315 316 315 318 318 324 326 325 312 314 316 315 317 316 315 316 316 317 317 315 315 318 317 318 317 317 318 322 319 318 318 314 318
312 312 309 310 310 313 313 313 312 313 313 312 313 317 316 316 318 323 326 324 325 321 314 314 317 316 315 318 316 315 317 316 315 316 317 320 319 318 318 318 318 320 318 318 318 316 316
312 311 309 309 310 313 313 313 313 313 313 312 313 316 319 317 320 325 324 322 320 320 317 317 317 317 316 317 317 316 317 315 316 316 316 318 317 317 318 318 318 318 319 319 318 317 319
313 309 309 308 309 313 313 313 313 313 313 312 312 316 317 323 326 326 321 315 316 320 318 317 318 317 317 318 318 317 316 316 318 318 320 317 317 315 317 320 318 317 319 320 322 320 322
312 308 309 307 309 312 313 313 313 313 313 312 314 317 320 326 327 322 320 312 324 321 318 316 318 318 319 319 318 318 317 316 315 318 318 319 319 316 315 317 319 318 318 319 327 321 318
311 309 308 307 309 312 312 313 313 313 313 313 317 320 326 321 321 322 314 317 322 321 317 318 318 319 320 319 318 317 316 316 317 316 321 319 319 317 316 316 318 319 316 316 317 314 317
309 309 307 308 310 311 312 312 313 313 313 313 318 322 321 321 318 321 319 321 324 320 317 317 319 318 319 319 320 319 319 318 319 315 315 318 317 316 316 317 316 316 315 318 313 316 319
308 308 307 308 310 311 312 312 313 313 313 314 322 310 318 323 317 313 317 322 326 319 320 318 318 319 318 318 318 320 320 319 319 319 315 318 314 315 316 316 317 317 316 314 315 312 315
308 308 308 309 310 311 312 313 314 312 313 317 314 310 326 322 309 313 320 323 321 319 319 321 321 320 318 321 323 322 322 320 317 319 316 316 313 315 317 315 316 316 316 312 311 317 310
308 307 308 308 309 311 312 315 314 313 314 319 314 321 325 317 308 310 316 322 319 319 320 321 321 321 320 322 322 322 321 318 313 316 318 315 314 316 319 317 314 318 316 314 310 307 313
307 307 307 308 310 311 312 315 314 314 314 320 314 318 315 315 309 312 320 322 321 319 320 320 320 320 320 322 320 321 321 319 313 313 313 314 315 313 316 317 314 313 315 315 312 310 312
307 307 307 308 310 311 312 316 315 314 315 322 317 314 314 316 317 322 319 320 321 321 320 319 320 321 320 322 322 322 320 318 314 313 315 313 316 315 313 313 313 313 312 314 315 313 313
307 307 307 308 310 311 313 316 316 315 318 318 321 316 312 309 313 319 320 322 320 321 320 321 319 320 319 319 319 321 317 315 314 316 317 313 313 311 316 313 314 313 311 310 310 311 313
307 306 307 309 309 311 314 315 316 315 317 316 318 319 313 312 313 317 318 321 320 319 319 318 318 317 316 318 315 314 314 314 315 316 317 312 309 306 307 310 310 305 310 313 312 312 311
307 306 308 308 309 311 315 315 316 316 316 320 322 317 314 313 311 315 320 320 320 319 320 318 316 316 316 310 309 308 308 312 315 315 312 310 307 301 304 303 304 308 310 311 312 313 314
307 307 308 308 310 312 315 316 315 316 316 323 321 317 311 307 316 320 320 319 318 317 319 319 318 314 311 306 307 310 306 307 310 314 312 310 303 305 303 306 305 309 312 312 312 311 312
307 307 308 308 311 312 315 317 318 316 317 320 323 318 311 314 317 318 318 317 316 315 316 318 316 312 308 301 303 305 306 308 313 316 311 307 301 303 304 300 301 305 312 311 310 312 312
308 308 308 309 311 312 314 317 321 319 319 320 321 322 316 313 315 317 317 316 313 313 314 318 318 316 307 300 301 306 312 309 313 311 308 305 300 302 294 299 304 305 311 310 312 308 311
308 308 309 309 310 312 313 316 320 316 315 318 322 323 318 310 316 318 318 316 315 314 313 314 312 309 303 306 303 304 305 308 310 311 311 310 309 305 303 302 308 307 310 312 309 308 311
308 308 309 309 310 311 312 314 319 320 318 320 321 320 318 313 315 317 318 318 318 314 313 311 313 311 309 306 301 306 307 309 306 311 309 310 307 308 308 309 307 307 310 308 308 310 309

GFSGBSN_925_thetae_018.txt.gz
Theta_e
315 314 313 313 314 313 310 310 313 314 315 314 314 313 313 313 312 313 313 313 312 312 311 311 311 311 314 319 316 316 316 317 315 316 314 313 314 315 316 315 314 313 312 310 309 309 309
315 314 313 313 314 312 310 310 312 312 314 314 313 313 312 311 312 313 313 313 313 311 311 311 310 312 312 315 315 317 315 317 317 315 314 313 314 315 317 314 314 312 309 310 310 307 308
315 314 313 313 314 312 309 310 312 313 313 313 313 312 312 311 312 313 313 313 312 311 311 311 311 312 316 316 316 315 316 315 316 316 314 314 315 316 315 314 311 309 310 310 310 312 312
315 314 313 312 313 311 309 311 313 313 313 313 312 312 312 312 312 313 313 313 312 311 310 310 311 314 316 315 314 316 316 313 315 316 315 316 316 316 315 311 311 311 309 310 311 313 311
315 314 313 313 312 311 309 312 313 313 313 312 312 312 313 312 312 313 312 311 311 311 312 312 313 316 314 314 316 315 315 314 314 315 315 315 315 312 310 310 310 309 311 313 315 312 313
315 315 314 313 312 311 309 312 313 313 313 312 312 313 313 311 311 312 311 311 314 313 313 313 315 316 314 313 317 315 315 315 315 315 315 315 311 312 311 309 311 311 312 312 314 313 311
316 315 314 313 312 310 310 312 313 313 313 312 312 313 313 310 312 312 311 313 312 314 315 310 312 311 315 316 313 314 315 316 315 314 316 313 313 314 315 312 311 313 314 314 313 312 314
316 316 314 312 311 309 310 312 314 313 313 312 312 314 313 311 312 313 314 315 315 320 321 316 316 315 316 316 314 314 316 316 315 316 315 313 315 315 316 316 315 314 313 316 314 313 316
316 316 315 312 311 309 311 312 313 313 312 312 313 314 314 313 313 313 315 316 319 321 320 315 316 314 316 314 314 315 315 315 315 315 315 314 316 316 317 316 317 318 316 317 315 315 315
318 316 314 312 311 309 311 312 313 312 312 312 312 313 315 314 313 315 315 318 326 321 312 314 315 314 316 314 314 315 315 315 315 314 317 317 317 316 315 317 317 320 318 316 315 316 318
318 317 314 312 311 309 311 313 313 312 312 312 312 314 315 314 317 321 324 324 325 316 313 312 315 315 314 317 314 314 316 314 315 315 316 319 318 316 317 318 317 319 317 316 315 315 314
317 317 314 312 310 309 311 313 313 312 312 312 312 314 314 314 316 322 326 323 317 318 316 315 316 316 316 316 316 315 316 314 314 316 315 316 315 316 317 317 316 316 318 316 316 315 319
316 317 314 312 309 310 310 312 313 312 312 312 312 315 316 316 324 327 323 312 315 319 316 316 316 315 316 317 317 316 315 315 316 318 318 316 316 314 315 319 316 317 317 319 321 319 321
316 317 313 312 308 310 310 312 313 312 312 312 312 314 316 322 327 323 315 310 318 319 316 315 316 316 317 318 317 316 316 316 314 316 316 317 315 315 314 317 317 316 317 318 325 322 319
315 317 312 311 309 309 310 312 312 312 312 312 312 315 321 324 323 322 310 312 317 319 316 317 317 318 319 318 317 316 316 315 316 316 319 318 318 315 315 315 317 317 316 314 316 313 316
314 316 312 310 309 308 311 312 312 312 312 312 316 319 322 322 322 318 312 314 321 320 316 316 318 317 318 319 318 317 318 317 317 315 314 317 318 315 315 316 314 316 314 316 312 316 317
314 315 312 308 309 308 311 312 312 312 312 312 319 311 318 324 316 310 312 315 323 320 318 317 317 318 317 317 318 319 318 318 318 318 315 315 314 314 315 315 317 316 315 313 313 310 313
316 313 310 309 307 309 311 312 312 313 312 315 309 310 325 318 310 310 317 321 321 317 318 320 318 317 316 319 321 321 320 318 315 318 316 314 313 314 316 315 315 315 315 311 310 314 309
315 312 309 308 307 310 311 312 312 313 312 318 312 320 322 311 309 309 314 320 319 318 319 320 320 319 319 320 321 320 320 317 312 315 315 313 314 316 315 313 313 317 315 311 308 307 314
313 310 308 307 308 310 311 311 313 313 313 318 314 319 315 310 308 311 315 320 320 318 319 318 319 318 319 321 318 320 320 317 312 313 313 312 313 312 314 313 312 314 316 312 310 308 310
312 308 307 308 309 310 311 312 315 312 314 319 311 315 315 317 317 312 314 319 320 321 319 317 319 319 319 321 321 320 319 316 313 313 315 311 314 313 313 312 312 312 312 313 312 311 312
309 308 308 308 309 310 311 314 314 312 315 317 319 313 307 310 316 319 315 318 319 320 319 320 319 319 318 319 317 319 316 313 310 315 316 311 312 310 315 312 311 313 310 309 311 311 311
308 307 307 308 309 310 311 315 314 314 316 314 317 314 310 308 313 317 317 320 319 318 318 317 317 316 317 318 315 313 311 311 313 315 314 310 308 305 306 308 306 306 308 309 309 309 309
307 307 307 309 310 310 313 315 315 314 316 318 319 315 312 309 310 316 318 319 319 317 318 317 315 314 314 307 307 308 307 311 313 312 310 308 305 299 303 302 304 308 309 309 310 310 308
307 307 308 309 310 312 315 315 315 315 317 322 321 316 310 304 308 315 318 318 316 316 318 317 316 312 308 306 308 312 307 308 309 310 307 306 302 303 303 304 305 307 308 311 311 311 310
307 308 309 310 311 314 315 315 316 315 317 321 321 319 311 310 313 315 317 316 315 314 315 317 314 309 305 300 303 307 311 312 312 315 309 305 301 302 298 301 301 305 308 309 310 311 309
307 309 309 311 312 314 316 316 315 315 316 319 322 320 314 313 314 315 315 316 311 311 313 315 315 315 306 299 300 303 307 307 311 310 310 305 302 301 293 298 303 304 309 309 311 309 309
308 309 310 311 312 314 317 320 316 315 316 319 320 322 315 310 315 317 316 313 313 312 312 312 312 309 302 306 303 303 302 307 309 309 311 310 310 303 300 298 308 305 311 311 309 306 309
309 309 310 311 312 313 315 320 319 318 318 317 320 316 316 312 314 316 316 317 317 312 311 309 313 311 309 305 298 300 307 304 305 309 308 310 307 307 306 308 305 305 309 307 306 307 309

GFSGBSN_925_thetae_021.txt.gz
Theta_e
317 316 316 315 313 313 314 313 311 310 313 314 314 313 311 312 313 313 313 311 312 312 311 311 310 310 313 317 317 315 315 316 312 314 314 314 315 315 318 317 315 314 315 311 311 312 317
318 316 316 315 313 313 313 313 310 309 313 312 313 313 311 312 312 312 312 312 312 311 311 310 310 310 311 315 314 316 315 317 313 314 313 313 315 315 317 315 316 315 311 311 309 309 310
319 316 316 315 313 312 313 313 310 309 312 311 312 312 312 311 310 311 312 313 313 311 310 309 310 311 315 316 315 316 314 316 316 314 314 314 314 317 317 316 312 310 312 311 311 311 312
319 317 316 315 314 312 312 312 309 310 312 312 312 312 312 312 311 311 313 313 311 310 310 309 310 312 317 314 314 314 315 315 315 315 315 315 315 315 317 312 312 312 312 314 312 313 311
322 317 316 315 314 313 312 311 309 310 312 313 312 312 312 312 312 313 313 311 310 310 310 310 312 314 318 314 314 314 314 313 313 314 315 315 315 317 312 313 314 313 314 314 314 314 313
321 319 316 316 314 313 312 311 309 311 312 313 312 312 312 312 312 313 311 310 310 311 312 312 314 317 314 314 317 314 314 314 316 314 315 315 313 315 312 313 316 315 314 313 315 315 317
315 321 316 316 315 314 312 311 309 311 312 313 312 312 312 313 313 313 309 311 313 315 314 314 313 312 312 315 313 313 314 315 316 316 318 314 316 316 316 312 312 313 314 315 313 314 321
310 318 318 316 315 314 312 311 309 311 313 312 312 312 313 313 313 311 312 313 313 318 323 317 316 315 314 315 315 313 316 316 317 317 315 317 318 316 317 316 316 315 317 317 316 316 321
305 313 319 317 315 314 312 310 309 312 313 312 312 312 313 312 312 311 312 316 318 320 322 316 317 315 314 315 313 315 315 315 315 316 315 318 317 315 317 317 319 318 318 317 319 318 318
307 307 316 318 316 315 312 310 309 312 313 312 312 312 314 313 312 313 314 315 319 322 315 315 314 315 314 313 314 313 314 315 315 316 318 319 316 316 317 319 317 321 317 317 319 320 322
307 305 308 318 316 315 312 310 309 312 313 312 312 311 313 313 315 316 320 325 324 314 318 313 314 314 313 315 313 314 314 314 316 315 317 319 317 317 319 317 317 320 316 317 315 317 318
307 307 306 316 317 316 312 310 310 312 313 312 312 311 313 313 314 319 323 324 316 322 324 315 315 315 316 315 315 314 316 315 314 317 317 316 314 316 317 316 316 317 319 319 319 319 322
305 308 306 314 317 316 312 310 310 312 312 312 312 311 313 315 318 325 325 312 319 322 316 315 316 315 316 317 317 316 316 318 319 321 320 317 317 314 315 319 316 319 321 325 327 327 324
304 307 307 311 316 316 312 309 310 312 312 311 312 311 314 314 319 324 314 314 318 317 317 314 315 315 318 317 316 315 316 318 316 317 318 318 319 315 315 317 319 318 321 328 325 327 325
303 307 307 309 316 316 312 309 311 312 312 311 311 312 314 317 318 318 313 316 317 317 315 316 316 318 318 317 317 317 316 316 315 315 321 320 317 315 314 315 317 318 319 317 319 314 322
302 307 307 309 315 316 311 309 310 312 312 311 312 314 317 324 324 314 315 314 315 318 316 315 318 317 319 318 318 318 317 317 317 316 314 317 320 315 315 315 315 318 315 320 318 320 319
301 307 307 311 315 314 310 309 310 312 311 311 317 317 316 324 318 312 316 314 321 321 317 316 317 318 318 318 318 318 318 318 317 318 315 314 318 317 315 317 319 318 317 315 315 315 317
303 306 305 312 316 312 309 309 311 311 311 312 309 313 322 316 313 311 316 316 321 319 317 319 316 317 317 318 320 320 320 318 315 318 318 314 317 320 316 315 315 315 316 316 319 316 314
302 304 303 311 316 311 309 309 311 311 312 314 310 320 318 309 314 312 313 319 320 317 318 319 320 318 319 321 321 320 320 315 312 315 318 315 317 321 319 316 315 317 315 311 311 313 316
303 302 304 311 314 309 308 310 311 311 312 315 316 322 318 309 308 313 316 319 319 317 318 317 318 318 320 321 319 321 320 316 312 314 313 314 314 317 319 315 314 316 316 312 314 317 314
303 302 304 310 313 308 308 311 311 311 312 316 312 317 318 318 312 311 312 317 319 320 318 316 319 318 320 322 320 320 319 315 313 314 315 314 317 314 313 313 312 311 314 314 313 313 318
302 304 308 313 309 307 309 311 311 312 312 314 314 314 308 312 314 313 313 319 319 319 318 319 320 318 318 320 319 321 318 314 312 316 316 312 316 312 315 313 312 314 312 312 314 313 312
303 306 311 309 307 308 310 311 311 313 313 314 315 310 311 307 315 313 315 317 318 319 317 316 317 317 318 318 315 313 312 313 313 317 314 313 312 312 313 309 308 312 312 312 311 311 314
304 309 310 307 308 309 310 310 313 313 314 317 318 311 312 309 312 314 317 318 318 317 319 316 315 316 313 310 309 311 311 312 313 311 310 309 307 305 312 306 313 311 310 310 311 311 310
309 310 307 307 308 309 310 312 314 313 314 320 319 314 310 307 309 314 317 317 317 316 318 317 316 311 309 309 313 314 313 312 311 309 307 307 307 307 315 311 308 309 306 311 313 313 311
309 307 307 308 309 310 311 314 315 313 314 319 320 316 310 310 311 313 317 315 316 315 316 315 311 308 305 305 309 315 318 315 312 315 309 305 304 312 306 311 312 309 305 310 311 317 311
307 307 308 310 310 311 314 315 315 313 314 320 319 315 314 314 314 314 317 317 312 313 315 313 313 314 306 306 310 313 314 308 312 312 312 312 308 312 303 313 310 306 308 309 315 315 308
307 309 310 311 312 314 315 315 315 314 314 319 320 320 315 312 315 316 313 313 313 314 317 314 315 313 308 312 313 310 312 311 311 310 313 314 314 313 304 309 315 306 311 315 314 308 309
310 311 311 312 313 316 317 315 316 314 315 317 319 315 316 314 315 315 315 315 316 311 313 310 316 312 312 311 305 305 311 307 308 316 308 313 312 315 311 314 308 306 312 310 308 309 310

GFSGBSN_925_thetae_024.txt.gz
Theta_e
322 320 319 316 316 315 313 312 313 313 310 309 311 312 312 312 313 312 311 312 312 311 311 311 310 309 313 320 317 315 316 311 312 314 316 316 316 317 315 317 318 318 319 317 316 323 328
324 321 319 318 316 315 314 312 312 313 310 309 312 312 312 312 312 311 311 312 312 310 311 310 309 309 315 318 315 316 315 313 314 314 318 317 317 317 318 320 319 319 318 316 314 319 325
318 323 320 319 316 316 314 312 312 313 310 310 312 312 313 311 311 310 311 311 311 311 310 309 309 311 318 318 315 319 317 317 316 315 319 318 317 317 319 321 317 316 316 315 314 317 320
313 320 323 319 317 316 314 313 312 312 310 310 312 312 312 311 311 310 311 312 311 310 309 309 309 312 320 315 316 316 316 317 317 316 317 317 317 318 319 316 314 315 316 316 316 316 314
311 314 322 322 318 316 315 313 312 311 310 310 312 312 312 311 311 310 311 311 310 309 309 310 313 316 320 316 316 315 316 315 317 317 316 316 317 319 318 319 316 315 315 316 317 318 316
310 311 317 322 320 316 315 314 312 311 310 310 312 312 311 311 312 311 311 310 309 309 311 312 315 322 320 317 317 315 313 316 318 317 317 317 318 320 317 318 318 316 317 315 316 320 317
307 311 312 320 322 317 316 314 313 311 310 310 312 312 311 312 312 311 309 312 318 320 317 319 316 318 315 315 315 314 315 317 318 319 321 319 320 319 318 317 317 317 318 316 318 321 324
306 308 308 315 321 319 316 315 313 311 309 311 313 312 312 312 312 310 311 318 318 322 322 320 318 317 316 316 318 316 317 318 320 319 319 319 320 319 320 317 318 318 318 320 319 320 324
305 307 307 307 317 320 316 315 314 311 309 311 313 312 312 313 312 309 313 316 321 319 327 321 320 317 316 316 317 317 318 319 319 319 320 321 321 319 319 320 320 321 321 321 321 322 323
305 306 306 306 308 319 318 315 314 312 309 311 313 312 312 313 310 314 315 314 316 318 320 317 318 319 317 317 317 316 317 319 319 319 322 322 319 321 321 321 321 322 320 321 322 323 322
306 305 307 306 305 315 319 316 315 312 309 311 313 312 312 312 317 317 321 320 325 320 319 317 317 315 317 317 317 318 316 319 319 320 321 322 320 321 322 321 320 322 320 322 321 323 323
304 304 306 308 306 308 318 317 315 312 309 311 312 312 312 312 314 318 320 322 322 325 319 317 317 318 319 318 318 319 320 319 319 321 321 321 319 321 321 320 320 320 322 322 322 323 324
304 304 304 306 306 307 313 318 316 312 309 312 312 311 312 315 318 323 324 322 322 323 318 317 318 318 318 318 319 320 321 321 321 323 323 321 320 319 320 322 322 323 324 323 327 326 324
303 304 304 304 306 307 309 317 316 312 310 312 312 311 312 315 317 319 319 322 321 318 319 317 318 318 319 319 320 320 321 321 320 321 322 321 322 319 319 322 322 323 323 322 319 321 321
302 303 304 304 306 307 309 315 317 312 310 312 311 311 312 315 315 318 321 323 320 320 320 318 318 318 320 319 320 321 322 322 321 321 321 321 320 319 318 320 321 321 322 322 325 321 326
302 302 302 303 305 307 308 315 316 311 310 312 313 313 315 317 317 318 323 321 320 321 319 318 318 318 320 319 319 321 322 320 321 320 320 321 322 319 319 319 319 322 320 323 323 325 321
300 301 301 302 304 308 307 315 315 310 310 312 315 318 322 320 322 325 324 322 320 324 321 319 318 320 320 321 319 320 321 321 320 320 320 320 322 322 320 321 322 321 321 319 320 321 318
301 300 300 301 303 308 307 314 314 309 311 311 316 321 321 320 326 323 322 320 322 322 322 320 321 321 321 321 322 320 321 321 320 321 322 320 323 325 322 319 319 320 321 319 319 319 320
300 300 300 302 303 306 308 314 313 309 310 313 318 324 319 314 326 325 320 320 324 321 322 322 322 322 323 324 324 324 323 318 317 320 323 320 323 325 323 320 319 320 320 318 318 319 320
298 300 299 301 305 306 311 313 310 310 311 316 320 326 325 319 317 320 320 321 321 321 322 322 323 324 324 324 324 325 324 319 316 318 312 316 322 323 325 320 320 321 320 317 317 319 317
298 300 300 303 304 304 311 313 309 310 311 315 322 323 323 324 318 320 320 320 320 323 321 322 323 324 324 326 325 325 323 318 318 316 320 321 323 320 317 317 317 317 319 318 318 318 318
299 300 301 303 301 302 309 312 309 311 311 317 321 323 320 322 318 318 317 321 319 322 323 323 325 324 324 326 323 326 324 320 321 320 322 318 322 319 320 317 316 317 317 317 318 318 318
300 300 302 302 301 305 311 309 309 311 312 318 319 315 321 315 318 319 318 319 319 324 321 321 324 324 325 323 321 322 319 319 318 322 322 321 321 319 319 314 315 320 318 317 316 317 318
301 302 303 304 304 308 311 308 310 311 313 318 321 318 323 322 319 317 317 318 322 323 325 320 322 324 319 317 317 318 318 318 317 316 317 318 318 316 322 314 329 315 313 313 316 316 316
300 303 303 303 308 310 310 308 310 311 313 320 319 320 322 322 319 317 317 318 322 321 323 322 320 317 317 318 323 322 323 324 319 314 314 314 316 317 327 317 314 311 311 312 314 314 315
303 304 305 308 311 308 308 310 310 311 312 319 320 315 322 323 320 317 318 321 324 325 323 318 314 313 313 319 324 328 327 322 320 320 313 311 313 319 316 332 333 315 312 313 314 316 312
305 305 308 310 307 308 309 310 310 313 313 320 317 315 321 326 318 320 320 321 322 323 325 318 316 317 314 323 334 330 325 315 319 319 320 321 318 325 320 327 318 313 310 313 316 314 315
307 309 308 307 308 309 310 310 312 313 313 320 318 316 323 324 319 320 318 320 320 323 327 319 320 319 319 328 330 324 328 318 317 315 319 321 323 325 317 326 326 310 314 318 316 316 315
307 307 308 308 309 310 310 312 313 313 313 320 319 316 318 323 322 318 317 317 319 320 322 319 324 321 322 325 322 320 321 314 321 323 313 319 319 320 318 319 313 312 315 315 314 315 315

GFSGBSN_925_thetae_027.txt.gz
Theta_e
318 322 324 321 320 318 315 315 314 312 313 313 310 310 312 312 312 312 312 311 311 311 311 311 310 310 313 322 321 320 316 312 312 316 317 315 316 317 317 317 317 320 320 321 323 325 324
312 318 321 324 321 319 316 316 314 312 312 313 310 310 312 312 312 311 311 311 311 311 311 311 309 309 317 321 318 321 319 314 316 317 316 316 317 317 318 317 318 320 320 319 319 324 327
308 311 318 321 323 320 318 316 315 313 312 313 310 310 312 312 312 310 310 311 311 311 311 309 308 312 319 321 318 321 319 317 316 317 318 318 318 319 320 320 320 319 318 316 317 323 323
308 308 314 316 322 323 319 316 315 313 312 312 310 310 312 312 311 311 310 311 311 310 310 309 309 315 321 318 318 319 320 319 319 318 318 319 319 319 320 320 319 318 319 320 319 321 324
307 308 308 312 319 323 321 317 316 314 312 311 310 310 312 312 310 311 311 311 310 309 308 310 315 319 323 317 317 318 318 318 319 319 318 318 319 320 321 321 319 318 318 318 318 319 320
307 307 308 310 312 321 322 319 316 314 313 311 310 310 312 312 311 311 311 311 311 311 313 315 317 323 323 319 319 317 317 319 321 320 320 320 320 321 321 321 320 318 318 318 318 319 322
305 307 306 309 311 317 321 321 316 315 313 311 310 311 312 312 311 311 310 314 319 322 319 321 320 320 318 318 317 317 316 318 321 321 322 321 320 321 320 320 319 319 319 317 319 321 319
305 306 306 306 310 312 319 321 318 315 314 312 310 311 312 312 312 311 312 318 322 324 326 320 319 318 318 318 318 318 317 319 320 321 321 321 321 321 321 319 319 318 318 319 319 319 321
305 304 305 305 307 308 314 320 320 316 314 312 310 311 312 312 312 310 315 317 323 322 329 321 319 319 318 318 318 319 318 319 320 320 321 324 323 321 320 318 319 319 319 320 320 321 321
305 305 304 305 305 307 307 317 320 316 315 312 310 312 312 312 311 316 317 316 317 319 329 320 319 320 319 319 318 318 318 319 320 320 321 323 322 321 320 320 321 321 322 322 322 323 322
304 305 305 303 304 306 306 309 318 318 315 313 310 312 312 313 321 318 324 321 324 328 326 319 319 319 319 318 318 318 319 319 319 318 321 323 322 322 321 322 323 324 322 323 323 323 325
304 304 305 305 303 305 306 306 315 319 315 313 310 312 312 312 314 321 322 327 327 331 325 318 319 318 318 318 317 319 318 319 320 320 320 323 321 323 323 323 323 322 324 324 324 322 324
303 303 304 305 304 303 306 306 310 318 316 313 310 312 311 315 318 321 325 327 328 326 319 318 318 318 318 318 318 318 319 318 318 319 321 322 322 322 322 323 323 322 323 326 326 325 325
301 302 304 304 303 304 306 307 307 316 316 312 310 312 311 315 318 323 327 328 328 320 320 318 318 318 318 318 318 318 318 318 318 320 321 322 324 322 322 323 323 323 323 325 323 322 321
299 301 303 303 304 305 304 306 307 312 317 311 311 312 314 315 317 322 329 330 325 319 320 318 318 318 318 319 319 319 319 318 319 320 322 322 322 321 321 322 321 323 322 323 325 328 325
300 300 302 303 303 304 304 304 307 310 316 310 313 314 315 317 318 322 329 325 322 320 320 318 318 318 320 320 318 319 320 321 322 322 323 322 323 321 321 321 322 323 322 322 321 323 322
298 300 301 302 302 303 303 304 307 310 314 310 315 319 317 319 320 324 329 324 321 320 321 320 319 318 319 319 318 320 321 322 322 323 323 322 321 323 321 322 320 324 322 321 322 324 324
298 299 302 301 301 302 303 304 307 310 314 310 317 322 322 322 323 326 326 323 320 321 324 320 321 319 320 320 320 319 321 321 322 322 322 322 321 324 323 322 322 322 323 323 323 321 322
297 301 301 300 301 301 302 304 307 311 312 312 321 324 325 322 328 332 324 322 321 322 323 322 320 321 320 320 321 319 319 322 322 323 322 323 321 324 324 323 322 320 320 320 320 321 321
298 300 300 300 300 301 302 303 307 310 311 314 321 325 326 325 324 326 325 322 322 322 322 322 319 323 323 323 324 323 323 322 321 322 313 318 321 323 325 323 322 323 321 320 320 321 320
301 301 301 300 301 301 303 301 305 310 311 314 323 322 323 328 329 327 323 321 321 323 323 323 324 323 323 324 325 325 325 322 321 317 320 323 324 322 322 321 320 320 319 320 320 319 320
298 298 299 300 300 300 303 302 306 310 310 314 323 323 322 325 325 324 321 322 320 322 324 324 323 321 322 323 324 324 325 324 324 323 324 322 323 323 324 322 320 320 319 318 318 318 317
299 299 298 299 300 303 303 302 303 311 310 314 320 321 324 325 327 324 325 321 320 323 325 324 323 323 324 326 326 325 325 324 323 325 325 324 323 322 319 318 318 322 321 319 318 318 318
299 299 298 300 301 302 301 301 303 311 310 315 320 322 324 328 326 322 320 320 321 324 325 324 324 325 325 322 322 322 322 321 321 322 323 324 323 323 322 318 326 315 315 315 316 317 317
298 299 300 300 302 302 300 300 301 310 310 317 321 323 325 329 322 319 319 320 320 324 325 325 323 323 322 323 324 324 325 325 320 318 317 319 321 322 329 319 316 315 313 314 315 315 315
299 299 300 301 302 302 302 302 307 311 310 313 323 323 324 329 323 318 318 318 324 327 327 322 321 320 320 326 328 326 326 323 324 323 316 316 318 320 319 329 329 319 314 314 315 316 314
299 301 301 301 304 303 304 308 310 309 310 311 323 319 320 321 318 318 319 320 321 324 327 323 321 321 320 331 333 331 326 321 323 324 323 324 323 327 323 327 323 316 314 315 317 319 316
300 300 301 303 305 306 307 310 309 309 310 310 324 322 322 323 321 321 319 319 320 324 329 324 324 323 324 329 335 330 332 324 322 319 322 323 327 326 326 325 325 314 315 317 319 315 315
300 301 302 303 306 309 310 308 309 310 310 312 323 322 325 324 324 322 321 321 321 322 324 323 324 325 325 327 331 331 326 320 326 323 318 323 322 323 321 321 317 314 314 314 315 315 315

GFSGBSN_925_thetae_030.txt.gz
Theta_e
313 314 318 321 324 322 320 319 316 315 314 312 313 312 310 311 312 312 312 312 311 311 311 311 311 309 314 322 321 321 317 314 313 314 318 318 315 316 317 318 318 318 319 320 321 327 326
309 310 312 317 319 324 323 320 318 316 314 313 312 313 309 311 312 311 311 311 311 311 311 311 310 310 317 322 319 321 320 313 315 316 318 316 316 317 318 317 318 318 320 320 319 325 325
310 309 308 310 314 320 323 322 319 316 315 313 312 312 309 311 312 311 311 311 311 311 311 311 310 312 318 319 320 321 319 316 316 317 317 317 317 318 319 320 318 320 320 320 318 323 326
308 307 309 309 310 315 321 323 321 318 316 314 312 312 310 311 312 312 312 310 310 311 310 309 310 315 321 319 319 319 321 320 319 318 318 319 320 319 320 321 320 320 319 319 319 323 324
306 306 307 308 309 311 317 321 323 320 316 315 313 311 310 311 312 312 312 311 311 310 310 311 316 320 322 319 318 318 319 319 320 319 319 319 319 321 320 321 322 319 320 321 320 320 324
307 306 306 306 306 310 311 317 322 322 317 315 313 311 310 311 312 312 312 311 314 310 314 314 317 321 323 321 318 318 318 319 321 321 320 320 320 321 321 322 323 320 320 320 319 318 320
307 306 305 307 307 307 310 312 319 322 319 316 314 312 310 312 312 312 311 314 318 321 319 320 321 320 319 319 318 318 318 320 321 322 323 322 322 321 322 322 321 319 319 320 318 319 319
305 306 306 304 307 306 309 312 316 321 320 316 314 312 310 312 312 312 311 320 324 325 328 322 317 320 318 319 319 318 317 319 322 322 322 323 323 320 322 321 321 321 320 320 319 319 320
305 305 306 305 305 304 306 310 313 319 321 317 314 312 310 312 312 312 314 316 320 320 327 323 318 317 319 319 318 318 318 319 321 321 322 324 323 322 322 320 319 320 320 322 320 318 316
302 304 305 306 305 305 305 306 308 316 320 317 315 312 310 312 311 317 317 316 315 318 328 323 320 319 319 319 318 318 318 318 321 320 325 324 322 322 320 319 319 322 323 321 321 321 320
302 301 304 305 305 304 304 305 307 309 319 318 315 312 310 312 319 319 325 320 327 328 331 322 320 318 319 319 318 318 319 319 320 321 323 325 323 323 321 322 323 322 322 323 321 321 328
302 302 303 304 305 305 303 304 306 307 315 318 315 312 311 312 313 319 322 327 329 333 328 319 319 319 318 318 318 318 318 319 319 319 320 322 321 322 325 324 323 323 323 323 322 322 331
302 302 303 304 304 304 304 303 305 306 308 317 315 312 311 315 318 318 318 328 330 326 320 320 319 319 318 318 318 318 319 318 319 320 321 320 321 322 324 322 321 320 322 328 333 334 332
298 301 302 304 303 304 303 303 304 306 306 316 315 311 311 314 317 320 327 334 327 320 322 318 318 318 318 319 317 317 318 318 318 318 319 322 324 321 322 321 324 323 321 329 333 332 329
297 299 301 302 303 304 305 304 303 305 307 314 314 311 313 314 315 320 329 334 326 324 320 319 318 318 318 318 317 317 318 318 318 318 323 324 325 322 322 321 321 322 323 322 323 331 335
297 299 299 299 302 304 304 302 304 306 308 313 313 313 313 315 316 320 329 329 324 321 321 319 318 318 318 318 318 318 318 318 318 319 323 327 327 325 321 321 321 321 321 325 323 325 324
297 299 298 298 299 303 304 303 305 305 309 312 313 315 315 315 318 323 330 328 326 321 320 320 318 318 319 320 319 319 318 319 321 322 322 323 326 324 322 321 318 323 322 320 319 326 331
298 297 298 298 299 300 304 304 304 304 308 312 314 317 319 320 321 319 328 324 321 323 320 321 320 319 319 320 320 318 319 320 321 321 322 321 322 325 322 322 322 321 323 322 334 324 327
297 297 297 297 299 299 303 303 304 305 308 311 315 320 321 321 321 324 324 324 322 322 322 323 321 320 320 320 320 319 319 324 324 323 323 323 322 325 322 323 323 321 320 320 322 325 327
296 297 297 298 299 298 303 302 304 305 309 312 317 322 325 325 319 322 326 324 323 323 321 322 321 320 321 320 321 321 321 323 323 323 316 323 322 320 326 322 322 324 322 319 320 331 325
296 297 298 298 299 298 303 301 303 305 308 312 318 321 323 326 326 324 327 323 323 323 321 322 322 320 323 324 321 323 322 325 322 318 320 322 321 320 320 321 322 322 321 320 319 321 323
297 297 298 298 300 302 302 302 303 305 307 310 319 321 324 322 323 324 325 326 323 322 322 324 322 321 323 323 323 323 323 325 323 324 323 323 326 323 325 323 322 322 321 320 319 318 318
296 299 299 299 300 301 301 301 302 304 306 311 314 320 323 323 324 325 328 328 324 323 323 323 323 323 324 324 326 326 327 326 324 326 326 326 328 328 326 320 319 321 320 319 318 318 319
298 298 300 300 300 300 301 302 303 305 306 311 314 322 324 326 323 325 326 325 322 323 326 324 324 325 326 324 325 324 324 324 325 325 325 327 328 331 331 319 324 317 317 315 316 316 316
298 298 298 299 300 300 300 302 303 303 305 309 315 321 323 326 324 323 327 326 322 322 325 324 326 326 326 326 328 327 328 323 322 320 321 323 326 329 331 324 319 317 315 315 316 315 315
299 299 299 298 299 300 300 302 302 302 304 308 312 319 324 327 327 323 323 324 324 328 328 325 324 326 327 330 335 330 331 324 323 322 317 317 323 329 325 331 329 321 315 315 315 319 315
299 298 298 298 299 300 301 302 302 302 303 302 310 313 323 324 324 322 323 324 325 329 328 326 323 324 324 337 329 337 331 322 328 328 322 325 327 326 326 328 326 318 315 315 320 324 317
298 297 297 298 299 301 302 302 301 301 302 302 309 312 320 325 324 324 322 322 324 328 330 327 326 326 332 332 337 336 334 330 325 321 324 325 330 325 330 325 326 315 315 317 321 318 317
298 298 298 300 301 302 302 303 302 304 303 306 311 313 315 324 327 324 322 322 323 325 329 326 328 326 328 331 335 337 325 321 330 329 319 325 325 330 326 326 320 316 315 315 316 316 316

GFSGBSN_925_thetae_033.txt.gz
Theta_e
311 313 314 316 320 323 324 323 321 319 316 315 314 312 313 311 310 312 312 311 312 310 311 311 311 310 312 319 323 317 316 315 316 314 314 315 317 315 314 314 313 315 316 316 325 326 327
308 308 309 310 313 318 321 322 322 321 318 316 314 312 312 311 309 311 312 312 312 310 311 311 311 309 315 323 319 321 318 313 313 313 317 317 316 314 314 315 315 316 315 316 318 327 326
309 308 308 309 309 311 317 319 321 322 320 317 315 313 312 311 309 311 312 312 311 310 311 310 310 311 316 317 319 318 319 313 315 315 316 317 318 317 317 318 319 319 317 317 317 322 326
308 307 306 307 310 309 313 316 319 321 322 319 316 314 312 311 309 311 312 312 311 311 311 310 309 312 319 316 319 319 318 317 316 316 317 318 319 319 318 317 319 319 317 317 318 323 324
307 307 307 306 307 308 309 313 318 320 322 321 316 314 312 311 309 312 312 312 311 312 310 310 313 314 324 321 319 318 318 320 319 319 318 318 319 319 319 318 318 318 317 320 319 322 325
307 307 307 306 305 306 306 310 313 318 320 322 318 315 313 311 309 312 312 311 311 310 315 312 314 317 319 321 320 318 318 319 320 319 319 319 317 318 317 318 320 320 319 319 320 318 323
306 307 308 307 305 306 306 307 311 314 319 320 319 316 313 311 310 312 312 316 315 317 315 319 319 318 319 318 319 318 318 320 320 320 322 322 319 320 322 321 322 321 318 318 317 316 322
304 305 306 307 306 305 306 307 309 311 315 320 321 316 314 311 310 312 312 315 320 319 324 321 319 318 317 319 318 318 318 319 321 321 322 322 323 321 321 323 322 322 320 319 318 318 318
304 304 305 306 307 306 304 307 307 311 313 320 321 316 314 310 311 311 312 314 312 316 323 324 323 321 317 318 319 317 315 317 319 320 321 324 323 322 321 321 322 321 323 320 318 317 316
303 303 303 304 305 305 305 305 306 308 312 319 320 316 314 310 311 313 316 315 310 313 326 324 324 318 316 318 319 318 317 318 319 322 322 322 322 323 322 322 321 321 322 323 322 318 317
302 303 303 302 304 305 306 305 306 306 308 316 319 316 313 309 314 318 321 325 318 320 331 323 321 318 317 318 318 317 317 316 319 323 322 322 323 323 324 323 322 322 321 321 322 323 324
300 300 302 303 302 302 305 305 304 305 307 310 319 316 313 311 311 315 320 323 328 332 332 323 320 318 318 318 318 317 317 318 318 321 320 320 320 323 323 322 322 322 321 323 323 322 325
301 299 301 303 302 301 303 305 304 304 306 308 318 316 313 311 315 320 321 322 329 330 320 320 319 319 318 318 318 317 317 317 316 320 323 322 321 322 322 322 321 322 321 324 324 326 327
301 300 298 299 303 302 303 304 304 304 305 307 311 315 314 311 312 316 321 327 333 321 322 320 319 319 318 317 317 317 318 316 316 316 321 322 325 322 322 322 324 321 321 325 330 329 327
299 300 299 300 301 302 302 303 304 304 304 307 308 313 312 312 310 314 324 330 325 324 319 321 317 318 317 317 317 316 315 317 315 315 317 324 325 323 323 322 321 323 324 322 327 326 324
299 298 298 299 299 301 302 304 304 304 303 307 311 312 313 313 312 315 325 325 326 322 322 321 320 318 318 317 318 316 316 317 317 316 321 324 325 323 323 322 319 320 319 321 321 321 322
298 298 298 297 298 299 301 304 303 304 303 307 312 315 314 312 317 320 323 323 324 323 321 322 319 318 318 318 317 317 318 317 318 322 322 322 325 327 324 323 319 321 320 320 319 322 323
297 297 297 297 297 297 301 303 305 304 303 309 314 317 314 314 318 317 320 322 321 323 324 324 321 320 318 318 320 317 318 325 318 321 321 322 324 326 327 321 320 320 321 323 318 320 321
296 296 296 296 297 299 300 300 304 304 306 309 315 316 315 314 315 317 317 321 323 324 323 323 322 321 320 318 322 319 324 323 323 322 322 323 320 319 318 321 322 321 319 318 321 319 321
296 296 296 296 296 299 299 299 303 304 305 310 315 317 319 318 312 316 316 319 323 322 323 322 322 322 320 319 320 320 324 323 323 320 315 322 321 319 318 319 321 323 321 319 318 317 318
295 295 296 296 297 297 298 300 300 304 306 310 314 316 319 321 320 316 317 318 324 325 323 322 322 322 320 321 321 322 325 323 323 317 320 320 320 319 318 320 322 322 321 320 318 319 318
295 295 296 296 296 297 298 297 299 304 306 309 315 316 320 323 320 321 317 320 323 323 324 322 323 321 320 322 322 321 324 323 323 321 321 320 322 321 322 322 319 319 319 318 318 318 317
295 295 295 296 297 297 298 299 298 304 305 308 310 312 318 320 321 321 318 321 323 322 322 321 321 321 323 324 323 324 323 321 322 322 321 322 322 318 321 315 315 313 315 316 318 318 316
296 296 297 297 297 298 299 300 299 303 304 308 308 313 318 320 323 321 318 318 323 322 324 322 321 322 323 321 321 320 319 321 324 324 323 323 322 315 315 313 310 315 314 313 313 313 312
297 298 296 297 298 298 298 299 301 304 303 307 309 313 319 310 321 320 317 321 323 323 323 323 325 322 321 323 322 321 317 314 320 320 320 323 317 317 314 315 316 316 315 316 314 314 313
297 297 298 299 299 301 301 302 303 302 303 306 305 307 315 322 322 319 317 321 323 324 325 325 323 321 324 324 316 322 321 321 322 318 318 318 318 311 315 315 311 316 314 314 313 315 314
297 297 299 298 299 299 302 302 302 302 303 306 305 306 310 321 322 319 318 320 323 324 324 324 324 323 323 312 319 316 317 322 322 320 316 313 313 312 309 311 315 319 314 314 312 313 314
296 298 298 298 298 300 300 300 301 302 302 301 303 305 310 319 322 321 319 321 322 323 322 323 324 321 321 318 317 316 313 316 319 323 319 316 317 311 315 317 319 315 314 312 316 314 313
298 298 297 297 299 299 300 300 301 301 301 302 303 304 306 313 319 320 322 324 324 321 322 320 323 322 323 323 319 315 319 313 317 316 320 319 320 317 317 316 316 313 312 313 312 313 314

GFSGBSN_925_thetae_036.txt.gz
Theta_e
310 310 312 314 315 317 319 322 323 323 321 319 316 315 313 311 311 309 310 312 312 311 310 311 311 310 311 317 319 315 317 315 315 315 312 313 316 316 314 313 313 312 314 319 325 324 326
309 309 308 309 310 312 316 319 322 322 322 321 318 315 314 311 311 309 310 312 312 311 310 311 310 309 315 315 318 320 314 314 314 314 314 314 316 316 312 313 315 316 317 322 323 323 324
309 308 308 307 306 309 310 314 317 320 321 321 320 316 314 312 310 309 310 312 312 311 310 311 310 310 313 311 319 316 314 312 313 313 315 317 317 317 317 317 317 318 317 325 325 324 325
308 308 308 307 307 307 310 309 313 317 320 320 321 318 315 313 311 309 310 312 312 311 311 310 310 312 315 310 318 319 318 316 314 315 315 316 317 317 317 317 317 318 315 317 324 322 323
307 308 308 308 307 306 308 308 309 314 317 319 321 320 316 314 311 309 310 312 312 310 311 310 312 314 320 318 320 319 318 318 318 315 315 318 317 317 317 317 316 315 316 317 320 321 322
306 307 307 307 307 306 305 306 307 311 315 318 320 321 317 314 312 309 310 312 313 314 314 312 312 313 315 319 320 319 318 318 318 317 318 317 314 316 315 316 320 320 318 318 319 319 322
306 306 306 307 308 307 306 306 305 308 311 315 319 320 318 314 312 309 311 313 316 317 313 314 312 314 315 318 317 318 317 318 318 319 320 321 319 319 318 319 318 321 321 320 315 316 323
304 305 305 306 307 307 307 306 307 306 310 312 318 320 318 315 312 309 311 312 316 314 318 318 318 317 317 318 316 316 319 318 319 321 321 319 321 320 319 321 321 321 321 319 317 316 321
303 303 304 305 304 306 307 306 304 307 308 311 317 319 318 314 311 310 311 312 314 313 319 323 322 322 322 319 317 317 317 317 318 320 321 320 320 321 322 321 321 320 321 320 321 317 314
303 303 303 304 304 305 306 307 306 304 307 310 315 318 317 314 309 313 314 319 319 313 323 323 322 323 316 315 317 317 316 318 318 320 320 320 320 322 322 321 321 321 320 319 321 316 314
305 303 302 302 303 304 305 305 305 305 306 307 313 319 318 314 312 315 318 318 317 319 317 319 324 319 314 316 317 317 317 315 319 321 320 318 321 321 322 322 321 322 320 320 321 320 320
304 304 302 302 302 303 303 304 305 306 305 305 309 318 317 313 311 310 313 317 322 327 326 324 320 316 316 316 317 316 316 315 317 321 320 318 319 321 321 321 321 321 321 321 322 322 322
299 303 303 302 302 302 303 302 304 305 305 305 307 314 315 313 311 316 319 320 325 328 321 322 318 317 316 317 317 316 316 316 315 320 321 321 321 321 322 321 321 321 320 321 322 322 322
299 299 303 302 300 301 303 302 301 305 305 304 307 311 315 315 313 313 321 327 327 321 323 320 318 317 317 317 317 316 315 314 314 316 319 320 322 321 321 322 322 321 319 321 324 324 322
297 298 302 302 301 299 301 303 301 303 305 304 307 311 313 315 314 312 322 328 321 324 318 318 318 318 317 316 316 315 315 314 314 313 315 322 324 322 321 321 321 321 321 320 324 323 321
297 300 303 302 301 300 298 300 301 302 304 304 309 311 313 315 314 312 323 322 323 322 321 321 319 317 317 315 316 314 314 314 316 314 317 321 323 321 322 321 320 319 319 321 320 323 326
298 299 302 301 300 300 298 297 302 302 304 304 309 313 313 313 312 315 321 320 321 320 322 323 321 318 317 316 315 315 315 315 315 319 319 320 319 321 322 323 322 319 318 318 318 318 320
298 299 301 301 299 299 299 298 301 303 303 304 309 314 313 313 315 313 319 318 317 320 321 323 323 321 317 317 316 315 317 316 317 319 320 320 322 323 323 321 320 317 319 319 317 317 319
298 299 299 300 299 298 298 297 297 303 303 305 310 314 313 314 317 312 316 319 317 319 321 323 323 321 319 316 319 317 319 322 321 319 319 320 321 320 320 317 320 320 317 318 319 315 318
298 299 299 299 299 298 297 296 297 301 304 305 312 314 314 315 313 311 314 317 319 317 318 321 323 322 320 319 318 320 323 322 321 319 317 318 318 318 319 316 318 321 321 319 316 315 317
298 298 299 298 298 297 296 296 297 300 305 305 310 313 313 317 316 313 312 316 318 318 320 321 321 322 323 319 318 323 323 322 321 317 320 317 319 317 316 318 321 320 320 320 318 316 316
297 298 298 298 297 295 296 296 296 300 303 304 310 313 314 315 315 314 313 315 315 315 318 319 322 322 320 319 318 320 322 321 320 320 319 318 318 319 320 317 317 318 317 316 317 317 317
297 297 297 297 297 295 296 297 296 300 301 304 307 310 313 314 316 316 315 314 314 314 317 317 320 320 321 319 319 317 319 319 320 318 319 319 319 315 319 313 313 313 314 316 316 317 317
297 296 296 296 296 296 296 295 299 300 299 304 306 310 316 315 319 318 316 315 314 315 315 321 319 321 319 318 317 316 316 320 321 321 320 318 318 311 313 310 312 315 313 314 312 311 311
296 296 296 296 296 296 296 296 297 300 299 302 306 309 314 313 317 320 318 316 314 316 320 318 320 319 318 319 319 319 315 317 318 317 319 320 314 315 313 313 314 315 313 311 312 314 312
296 296 296 296 297 297 297 298 297 299 299 300 305 308 310 315 315 318 319 316 315 318 319 321 323 320 322 319 314 318 319 319 321 317 315 315 313 314 312 312 311 313 313 312 311 314 313
296 296 297 297 297 297 297 298 297 299 299 300 305 305 307 315 317 317 319 317 315 318 321 323 323 323 318 310 314 314 317 318 319 317 312 311 311 310 305 308 309 312 313 312 310 309 312
297 297 297 297 297 297 298 298 298 298 299 302 304 305 306 312 313 317 316 313 315 319 319 320 322 320 317 317 317 312 310 316 316 318 315 314 313 309 313 311 315 314 312 313 310 312 311
297 297 299 300 299 298 298 298 298 299 301 303 304 305 305 307 312 311 312 314 316 317 319 318 321 321 320 321 316 312 314 307 313 318 317 316 313 313 314 313 312 311 313 311 311 313 313

GFSGBSN_925_thetae_039.txt.gz
Theta_e
310 310 310 311 313 314 316 318 319 321 322 321 320 318 315 314 311 311 310 309 311 312 311 310 310 308 310 314 313 316 319 315 314 314 312 312 315 315 314 312 311 311 313 319 323 323 324
309 309 309 309 309 310 311 314 317 318 321 321 321 321 317 315 313 311 310 309 311 312 311 310 310 308 313 310 316 320 315 315 314 314 312 312 315 315 315 312 313 315 315 322 322 323 323
308 309 309 308 307 307 306 308 311 315 320 320 320 321 320 316 314 312 310 309 311 312 311 310 309 310 312 309 319 315 314 313 313 313 313 315 316 316 316 315 316 317 319 324 324 323 324
307 307 308 308 309 307 308 307 309 311 315 319 320 320 321 317 314 313 310 309 311 312 310 311 310 312 314 310 312 316 318 317 316 313 313 315 315 315 317 315 315 316 314 321 324 324 322
306 307 307 307 308 308 308 306 309 309 311 315 319 320 320 320 315 313 311 308 311 312 311 311 312 314 317 313 316 318 319 317 318 314 314 314 316 316 315 316 315 314 315 316 320 322 321
305 306 306 306 307 307 308 308 306 306 307 312 316 318 319 320 316 313 310 309 312 313 312 312 311 309 311 316 318 317 318 318 316 315 316 317 312 314 313 315 318 319 319 316 318 320 320
305 305 306 306 306 307 307 307 307 305 305 309 314 317 320 320 316 313 309 311 313 316 312 312 309 308 311 316 317 317 317 316 318 317 317 319 317 319 317 316 317 320 320 320 316 316 322
306 304 305 305 305 306 306 307 307 306 307 307 311 314 319 319 316 313 309 311 313 313 316 315 316 314 315 317 318 315 316 317 318 319 320 317 319 318 318 318 320 320 320 319 318 318 319
303 306 304 304 304 305 305 306 307 307 307 307 310 313 318 319 315 312 310 312 317 316 311 317 319 319 320 319 319 316 316 316 318 319 319 318 318 320 321 320 320 319 320 320 320 318 314
301 302 304 304 303 304 305 305 306 307 306 305 309 312 318 318 313 310 314 317 316 316 319 320 324 321 320 317 316 316 316 317 317 319 319 318 318 320 321 321 319 320 318 319 319 319 313
299 300 302 305 303 303 303 304 305 306 306 304 308 311 317 317 311 314 316 314 314 317 310 312 322 319 314 314 316 315 315 316 317 319 318 317 320 321 321 320 319 320 320 320 320 319 319
299 299 300 302 305 303 302 303 304 305 306 305 306 309 315 314 313 312 311 318 318 318 316 320 320 317 314 314 316 315 315 314 316 319 318 316 318 319 319 320 319 320 320 318 319 320 320
300 298 298 300 302 304 302 302 303 304 305 306 305 307 313 315 312 314 314 320 326 321 315 321 319 315 314 315 315 316 315 314 317 319 320 319 320 320 321 320 319 319 319 320 321 321 321
300 300 299 299 301 305 303 301 302 302 304 306 305 307 311 314 314 313 319 325 325 321 319 321 317 315 315 315 315 315 314 314 313 316 317 319 319 319 321 320 321 320 318 319 322 322 320
301 300 299 298 299 301 303 301 301 302 302 304 305 306 311 313 313 312 321 327 320 320 321 314 317 316 316 316 316 315 313 313 312 313 315 320 321 321 320 321 320 321 321 318 321 320 320
302 301 300 299 300 300 303 302 300 301 301 303 305 308 311 312 314 312 320 322 321 320 322 322 318 316 316 315 315 314 313 313 314 312 314 318 318 320 321 320 319 320 318 320 318 322 325
303 302 300 299 298 300 301 302 300 302 301 302 305 310 309 312 313 311 316 319 319 319 319 323 323 319 316 315 314 313 314 314 314 314 315 319 316 317 321 321 319 318 317 316 316 315 318
304 302 301 300 298 298 300 302 299 299 301 302 305 309 311 313 316 313 313 316 316 318 318 321 322 323 319 315 315 314 315 314 312 317 317 318 316 318 319 319 318 318 318 316 316 317 317
304 302 301 300 299 299 300 301 299 298 301 304 306 310 312 313 315 315 313 313 316 317 318 319 322 321 319 315 315 315 314 318 319 316 318 319 318 318 318 317 318 320 317 318 316 313 317
304 302 301 300 299 301 301 301 299 298 302 304 308 311 313 313 312 313 313 315 318 317 316 317 321 322 321 319 316 317 320 321 319 317 317 316 317 317 319 317 317 320 319 317 317 315 316
304 302 301 299 300 302 301 300 299 298 302 304 306 309 311 316 314 314 312 313 316 319 316 315 316 320 322 322 317 321 321 321 319 316 317 317 318 316 316 315 318 318 319 317 316 315 316
304 302 300 299 300 300 300 299 298 298 300 305 306 311 310 312 313 313 313 314 315 317 317 318 316 320 316 319 319 320 320 319 319 319 318 316 316 317 318 316 315 318 317 316 316 316 315
303 301 300 299 300 300 300 299 298 297 298 302 304 306 311 312 312 314 315 313 314 315 315 315 317 319 319 319 318 315 317 317 317 318 316 316 316 313 316 312 313 313 313 315 315 315 315
302 300 299 299 300 299 299 298 297 297 298 300 304 307 312 311 313 313 313 313 312 314 314 315 314 314 318 316 315 315 315 316 318 318 316 316 314 310 312 310 314 314 313 312 313 311 310
301 299 299 300 300 299 298 297 297 298 298 298 302 307 312 310 312 315 312 314 313 313 313 313 314 313 316 319 318 319 314 318 316 316 320 316 312 312 313 313 314 315 311 311 311 313 311
299 299 299 299 299 298 297 297 296 298 297 297 299 302 308 313 312 314 314 313 314 313 312 313 318 316 318 316 312 320 322 321 320 317 314 312 311 314 309 313 314 314 312 310 310 312 311
298 298 298 298 298 297 297 298 296 296 298 297 299 299 307 311 313 313 316 315 313 312 313 314 316 322 317 309 312 314 315 318 318 317 313 312 310 313 305 309 311 310 312 309 311 310 310
297 297 297 297 297 297 296 296 297 297 297 300 299 301 306 308 308 313 313 315 315 313 314 317 321 319 313 316 316 313 311 315 314 315 314 316 313 308 307 306 315 311 311 310 308 310 310
296 296 296 296 296 296 297 297 298 299 299 298 299 300 305 307 308 307 307 309 311 312 313 315 318 319 318 318 314 312 313 305 313 316 315 315 314 314 313 313 311 311 310 310 309 310 311

GFSGBSN_925_thetae_045.txt.gz
Theta_e
308 308 308 308 308 309 309 309 309 311 313 315 316 318 319 321 320 320 317 314 312 310 308 311 311 309 309 309 307 311 315 315 312 313 311 311 314 315 316 314 312 313 313 314 316 323 323
307 307 307 307 307 307 308 309 308 308 306 310 313 315 317 319 319 320 319 316 313 311 308 310 311 308 310 308 308 317 314 313 313 312 310 311 315 314 316 316 313 314 316 320 323 324 324
309 306 306 307 307 307 307 308 308 308 308 306 310 314 316 319 318 319 319 318 314 312 309 309 311 309 311 308 313 315 314 314 313 313 311 310 313 315 316 317 315 316 320 323 325 323 324
306 309 307 306 306 306 306 306 307 308 308 307 308 310 314 316 318 318 317 319 316 313 310 310 310 311 312 308 311 313 314 314 315 313 312 312 313 314 316 315 316 315 318 324 321 324 324
304 305 307 308 306 306 306 306 306 307 307 307 306 307 309 313 317 316 318 319 317 312 311 311 310 313 311 309 309 311 311 314 315 314 313 312 313 315 315 317 317 317 318 317 318 324 324
303 303 303 305 308 306 305 306 306 306 307 307 307 305 305 310 315 316 317 318 315 311 311 310 311 311 309 311 314 316 316 316 315 312 314 316 315 317 316 318 317 321 319 319 319 323 323
303 302 302 303 304 306 306 305 305 305 306 307 307 307 304 309 313 317 318 317 309 313 312 315 314 309 306 313 318 315 316 315 316 316 319 319 321 322 319 317 317 319 320 320 319 316 324
303 302 302 301 302 304 307 306 305 305 305 306 306 306 305 308 313 316 316 310 310 313 317 314 314 312 311 313 318 318 314 317 318 319 319 319 322 319 317 317 319 319 320 320 318 317 319
302 302 303 302 301 300 303 307 305 305 305 305 306 306 306 309 313 314 315 314 312 314 317 315 314 315 315 315 318 318 314 315 317 318 320 320 318 318 319 319 320 320 320 320 321 318 315
302 302 302 302 302 301 300 303 307 304 304 305 305 306 306 310 312 314 313 313 313 314 316 314 316 317 317 318 319 317 313 317 317 318 319 319 317 318 320 320 319 320 317 319 320 321 321
302 302 302 302 302 302 301 301 302 306 304 304 304 306 305 310 311 311 312 314 313 312 316 312 321 316 317 317 315 316 313 315 319 318 319 320 319 320 320 320 318 320 318 320 320 321 320
303 303 303 303 303 302 301 300 302 303 304 303 304 305 305 308 311 312 314 315 315 322 317 311 319 320 320 315 314 312 314 315 315 319 318 317 316 319 320 318 317 318 319 318 318 320 324
303 303 303 303 303 303 302 301 300 302 304 303 303 305 305 309 311 313 315 316 324 323 313 313 320 316 316 314 314 314 315 318 319 320 321 318 319 318 319 320 319 318 321 324 325 326 326
304 304 304 303 303 303 302 302 300 300 301 304 302 305 306 305 311 313 315 318 322 317 316 315 316 315 316 313 314 314 314 317 313 314 316 319 318 319 319 320 322 320 321 327 323 325 322
304 303 304 304 304 303 303 302 301 299 301 304 302 303 305 305 308 313 317 321 319 318 317 315 314 316 315 313 315 315 315 316 315 315 318 319 319 317 318 319 319 320 322 318 323 320 325
302 303 304 304 304 303 303 302 301 300 301 302 303 304 305 305 307 311 316 318 319 316 320 321 316 316 317 314 315 316 315 314 314 315 316 319 319 319 320 320 319 319 318 323 321 325 325
302 302 303 304 304 304 303 303 301 301 301 302 303 305 304 304 309 313 314 316 315 316 318 320 324 324 316 315 315 315 316 313 313 312 314 316 318 317 320 321 321 320 320 317 318 319 322
303 303 302 303 304 304 304 303 302 301 301 303 303 305 304 305 311 311 312 313 313 315 316 319 320 323 324 316 315 315 316 316 311 314 316 317 319 319 319 317 316 318 321 320 325 321 318
299 301 303 302 304 304 304 303 302 301 301 303 302 304 305 307 310 311 311 313 313 314 316 318 320 320 321 319 315 315 314 313 312 314 318 318 317 318 317 316 317 320 318 316 316 316 320
300 301 301 301 303 303 304 303 302 301 300 302 303 304 307 307 308 309 312 313 314 312 314 317 318 319 320 319 317 315 315 315 314 314 315 316 317 319 319 318 318 320 319 317 320 322 322
301 301 301 301 302 302 304 303 302 301 301 301 304 305 307 309 307 309 311 311 313 314 313 315 317 318 320 319 319 316 317 319 317 317 316 318 319 317 315 313 316 318 319 318 319 320 323
302 301 302 301 301 302 303 303 301 301 301 301 304 306 306 308 307 308 311 312 312 312 313 315 317 317 317 321 319 320 319 319 319 317 318 315 319 316 316 315 316 319 317 317 316 316 316
302 302 302 301 301 302 303 302 301 301 301 301 302 302 305 308 308 307 308 311 311 313 312 313 315 316 317 318 317 317 316 316 318 319 317 316 318 318 320 313 315 319 317 317 317 316 318
302 300 300 301 302 302 303 302 301 301 300 301 302 303 306 308 308 307 307 309 310 311 312 312 313 313 313 314 315 315 314 315 316 317 317 317 316 314 319 313 322 319 312 314 317 316 314
301 301 300 301 302 301 303 302 300 302 301 301 302 303 306 307 309 308 308 308 310 311 311 312 314 314 312 313 315 320 318 317 317 316 316 314 314 315 321 319 317 315 314 315 315 316 313
300 301 302 302 300 299 302 301 300 302 301 301 301 302 305 306 308 309 309 308 310 311 311 312 312 312 314 313 313 316 325 321 320 318 312 310 312 322 313 321 323 319 313 310 311 317 312
301 301 302 301 300 303 302 300 301 301 300 300 300 302 303 307 307 309 311 310 309 310 311 312 313 314 313 310 315 317 319 320 323 321 319 316 314 319 314 321 319 314 311 310 318 319 311
302 302 302 300 303 302 301 300 300 301 300 300 299 301 301 305 306 307 309 310 310 309 311 310 314 314 314 314 316 317 317 319 319 318 319 321 320 319 314 320 323 311 309 316 318 310 311
301 302 301 302 301 301 300 300 301 300 300 300 298 299 298 300 304 303 305 305 307 309 310 311 312 312 313 316 314 313 316 312 318 322 313 322 319 321 320 322 317 311 315 311 309 312 310

GFSGBSN_925_thetae_048.txt.gz
Theta_e
308 307 307 307 307 307 307 308 309 309 308 309 311 315 316 317 318 318 318 319 319 315 313 310 308 311 311 314 312 309 316 316 313 315 313 316 317 319 318 318 318 318 319 319 319 322 327
307 309 308 307 307 307 307 307 308 308 308 308 307 308 313 315 317 319 317 318 319 318 314 312 309 310 313 314 310 314 315 314 315 314 313 315 318 319 320 320 319 319 319 322 323 325 327
305 305 307 309 307 306 306 306 306 307 307 307 308 307 309 313 315 317 317 317 317 319 317 314 310 311 314 314 314 317 314 315 315 314 314 314 317 319 320 320 320 320 321 325 325 327 326
305 304 304 305 307 308 306 306 306 306 307 307 307 307 308 309 312 314 316 316 316 318 318 313 310 312 315 310 311 314 315 315 315 314 314 315 316 318 320 320 320 319 321 322 326 327 327
304 304 304 304 304 306 308 306 306 306 306 306 307 307 307 305 308 313 315 315 316 318 313 312 312 315 315 310 312 311 316 317 317 316 315 314 317 320 320 319 318 320 319 319 321 326 327
304 304 303 303 303 303 304 307 306 305 305 305 306 307 307 304 306 313 315 314 317 314 312 313 312 316 314 312 314 316 314 315 318 318 317 318 320 322 321 320 317 318 319 319 320 326 327
305 306 304 304 302 301 302 304 307 305 305 305 305 306 306 305 307 313 315 316 317 318 316 319 317 316 310 313 317 317 318 317 318 320 321 322 323 323 320 319 319 321 321 320 322 322 326
302 301 303 305 304 303 303 303 303 307 305 305 305 306 306 306 308 313 315 316 316 316 317 316 316 317 315 313 318 319 317 320 321 321 322 323 324 321 321 321 320 322 321 321 322 320 321
302 302 301 301 302 303 303 303 301 303 306 305 305 305 306 306 310 313 315 315 315 315 320 317 317 316 316 316 317 318 318 320 321 321 322 322 321 321 322 322 322 323 322 322 322 322 320
303 303 303 302 302 302 303 303 302 299 303 306 304 305 306 306 310 312 313 315 314 314 322 315 315 317 317 317 319 317 318 319 319 319 320 321 321 321 322 322 322 323 322 321 322 322 322
303 303 303 303 302 302 302 302 302 301 301 303 304 304 305 305 314 315 315 316 315 317 317 314 318 317 318 317 317 318 317 318 319 320 321 321 322 322 322 322 322 321 321 322 323 322 322
303 303 303 303 303 302 302 303 302 301 299 303 305 304 304 306 307 313 313 316 317 322 319 314 320 321 320 319 316 317 317 318 319 319 321 320 320 322 321 322 321 321 322 322 323 323 326
303 303 304 304 304 304 303 303 303 302 301 300 303 304 304 306 309 312 315 318 321 319 313 314 321 320 319 318 317 317 318 320 320 321 321 320 320 320 321 322 322 322 323 325 326 327 327
303 303 304 304 304 304 304 303 302 303 301 299 300 304 303 305 307 313 315 321 318 310 314 316 319 320 318 316 317 318 318 319 319 318 319 320 320 320 321 320 322 323 323 325 327 327 325
304 304 304 304 304 304 304 304 303 303 302 300 300 303 304 304 306 310 316 320 312 313 314 315 317 322 319 316 317 318 318 318 319 319 319 319 319 319 321 321 321 323 324 322 325 326 327
305 305 304 305 304 304 304 304 303 303 302 301 302 303 304 304 305 306 314 316 311 313 316 317 315 320 323 316 316 317 319 318 319 318 318 320 320 321 322 322 322 323 322 325 325 327 325
306 305 305 304 304 304 304 304 304 303 302 301 302 305 304 304 305 307 313 315 312 314 317 320 320 315 320 318 315 318 318 317 319 318 319 319 320 323 323 324 323 324 324 323 323 324 325
303 302 302 304 304 304 303 304 304 303 302 302 302 305 304 305 307 308 310 313 310 312 318 320 322 323 323 318 317 316 317 317 317 318 319 319 320 321 321 321 321 321 322 324 324 322 323
301 301 301 301 304 304 303 304 304 303 302 302 302 304 304 304 306 309 309 312 311 312 316 319 321 322 323 322 319 318 318 318 317 318 319 320 320 321 320 320 320 321 321 321 322 322 322
301 301 301 300 304 303 302 303 304 304 302 301 302 305 306 306 307 309 312 310 311 311 312 317 319 321 322 322 320 318 317 317 316 318 317 320 319 319 321 319 319 321 320 320 321 324 322
301 301 302 301 300 300 304 303 304 304 302 302 303 306 306 308 309 310 311 310 311 311 312 315 318 320 322 322 320 320 317 320 317 317 317 320 319 320 318 317 317 317 318 320 320 321 322
302 301 301 302 301 301 302 303 303 304 302 301 301 306 308 307 307 307 311 311 310 310 311 314 316 318 320 321 319 322 320 319 321 321 319 320 319 320 320 319 318 318 317 318 319 319 321
303 302 301 302 301 301 302 303 302 304 301 301 301 304 307 307 308 308 311 310 310 310 311 311 314 315 318 318 318 318 317 318 318 320 323 322 320 321 320 320 319 322 320 319 320 321 322
300 300 300 302 301 301 301 302 302 303 300 300 302 305 308 308 309 308 306 308 310 310 312 312 312 316 316 315 316 317 314 317 319 321 320 323 322 323 322 320 330 319 319 320 320 321 321
301 301 302 302 301 302 301 302 301 303 300 301 302 305 307 310 308 308 307 307 308 310 312 311 313 313 315 314 314 312 316 316 320 320 322 322 323 324 331 324 320 318 317 319 321 321 320
300 300 303 302 302 302 302 302 300 302 300 301 302 303 308 310 308 306 309 308 309 312 312 312 312 315 315 317 318 319 314 311 318 322 317 320 321 327 321 325 334 321 319 318 318 323 319
301 300 302 302 302 301 301 301 301 301 300 301 302 303 306 307 306 307 309 309 308 310 312 312 315 316 315 318 323 320 317 316 318 324 322 321 321 327 327 329 324 320 318 316 321 324 319
300 301 301 301 301 301 301 300 302 301 301 301 301 302 306 307 307 308 308 309 309 311 314 312 316 317 317 319 320 321 324 319 320 319 323 323 325 327 326 331 330 317 315 320 322 320 319
300 301 301 301 301 301 300 302 300 301 300 301 301 302 303 306 303 302 304 306 307 309 312 314 312 314 314 316 319 318 325 322 318 323 319 323 323 326 323 325 323 318 320 318 320 320 318

GFSGBSN_925_thetae_051.txt.gz
Theta_e
307 309 310 308 307 307 307 308 307 308 308 308 308 307 308 313 315 316 318 318 318 318 319 318 314 311 314 318 317 316 313 316 313 316 315 318 319 319 319 318 319 319 320 320 321 322 327
306 305 307 308 310 308 307 307 307 307 307 307 308 308 307 308 313 315 316 318 317 317 317 319 317 313 316 318 314 316 321 318 316 316 315 317 320 320 321 319 319 321 320 321 323 324 323
305 306 305 304 305 306 309 307 307 306 306 306 307 308 308 307 309 312 314 315 316 317 316 318 317 313 315 317 315 316 318 317 316 316 317 317 319 320 321 320 319 320 321 322 323 324 325
305 305 305 305 303 304 304 308 307 306 306 306 306 307 307 307 306 308 312 314 316 316 316 317 314 314 317 315 313 316 318 317 316 315 316 317 318 320 320 321 320 318 320 321 325 325 326
307 306 305 304 304 303 303 304 305 307 306 306 306 306 306 307 307 304 310 314 315 314 316 315 315 317 318 314 312 314 319 318 317 316 317 317 318 320 321 319 319 319 319 321 325 323 326
303 304 307 305 304 302 302 302 303 303 307 306 305 305 306 306 307 304 311 314 315 316 316 315 316 319 318 316 313 312 318 319 319 319 319 319 319 321 321 320 320 319 319 320 319 326 324
304 304 303 303 307 305 305 302 301 302 303 307 305 305 305 306 306 305 313 316 319 321 317 315 318 315 314 315 316 315 316 320 319 320 320 321 322 323 323 322 320 319 320 319 321 324 324
303 303 303 302 300 303 306 305 304 302 303 303 306 305 305 306 306 307 313 315 315 317 317 316 318 317 318 316 318 316 318 320 320 322 321 323 323 322 322 321 321 320 321 320 322 322 322
303 303 303 303 302 302 300 303 305 303 301 303 303 306 305 305 306 308 314 314 315 317 317 313 315 317 316 317 318 317 320 321 321 322 322 323 323 322 321 321 320 320 322 322 323 324 321
302 303 303 303 303 303 303 303 303 303 302 301 301 305 305 305 305 309 313 313 313 318 317 312 319 318 318 317 319 317 318 320 321 322 322 322 322 322 322 322 320 321 321 322 321 321 321
303 303 303 303 303 303 303 303 302 303 303 302 302 302 305 305 309 313 315 314 317 319 309 315 317 317 318 318 318 318 317 318 320 321 321 321 321 322 322 323 321 322 322 321 321 322 323
303 303 303 303 304 304 304 303 303 302 301 302 301 301 305 305 307 308 313 318 320 319 313 315 320 319 321 318 318 318 318 318 319 320 320 320 321 322 322 322 322 321 323 322 323 323 325
303 304 303 304 304 304 304 304 303 303 302 302 302 301 304 306 308 308 311 317 318 313 311 314 320 320 320 320 318 318 319 319 319 320 322 320 322 322 322 322 323 322 323 326 327 326 328
304 304 304 304 304 304 304 304 304 303 303 302 302 301 303 305 307 308 309 318 314 310 311 317 317 320 322 320 320 319 320 319 318 319 321 322 322 322 321 321 325 323 323 327 331 331 328
304 305 305 305 304 304 304 304 304 304 303 303 302 303 303 305 306 309 310 317 315 311 311 312 317 322 321 319 320 319 319 319 318 319 321 322 322 320 320 321 321 324 324 323 325 328 328
304 305 305 305 305 304 305 305 305 304 304 303 304 303 304 302 307 308 311 315 312 310 310 313 314 321 322 319 318 320 320 319 319 318 320 320 322 320 320 321 321 322 324 325 326 329 330
304 305 305 306 306 305 305 305 305 305 304 303 303 305 303 305 306 309 311 313 314 311 311 312 315 316 321 322 318 319 320 319 318 319 319 320 320 321 323 323 323 324 326 325 325 325 331
304 305 304 306 306 306 305 305 305 305 304 303 304 306 303 304 308 308 309 312 311 314 313 313 316 320 316 321 321 318 319 319 318 319 320 320 321 324 324 322 321 323 324 325 327 328 325
301 301 300 300 302 303 305 305 305 305 304 303 304 305 304 306 307 309 308 309 308 311 312 312 316 319 320 321 322 320 318 318 318 319 322 320 320 323 323 323 323 324 324 324 325 325 326
301 301 301 301 302 302 302 303 305 305 305 303 304 306 306 307 308 308 309 310 308 310 312 312 315 316 318 323 321 322 320 319 318 318 320 321 321 321 324 322 321 322 321 321 323 329 325
301 300 300 300 301 301 301 302 303 304 305 303 303 306 306 308 309 310 309 308 307 308 312 312 313 315 317 318 320 321 321 321 319 317 319 322 321 320 319 319 320 320 320 320 321 322 324
299 300 301 301 301 301 301 301 303 305 304 303 301 307 307 309 309 309 309 308 308 308 310 313 314 316 318 318 319 321 321 320 319 319 320 321 322 322 320 319 319 318 318 318 318 319 320
300 300 301 302 302 302 302 302 303 304 304 303 300 304 309 307 310 309 311 309 307 308 310 310 313 315 317 317 321 321 319 319 320 321 320 322 324 322 323 320 320 324 319 318 318 318 319
302 302 302 302 302 302 302 302 301 303 303 298 300 305 308 310 311 310 308 308 308 308 310 310 310 313 314 316 317 317 316 315 319 319 320 323 322 323 327 324 329 321 319 319 319 319 319
301 301 302 302 301 303 302 302 301 304 302 300 302 305 309 312 308 309 308 308 308 309 311 310 310 312 313 316 316 317 317 315 317 319 318 321 325 327 329 327 320 319 320 320 320 320 319
301 302 302 302 301 303 303 302 301 300 302 301 303 303 309 310 309 308 308 308 309 311 311 310 312 314 315 317 316 316 314 311 311 315 318 319 323 328 327 327 328 322 320 320 320 324 320
301 301 302 302 301 301 300 302 301 302 303 302 303 303 307 308 307 308 309 309 308 310 312 312 315 315 315 318 320 316 315 312 313 320 325 324 326 330 330 329 323 320 319 320 325 325 321
300 300 300 300 303 302 302 302 301 302 303 302 302 303 306 308 308 306 308 310 309 310 312 312 314 316 317 319 318 315 319 316 315 315 324 325 325 330 329 331 331 321 321 322 323 324 322
301 300 303 302 301 300 302 301 301 302 302 302 303 302 304 307 307 306 308 309 309 309 311 312 315 315 315 315 317 316 324 325 317 322 315 324 324 326 325 325 324 321 323 321 322 322 324

GFSGBSN_925_thetae_054.txt.gz
Theta_e
307 306 306 307 309 309 308 308 307 308 307 307 308 308 308 308 306 310 314 315 316 318 317 317 316 318 315 319 321 318 317 316 315 313 317 316 317 318 319 319 318 318 319 319 320 321 323
306 306 306 306 306 306 308 309 308 307 307 307 306 307 308 308 307 308 310 313 315 316 316 317 316 317 318 318 318 318 318 320 317 316 317 316 319 320 320 320 319 319 320 320 320 321 323
306 306 306 305 304 304 304 305 306 308 307 306 306 306 307 307 308 307 306 309 312 314 315 316 315 316 318 319 317 316 318 321 317 316 317 316 318 320 320 321 320 319 319 319 322 322 323
307 307 307 306 305 303 303 303 304 305 308 307 306 306 306 306 307 307 306 304 310 313 315 315 315 315 318 316 317 317 317 318 317 317 316 318 318 319 320 321 320 320 318 318 322 323 324
305 304 305 307 306 305 303 302 302 303 304 306 307 306 306 305 306 306 306 304 310 313 314 315 315 318 317 315 317 315 317 317 317 316 316 317 318 319 319 320 319 319 319 319 324 323 326
304 304 304 303 303 306 306 304 303 302 302 303 303 306 306 305 305 306 306 306 310 314 316 316 316 316 317 315 317 317 315 318 318 317 317 318 318 318 319 320 321 321 320 320 319 324 324
304 304 304 304 303 302 304 307 306 303 302 302 303 305 306 306 305 306 307 313 317 322 319 319 316 313 312 318 315 314 314 319 320 319 319 319 319 319 320 322 323 321 320 319 323 324 324
302 303 304 304 304 303 304 303 303 306 304 303 302 303 306 306 305 306 307 314 313 317 319 316 319 319 316 317 317 317 314 320 320 320 320 320 321 320 322 323 323 321 320 320 321 323 322
303 303 303 304 305 305 305 304 303 300 305 304 303 301 303 306 305 305 306 311 313 315 317 313 312 312 315 316 318 319 316 319 321 320 321 322 322 322 321 323 321 320 319 320 323 324 322
303 303 303 303 304 303 303 303 303 303 302 302 300 302 301 306 305 307 308 312 313 313 319 310 310 313 312 315 317 318 317 318 320 319 320 321 322 323 323 322 321 321 319 320 323 324 322
303 303 303 303 303 303 303 303 303 303 303 303 302 302 302 304 307 312 315 314 315 319 310 311 313 317 315 315 317 317 317 319 320 320 321 322 322 322 323 322 322 321 323 323 320 320 322
302 302 303 303 304 304 303 304 304 303 303 303 302 302 302 304 306 307 312 315 319 319 312 312 319 318 318 317 318 318 318 318 319 320 321 321 321 321 321 322 322 322 322 323 322 322 326
302 303 303 304 304 304 304 304 304 304 303 303 302 302 302 304 308 307 309 314 319 314 309 310 319 320 318 320 319 318 320 319 319 321 323 321 320 321 321 322 322 322 323 326 327 327 330
302 303 304 304 305 305 305 305 304 304 304 303 302 302 303 303 306 308 310 317 312 309 312 315 315 320 321 320 320 319 320 320 320 319 320 322 322 320 322 322 323 323 323 328 331 334 330
302 303 303 304 305 305 305 305 305 304 304 304 303 304 304 304 305 307 310 314 311 309 311 312 314 318 321 321 320 319 320 321 320 319 321 322 321 320 322 321 321 325 324 323 327 329 334
302 303 303 304 304 304 305 305 305 305 304 304 305 304 305 304 305 307 310 312 311 308 309 311 313 316 321 322 321 320 319 320 321 319 320 321 324 321 322 321 321 321 324 327 325 332 333
302 303 303 304 304 304 305 305 305 305 305 304 305 305 304 304 306 308 310 312 311 309 309 310 312 312 313 319 321 320 320 319 320 320 319 321 323 323 321 321 321 321 323 327 327 326 332
301 302 303 304 304 304 305 305 306 305 305 305 304 305 304 305 307 308 309 311 310 309 309 311 313 312 314 317 321 321 320 321 320 320 320 321 323 324 322 321 321 321 323 325 330 328 330
301 302 304 304 303 304 305 305 306 306 305 305 305 305 304 305 307 308 309 307 308 310 309 310 312 313 315 318 323 323 325 320 321 320 322 320 322 324 321 323 323 322 323 324 326 327 330
302 302 304 301 301 301 301 302 307 306 305 305 303 305 306 306 307 308 309 310 309 308 309 309 312 314 315 319 321 323 323 321 322 319 320 320 323 323 325 326 324 324 322 325 326 330 329
302 303 301 301 301 301 300 301 302 306 305 305 303 305 307 307 307 309 310 308 309 309 308 309 310 313 314 318 321 321 324 323 320 319 319 322 323 324 321 320 322 323 322 322 324 324 330
301 301 301 301 301 301 300 300 303 303 305 306 299 306 307 307 307 308 309 311 308 309 308 308 310 311 314 316 319 320 324 322 323 320 320 321 324 323 324 320 320 321 321 321 320 320 320
299 299 299 299 300 299 299 300 301 302 304 305 300 303 307 307 309 309 309 311 310 309 309 308 309 312 314 315 318 321 317 321 323 322 322 323 324 324 325 322 320 320 321 320 320 321 320
299 299 300 300 300 300 300 301 301 301 302 302 298 305 306 308 310 309 308 309 309 309 311 309 310 311 313 316 320 319 317 315 317 321 321 322 323 323 327 324 325 320 320 320 320 320 319
300 301 301 302 301 302 301 301 302 301 302 301 300 305 307 310 309 309 309 309 309 309 310 311 310 310 313 318 318 319 316 314 317 320 320 320 323 328 327 326 323 320 321 320 321 320 320
301 301 301 301 302 302 302 302 302 302 302 302 302 304 307 309 311 308 309 309 310 310 311 311 310 312 313 312 318 318 320 316 315 317 319 320 320 325 331 327 327 323 321 320 321 322 321
301 301 301 301 301 302 303 303 303 302 302 302 302 303 307 308 309 308 309 311 310 309 311 312 311 313 316 315 317 319 317 313 315 317 318 320 319 326 328 329 326 320 320 319 323 323 323
300 300 300 301 301 303 303 303 303 303 302 302 302 303 306 307 309 308 308 309 310 310 312 312 313 316 315 318 318 318 319 315 313 312 320 320 321 326 327 329 329 322 321 322 322 323 325
300 301 301 302 300 302 302 301 302 303 302 301 304 304 305 308 307 307 308 309 309 310 312 312 314 314 315 317 317 318 324 322 317 319 317 321 319 323 324 325 325 322 322 323 323 325 325

GFSGBSN_925_thetae_060.txt.gz
Theta_e
307 307 307 306 306 306 307 307 307 306 306 307 308 307 306 306 306 307 307 306 306 306 305 305 310 313 314 317 318 312 314 317 315 311 311 313 314 313 311 312 313 313 314 314 314 316 323
307 308 308 307 307 306 305 305 304 303 303 304 305 307 307 306 306 306 306 305 305 305 305 304 309 313 316 316 310 312 316 317 315 313 313 314 314 313 313 315 316 316 317 316 314 314 324
306 306 306 305 305 306 307 306 306 304 303 302 302 304 306 307 306 306 305 305 305 304 305 304 308 314 314 313 306 315 316 317 318 315 312 314 314 314 313 316 317 317 316 315 315 315 321
305 305 306 305 304 304 304 303 304 306 305 304 302 302 303 304 305 306 305 305 305 304 304 304 309 313 313 307 306 308 308 312 311 317 316 316 315 312 313 315 315 316 315 315 315 315 320
304 305 305 304 304 304 304 304 303 303 305 306 304 302 302 302 304 306 306 305 305 303 304 310 312 312 315 312 316 314 311 313 316 317 319 317 315 313 316 315 314 315 315 316 316 315 319
303 304 304 304 304 304 303 303 303 303 303 303 306 304 303 302 304 305 306 305 302 304 306 314 315 312 313 310 315 315 316 312 315 316 316 314 312 314 312 313 316 315 317 316 316 314 323
303 303 303 304 304 304 305 304 304 304 304 303 302 303 305 303 301 303 306 304 308 313 314 317 317 313 310 312 316 316 316 315 314 315 315 314 314 314 313 313 315 316 316 316 316 320 324
301 302 302 303 304 304 305 305 305 305 305 304 303 302 304 304 301 301 305 305 306 306 308 311 315 316 315 316 317 317 316 315 314 316 314 314 315 315 314 315 316 316 317 318 316 321 320
300 300 301 302 304 304 305 305 305 305 304 304 304 303 302 301 301 301 305 305 305 309 310 312 313 314 315 316 318 317 314 313 315 317 316 315 316 315 316 316 317 317 317 318 317 317 319
299 300 301 302 303 303 303 303 303 303 303 303 303 304 303 302 300 303 306 307 306 308 311 309 311 309 310 313 315 313 313 312 314 317 318 315 316 317 317 317 317 318 318 319 319 318 320
299 300 300 301 301 302 302 302 303 304 304 303 303 303 303 302 302 302 307 305 309 310 295 302 310 310 311 310 312 314 312 314 313 318 318 320 318 318 318 318 318 319 320 320 321 319 317
299 300 300 300 301 302 302 303 303 303 304 303 303 303 303 303 303 302 302 306 310 316 311 310 311 311 311 310 311 314 314 315 314 316 317 318 317 317 318 318 318 320 320 320 319 318 322
299 299 300 301 302 302 302 303 303 303 304 304 303 303 303 303 302 305 304 309 315 315 306 305 316 314 311 311 310 312 313 315 317 317 316 317 318 318 317 317 318 319 318 321 322 322 323
298 298 300 300 301 301 302 302 303 303 304 304 304 304 304 303 301 302 304 313 313 308 305 307 308 307 318 312 310 312 313 312 315 315 316 316 319 317 318 318 319 319 318 322 325 325 323
298 298 299 300 300 301 302 303 303 304 304 305 304 304 304 303 302 302 306 312 311 308 307 307 306 306 307 314 316 312 312 313 313 315 317 319 319 318 318 318 318 321 320 319 321 325 325
298 298 299 299 299 300 302 303 303 304 304 305 305 305 305 303 302 303 307 309 309 308 307 309 307 307 309 308 314 314 317 316 315 314 314 316 319 318 318 318 317 319 320 322 322 325 327
297 298 299 298 299 300 301 302 303 304 304 305 305 305 304 304 303 304 306 307 307 307 307 310 309 308 308 309 312 314 318 316 316 316 316 314 316 317 318 318 318 319 320 322 322 322 324
297 297 298 298 299 299 300 301 303 303 304 305 306 306 304 304 304 304 305 306 306 306 307 308 309 309 309 310 311 312 314 315 318 321 319 317 316 317 317 317 318 318 320 320 323 325 324
296 297 297 298 299 299 300 301 302 302 304 306 306 304 304 303 304 305 303 304 305 306 307 307 309 309 307 307 310 312 315 317 321 321 323 321 317 319 319 317 317 318 319 319 321 322 323
296 297 298 299 299 299 300 301 301 302 303 305 301 304 305 304 303 304 304 304 306 305 305 305 307 307 308 309 308 309 312 316 320 321 320 320 323 320 320 319 318 320 319 319 319 321 322
297 297 298 298 299 299 300 301 301 302 302 305 299 302 304 307 305 305 304 305 305 306 306 306 307 306 307 309 309 308 312 320 320 320 320 322 325 320 319 317 318 320 321 320 319 320 321
297 297 298 298 298 299 299 300 300 301 303 305 298 303 304 303 306 305 305 305 305 306 307 307 307 306 306 308 308 308 309 310 320 320 319 319 322 322 320 318 318 319 319 321 321 319 320
297 298 298 298 299 299 300 300 301 302 302 305 304 300 305 306 307 306 305 304 305 304 305 306 307 307 306 306 305 306 314 317 320 319 318 316 320 320 322 317 318 320 319 319 320 320 320
298 298 299 300 300 300 301 301 301 303 303 302 301 303 305 307 305 306 305 305 304 305 306 305 305 306 306 306 313 314 313 315 316 318 317 316 316 318 320 315 324 319 318 318 318 319 318
299 299 298 298 298 298 298 300 302 301 301 301 301 302 304 306 305 304 305 305 305 304 305 306 307 305 305 305 309 309 309 311 314 317 320 319 318 317 321 322 320 320 319 318 319 319 317
298 298 298 299 299 299 299 299 298 299 301 302 301 300 301 305 307 305 304 304 305 305 304 305 305 305 306 305 306 307 306 312 315 318 317 314 314 316 317 320 324 318 317 317 318 319 316
298 298 299 299 300 300 300 300 300 299 299 300 301 300 300 300 304 305 305 305 304 304 304 305 305 305 305 305 305 308 309 310 312 313 314 312 310 316 318 321 319 318 319 317 321 319 317
300 300 300 300 301 301 301 301 301 300 300 300 300 300 300 300 301 304 306 305 304 305 305 304 307 307 309 308 308 306 305 312 314 313 314 313 313 315 317 321 320 319 321 321 317 318 320
301 301 300 301 301 301 301 301 301 301 301 300 300 300 300 301 302 303 303 307 305 306 305 304 307 307 308 309 306 306 304 303 310 312 312 315 314 315 315 316 316 317 319 320 317 318 319

GFSGBSN_925_thetae_063.txt.gz
Theta_e
306 307 308 308 307 306 306 307 306 304 303 303 303 304 305 307 307 306 306 306 305 305 304 304 304 309 313 315 315 309 313 313 316 312 310 312 313 312 312 310 312 311 314 314 314 312 318
306 306 306 305 305 305 307 306 306 306 305 303 302 302 303 305 306 306 306 306 306 305 305 304 304 309 313 314 307 309 314 315 313 311 312 312 311 312 313 312 315 315 316 315 314 316 325
305 305 305 304 305 304 304 304 303 304 305 306 305 303 302 302 303 304 305 306 306 306 305 304 304 309 312 310 305 313 313 316 314 313 311 312 313 314 312 314 314 316 315 313 313 314 323
304 304 304 304 304 304 304 304 304 304 303 303 306 306 304 303 302 302 304 305 306 305 305 304 307 311 313 305 307 307 306 308 310 313 311 314 313 312 312 312 313 315 314 314 314 314 316
303 303 303 304 304 303 304 303 303 303 303 303 303 304 305 304 303 302 303 304 303 304 305 304 311 312 313 309 313 313 314 311 308 310 314 316 314 313 313 313 313 313 312 314 315 314 315
303 303 303 303 303 303 303 302 303 303 303 304 304 302 302 303 304 302 301 302 304 308 306 311 314 311 310 309 311 315 314 314 312 314 316 315 312 312 311 312 315 314 315 315 315 314 320
302 302 302 302 302 304 304 305 304 305 304 305 305 304 302 301 304 303 300 304 304 309 308 312 314 314 311 312 316 315 316 312 312 314 315 312 313 314 314 313 313 314 315 314 313 314 322
300 300 301 301 301 302 304 305 304 304 304 304 304 305 304 302 300 300 300 305 305 305 310 308 307 310 313 314 315 312 315 313 313 314 314 314 315 314 313 313 314 314 315 315 314 315 319
299 299 300 300 301 302 303 304 304 303 303 303 304 304 304 303 302 300 302 305 305 306 310 311 308 308 306 313 315 314 313 313 313 313 314 316 316 314 314 314 315 314 315 315 315 315 316
299 299 299 299 301 302 302 303 301 301 302 303 304 303 303 303 302 302 305 305 302 307 311 306 310 309 309 314 316 312 311 312 313 314 315 314 315 315 315 315 315 315 315 316 317 316 318
299 299 298 300 301 300 300 300 301 301 302 303 304 304 303 303 301 301 304 301 305 308 297 301 309 308 309 309 308 312 311 311 312 316 316 318 316 315 316 316 315 316 316 317 318 317 316
298 298 298 300 300 300 300 300 300 301 303 303 304 303 303 304 304 302 301 304 309 314 308 306 309 311 311 310 309 313 311 312 312 313 315 316 316 315 316 317 316 317 318 318 317 317 320
298 298 299 299 299 300 301 299 299 301 303 303 304 304 304 304 302 303 302 306 315 313 305 304 311 311 311 311 309 310 312 312 315 316 315 316 317 316 316 316 316 317 318 320 320 320 322
298 297 298 299 299 299 300 301 300 301 302 303 304 304 304 304 303 302 303 311 314 308 308 305 305 306 313 310 310 310 310 309 311 314 313 315 316 316 316 317 318 317 317 320 324 323 321
298 298 297 297 299 299 299 300 300 302 302 303 304 305 304 304 303 302 303 312 311 309 307 309 306 306 308 310 315 312 311 310 310 313 316 315 314 316 315 316 317 318 318 318 319 321 324
297 297 297 297 297 298 299 299 300 302 303 303 305 305 305 304 303 302 304 308 310 309 308 308 307 307 307 308 312 314 318 316 313 312 314 316 318 317 317 316 315 317 318 321 319 323 325
297 297 297 296 296 298 299 298 299 301 303 304 305 306 305 304 303 302 303 305 307 306 306 309 309 307 309 309 309 312 316 314 317 319 315 314 315 317 316 317 317 317 318 320 320 319 323
295 295 295 296 297 297 297 298 299 299 302 303 306 306 304 304 304 303 302 303 305 305 306 307 308 309 309 308 308 310 312 312 319 320 322 318 316 317 317 315 316 316 318 320 323 324 322
295 295 295 296 297 298 298 298 299 299 301 305 305 303 303 303 305 304 303 303 304 306 306 306 308 308 307 307 306 308 311 314 319 321 322 321 321 319 318 316 315 315 316 317 319 319 323
295 296 296 297 297 297 297 298 299 299 300 303 299 303 304 304 302 303 304 303 304 304 304 305 306 305 307 308 307 307 309 310 314 321 319 320 322 323 323 319 316 318 316 316 318 320 320
295 295 296 296 297 297 297 299 299 299 300 303 297 302 304 306 305 304 304 304 304 304 304 304 305 305 305 307 308 307 307 311 314 318 319 319 322 321 319 320 320 319 319 317 318 318 320
296 297 297 298 297 297 298 298 299 299 300 303 297 303 304 303 306 304 305 305 304 304 305 306 306 306 305 305 306 307 307 307 310 316 319 318 318 319 318 319 318 320 317 317 317 317 317
296 297 297 297 297 298 298 299 299 300 301 302 301 300 305 306 306 306 305 304 305 305 305 304 306 306 306 305 304 305 304 306 310 318 316 317 317 317 318 318 317 319 319 318 316 318 318
297 297 297 297 297 298 298 299 299 299 301 301 302 302 304 306 305 306 306 304 304 304 304 305 304 306 305 304 307 309 310 311 313 316 315 315 315 315 315 316 320 319 314 316 317 317 317
298 297 298 298 298 298 299 299 299 299 300 301 302 303 304 306 306 305 306 305 304 303 304 303 303 304 303 304 307 307 306 310 311 315 316 314 314 316 315 317 316 313 316 317 318 318 316
298 299 299 300 300 299 299 301 301 300 300 302 302 302 302 305 306 305 305 305 305 304 303 304 304 304 305 305 305 310 306 307 313 317 317 317 315 314 317 318 316 311 313 312 317 319 315
297 297 297 298 298 298 298 298 298 299 300 301 301 300 300 300 303 305 306 305 304 303 303 303 304 304 303 302 306 309 308 307 307 314 315 314 313 317 316 316 315 314 316 318 324 320 319
298 298 298 299 299 298 298 299 299 299 298 300 301 299 300 300 301 304 305 305 304 304 304 302 305 304 303 304 305 305 302 307 309 309 312 312 312 310 312 315 317 316 315 317 316 316 319
300 300 300 300 301 300 299 299 300 299 299 299 300 300 300 300 300 302 301 301 303 304 304 304 305 306 305 304 303 304 303 299 308 310 310 312 310 311 312 314 313 313 313 313 314 318 316

GFSGBSN_925_thetae_066.txt.gz
Theta_e
304 304 304 305 305 305 306 307 307 306 305 305 303 303 302 302 304 304 304 305 305 305 306 305 304 303 310 311 310 309 309 311 313 314 311 310 311 310 310 308 310 310 311 312 312 312 312
304 305 305 304 304 304 304 304 303 303 303 304 305 305 304 303 302 302 302 303 304 305 306 305 305 304 312 312 305 308 312 315 312 311 310 310 310 310 311 311 311 312 313 313 312 312 323
303 304 304 303 304 304 304 304 304 304 304 303 303 304 306 305 303 303 302 301 303 304 304 304 305 307 310 309 303 309 311 309 313 310 310 311 311 313 312 313 312 315 314 312 312 313 319
303 303 303 303 303 303 303 303 303 303 303 303 303 303 303 304 304 304 303 302 300 301 303 304 306 308 310 304 305 306 304 305 309 312 312 313 313 311 312 312 312 314 312 313 312 313 316
302 303 303 303 303 303 303 303 303 302 303 303 304 304 303 302 302 302 304 303 301 306 306 306 307 309 311 306 311 311 312 310 306 310 310 312 312 312 312 313 313 311 313 312 312 313 317
302 302 303 302 302 302 302 303 303 303 303 304 304 305 305 304 303 301 301 299 308 307 307 307 311 308 306 305 310 314 314 313 311 312 314 314 313 311 310 311 314 314 314 312 313 313 314
302 302 302 301 301 301 302 303 303 304 303 304 304 304 304 304 304 302 301 301 304 307 305 310 310 310 310 314 314 314 313 311 309 313 311 313 314 315 312 312 311 312 314 314 312 312 315
301 300 300 300 300 301 301 302 303 303 303 303 303 303 304 304 304 303 301 304 305 304 307 306 307 308 308 311 313 310 310 312 311 313 313 311 316 314 312 312 313 314 314 314 312 312 314
300 299 299 300 300 299 301 303 303 302 302 302 301 303 303 303 304 302 301 303 305 304 309 308 307 308 308 308 310 310 311 312 312 312 314 315 315 314 313 313 314 313 314 313 312 313 313
300 299 299 299 299 300 301 302 301 300 301 301 301 302 304 303 303 301 303 304 301 306 309 307 309 308 307 311 312 310 309 310 312 313 313 313 314 314 313 314 313 314 312 313 314 315 317
300 298 298 298 298 298 299 299 299 300 300 301 302 303 304 304 303 303 302 301 303 307 298 301 309 307 310 307 307 311 310 310 312 313 314 314 315 315 315 314 313 314 314 314 315 316 315
300 299 299 298 297 299 299 299 299 300 300 300 301 303 304 304 304 303 303 302 306 309 307 304 308 310 311 310 309 311 311 310 310 313 314 313 314 313 315 315 313 316 316 317 316 316 319
299 298 299 299 298 297 299 299 299 299 299 299 301 303 304 304 302 302 302 305 312 311 305 304 306 311 311 311 310 310 311 310 312 312 314 314 315 316 315 316 314 315 316 319 321 321 322
299 299 298 297 298 298 299 299 299 298 298 300 301 303 304 304 304 303 302 308 312 308 308 307 306 306 310 310 310 308 308 309 309 313 313 314 315 315 316 316 317 316 317 319 324 323 321
298 297 297 298 297 298 298 299 298 299 299 300 302 303 304 304 304 303 301 307 309 308 308 308 307 306 307 308 313 312 310 308 307 311 315 315 314 313 315 316 317 317 317 316 318 319 321
297 297 298 297 297 297 297 298 297 299 299 300 302 304 305 304 304 302 302 302 308 308 307 308 308 306 308 309 311 313 317 315 315 311 312 315 316 316 316 314 315 317 316 320 317 323 324
297 297 297 297 297 296 297 297 297 298 298 300 303 304 305 304 304 303 303 301 303 304 305 307 310 309 308 308 308 309 313 317 318 319 312 313 314 315 315 316 316 317 317 318 318 317 321
296 296 296 296 296 296 297 297 297 296 298 299 303 305 304 304 304 303 304 301 303 303 305 306 307 308 308 307 307 307 311 318 314 319 317 319 316 315 315 315 314 315 316 318 320 319 319
296 296 296 296 296 296 296 296 296 297 299 300 303 304 303 304 306 305 303 303 301 305 305 305 307 306 306 306 305 306 309 312 316 319 321 319 321 321 318 316 315 315 315 315 318 318 320
295 295 294 295 296 296 296 296 297 295 297 300 299 302 304 304 304 305 304 304 303 302 303 304 305 305 306 307 307 307 308 308 310 316 318 319 322 324 326 324 320 321 319 317 316 318 317
294 294 295 295 295 295 296 297 297 297 297 300 299 300 303 304 305 304 303 304 304 305 303 303 304 304 305 305 306 306 306 308 307 310 318 317 318 321 322 319 319 319 317 317 320 315 318
294 294 295 295 296 296 296 296 297 297 297 301 297 301 304 304 305 305 304 305 304 303 304 304 305 305 304 305 305 305 305 305 306 307 317 317 316 318 317 317 317 317 315 317 318 316 316
294 295 296 296 296 296 296 297 297 297 297 301 300 299 304 306 306 306 305 305 304 304 304 303 305 305 305 304 303 303 303 304 305 307 309 315 316 315 315 315 315 314 317 313 313 315 316
296 296 297 297 297 297 297 297 297 297 298 299 298 301 302 305 305 305 305 304 304 304 304 304 303 304 305 303 304 304 304 303 304 305 307 312 314 312 312 312 317 310 316 313 316 313 311
296 297 297 298 299 297 297 297 297 298 298 300 300 302 302 303 306 304 306 305 304 304 305 304 304 303 303 305 307 307 304 308 310 311 311 312 312 311 311 314 312 311 309 313 314 312 311
298 298 298 298 299 298 298 298 298 298 299 300 300 301 303 304 304 306 305 306 305 304 303 304 303 303 304 304 306 310 309 306 310 313 313 312 312 314 313 314 311 308 314 317 318 315 317
298 298 297 297 297 299 299 299 299 299 299 300 301 301 301 301 304 305 306 307 305 304 304 303 303 304 303 302 306 309 309 306 308 312 314 314 313 316 316 317 313 310 314 317 323 312 313
297 297 297 297 297 297 298 298 298 300 300 300 300 300 300 300 303 305 305 305 305 304 304 302 305 304 304 306 306 307 304 305 306 309 312 312 312 313 313 316 314 313 313 316 315 311 311
299 299 298 298 299 297 297 298 298 298 299 301 298 300 301 300 301 301 302 304 302 304 304 303 304 304 302 302 301 302 302 298 306 308 307 310 309 309 310 310 309 311 310 312 311 311 312

GFSGBSN_925_thetae_072.txt.gz
Theta_e
304 304 303 304 304 304 305 305 304 304 304 303 303 303 303 303 304 303 303 302 301 301 301 302 301 305 308 309 306 307 304 310 316 315 314 316 316 316 316 316 316 317 315 316 317 316 317
304 304 302 303 303 303 303 303 303 303 303 303 303 303 302 303 303 303 303 303 303 302 301 300 305 305 309 310 305 307 308 312 315 316 315 315 315 316 316 316 316 316 316 316 316 317 318
304 304 303 303 302 302 302 302 302 303 303 303 302 303 304 304 304 304 304 304 304 303 301 301 306 307 309 308 305 307 306 309 313 312 316 314 315 315 315 316 316 316 316 316 317 317 317
304 303 304 303 301 302 302 302 302 302 302 302 302 302 303 303 303 303 303 304 303 303 302 306 307 307 308 306 307 307 306 305 309 312 312 312 312 315 316 316 316 316 317 317 317 317 318
303 303 303 303 301 301 301 301 301 301 302 302 303 303 303 302 303 303 303 303 302 302 306 306 308 308 308 306 308 307 307 307 306 307 308 313 315 316 317 317 317 317 318 319 317 318 319
302 302 302 302 302 300 300 301 300 300 301 301 301 302 302 301 303 303 303 302 304 308 308 308 308 309 307 306 309 312 312 311 309 308 313 315 317 319 319 319 320 319 318 318 318 317 319
302 302 303 302 302 300 301 301 300 300 301 302 301 301 301 301 302 303 303 305 307 310 306 310 309 309 308 310 311 312 314 314 312 310 314 318 319 320 320 319 319 319 317 317 317 317 317
301 301 301 302 302 301 300 301 300 299 300 301 300 300 301 301 302 303 303 306 303 302 306 306 306 306 306 307 309 311 313 314 314 312 311 319 319 318 319 319 318 318 317 317 317 317 317
300 300 300 300 302 301 299 302 300 300 301 300 299 300 301 301 303 304 304 305 304 304 308 307 308 309 309 308 307 307 314 313 314 315 312 315 316 316 318 319 318 318 318 318 317 317 317
299 299 300 300 301 301 299 300 299 299 300 299 299 300 300 301 305 304 305 304 303 305 312 307 308 309 309 308 308 306 309 313 313 314 314 315 314 314 317 318 318 319 318 317 317 318 318
298 299 299 298 299 299 297 298 297 297 299 298 299 300 299 301 305 305 305 304 304 307 307 304 307 307 309 309 307 311 307 307 308 313 315 316 315 313 313 316 315 317 317 317 318 319 319
298 298 298 298 297 299 297 297 297 298 297 297 298 299 299 303 304 304 304 304 305 315 305 305 308 310 312 310 309 311 308 308 308 307 311 314 315 316 313 316 317 317 317 317 318 319 321
297 297 298 298 298 298 298 297 296 296 297 297 298 299 299 302 304 303 304 305 311 307 306 307 308 308 308 309 312 310 313 309 309 309 310 311 312 315 316 315 315 317 318 322 324 324 323
297 297 297 297 297 298 298 297 295 296 297 296 297 298 300 302 304 303 305 307 310 304 308 308 308 308 310 310 313 311 313 313 309 310 311 312 315 313 316 317 317 317 319 323 324 326 325
295 295 295 297 297 297 297 298 296 296 297 296 296 300 302 302 304 304 305 308 305 305 307 309 308 308 309 309 311 313 318 318 311 310 310 312 313 314 314 316 317 318 321 319 321 322 325
295 296 296 296 297 297 296 297 297 296 296 297 299 301 300 302 304 303 306 305 305 308 308 309 309 309 309 309 310 315 318 316 318 315 311 315 313 313 315 315 317 319 319 321 322 325 326
294 294 295 295 295 296 297 296 296 296 295 297 299 302 301 303 304 304 305 306 304 304 305 308 309 310 309 309 308 309 317 314 312 317 316 314 316 318 316 316 318 319 321 320 321 322 324
295 295 295 295 295 296 297 297 297 297 295 296 298 301 302 304 305 305 305 305 304 303 304 306 307 308 309 308 308 307 310 312 309 312 318 319 318 318 318 316 316 318 319 320 323 323 322
295 295 295 295 296 296 296 296 297 297 296 297 299 300 301 303 305 305 305 306 304 304 304 305 306 308 308 308 308 307 309 310 309 308 312 316 320 316 314 315 318 317 319 319 320 321 324
294 295 295 295 295 296 296 295 296 296 295 297 299 301 302 303 302 305 305 305 306 303 304 305 306 307 308 308 308 307 308 307 308 307 313 314 317 322 320 320 320 322 320 320 321 323 321
294 294 294 294 295 295 296 296 296 296 295 296 299 299 301 303 302 305 304 304 305 305 304 304 305 306 307 308 308 308 308 307 307 309 312 319 316 315 316 314 315 316 317 316 318 318 321
295 295 295 294 294 295 295 296 295 295 295 296 298 299 300 301 302 306 307 305 306 305 305 305 306 306 307 308 308 308 307 307 308 308 309 312 314 317 314 313 314 315 315 315 315 315 319
296 296 297 297 295 294 295 296 295 294 295 296 296 297 299 300 301 302 303 305 307 306 305 305 305 305 307 307 307 307 307 307 307 308 309 310 315 315 315 315 315 316 315 314 315 315 318
297 298 298 298 298 296 295 295 295 294 295 296 297 298 299 298 300 303 301 303 305 306 306 305 305 306 306 306 307 307 308 308 309 308 308 309 314 315 316 316 315 312 312 313 315 314 315
298 297 298 298 298 297 296 295 295 295 295 296 296 298 299 300 300 300 300 305 306 305 306 306 305 304 305 305 308 309 310 309 309 309 309 309 310 314 314 313 311 310 311 311 311 311 315
297 297 298 298 298 297 296 296 296 296 296 296 296 297 299 301 302 300 301 302 305 306 306 306 305 305 305 308 308 308 310 309 310 312 309 310 310 313 314 313 314 312 314 315 315 313 314
297 297 297 297 298 297 297 297 297 297 297 297 297 297 297 299 299 302 303 303 304 306 306 306 306 306 305 309 309 309 309 307 309 311 313 311 311 314 314 315 314 312 311 317 316 317 313
298 298 298 298 297 298 298 298 298 298 298 298 297 297 297 299 299 300 303 303 304 306 306 306 306 305 305 309 309 308 309 308 307 309 311 312 311 313 314 313 315 313 314 316 316 313 313
299 300 298 299 299 298 297 297 298 298 298 299 298 298 297 301 300 300 300 302 303 304 306 305 306 306 306 308 308 308 309 308 307 309 309 314 312 314 312 313 313 314 314 312 314 314 314

GFSGBSN_925_thetae_075.txt.gz
Theta_e
304 304 303 303 303 303 304 305 303 303 303 304 303 303 303 304 306 305 304 304 304 304 304 303 303 304 308 313 314 311 307 313 318 317 318 319 319 319 318 318 318 318 318 318 318 318 318
305 305 305 303 302 302 304 303 302 303 303 304 303 303 302 304 304 304 303 303 303 304 304 303 303 306 310 312 312 309 308 309 316 318 317 318 319 318 318 318 319 319 318 319 318 318 317
305 304 304 305 303 302 303 303 302 302 302 302 302 302 302 303 303 302 303 303 303 303 303 302 304 308 310 310 310 309 310 308 310 317 320 318 318 317 318 318 318 318 318 319 319 318 318
303 304 304 304 303 301 301 302 302 302 301 302 302 302 303 303 302 302 303 303 302 302 302 304 306 310 310 308 308 309 310 310 309 309 314 316 318 318 319 319 319 319 319 320 320 320 319
303 303 303 303 303 302 301 300 300 300 300 301 301 301 302 302 301 301 302 302 302 304 306 307 310 311 311 308 309 308 308 309 309 308 311 312 315 317 318 319 321 321 321 321 321 320 319
302 303 303 303 303 301 301 299 301 300 300 300 302 302 301 301 301 301 303 303 305 307 310 310 310 312 312 308 309 312 316 311 309 309 310 310 313 316 317 319 322 322 322 322 322 322 319
301 302 302 302 302 303 303 301 301 301 300 300 301 300 300 301 301 302 304 307 309 314 310 310 311 312 310 308 310 311 315 315 314 313 310 310 314 316 317 317 320 322 322 322 322 321 319
301 300 300 301 301 301 303 301 300 301 299 300 301 300 300 301 301 302 306 308 306 306 309 308 308 308 307 306 308 309 312 317 317 319 315 310 316 317 318 319 321 322 322 323 321 320 319
300 301 300 300 300 300 302 301 300 301 298 298 299 299 299 300 301 305 307 306 306 307 310 309 309 310 310 310 309 309 309 314 316 319 317 316 314 318 318 320 321 323 323 323 322 321 320
300 299 299 299 300 301 300 301 300 300 298 297 299 299 300 300 303 306 307 306 306 307 313 312 310 310 311 310 311 309 308 312 313 315 316 317 318 316 319 320 321 323 321 321 321 321 322
298 298 299 299 299 299 298 299 298 298 298 298 298 298 300 299 304 306 306 306 307 308 310 306 309 310 311 311 311 312 309 310 315 314 315 316 317 318 317 318 319 320 320 320 321 321 322
297 298 298 298 298 297 299 298 298 297 297 298 296 298 299 302 305 305 305 307 308 316 311 307 310 310 312 313 312 311 313 309 311 311 313 315 315 317 317 316 316 318 319 319 320 321 324
297 297 297 297 297 298 297 299 297 297 296 296 297 297 298 301 304 305 306 308 312 310 307 307 309 309 309 312 313 313 313 310 308 309 311 312 314 315 316 316 314 317 320 323 324 325 326
296 296 296 297 297 297 298 297 298 297 296 297 297 296 299 301 303 305 306 308 309 306 308 309 309 309 309 312 314 314 314 313 308 310 309 310 313 313 314 316 316 318 320 324 328 330 328
296 296 296 296 296 297 298 298 297 297 296 296 296 297 300 302 303 305 308 310 305 307 306 308 309 308 308 311 313 314 315 317 315 310 312 313 315 315 315 316 316 318 319 318 322 325 328
295 295 296 295 295 296 296 297 297 297 296 297 297 300 301 303 304 305 306 306 306 306 309 308 307 308 310 311 313 314 318 317 318 318 311 314 314 313 315 316 316 317 319 320 322 326 328
295 295 295 295 295 295 296 296 297 297 296 296 297 301 302 302 305 305 306 305 305 305 307 308 308 310 310 311 311 313 321 316 312 315 316 312 316 317 315 317 318 317 317 320 322 322 327
295 295 295 295 295 294 296 296 296 296 296 296 298 302 302 303 306 306 305 305 305 305 305 306 308 310 310 310 310 310 311 314 311 312 319 314 320 319 316 315 316 317 317 320 325 325 325
295 295 295 295 295 295 296 296 296 296 296 296 299 300 302 304 306 305 305 304 305 305 305 305 307 307 308 310 309 309 309 311 309 309 313 313 318 320 320 318 317 318 319 319 321 323 326
294 295 295 295 294 295 296 296 295 295 295 297 300 302 301 304 304 305 305 305 305 305 305 305 305 306 307 309 309 309 309 309 309 309 311 312 319 319 317 319 319 318 319 321 321 324 323
295 295 296 296 295 295 295 296 295 295 295 296 299 300 302 305 304 304 305 307 305 306 305 305 306 306 307 308 308 309 309 309 309 309 310 314 321 320 320 319 316 319 320 320 321 321 323
295 295 295 296 296 296 295 295 296 295 295 296 300 299 300 302 303 304 304 305 307 305 305 306 306 306 306 307 308 309 309 309 310 309 310 312 313 313 318 316 315 315 317 317 317 318 318
296 296 296 297 296 297 296 295 295 295 295 296 297 298 301 300 301 303 305 304 304 305 306 306 306 306 307 308 307 309 309 309 309 310 311 311 313 312 316 312 315 317 315 315 316 317 317
296 297 297 297 298 298 297 296 295 295 295 296 297 298 300 300 301 301 302 303 304 305 306 306 307 307 307 308 308 308 309 308 309 310 309 311 313 314 316 316 317 313 313 313 315 316 316
296 297 297 297 298 298 298 298 296 295 295 296 297 299 300 300 299 300 300 301 304 305 305 307 308 306 307 308 309 309 311 310 311 310 310 310 312 315 316 315 313 312 311 311 312 313 315
297 297 297 297 298 298 298 298 297 295 295 296 296 297 299 301 301 299 300 301 303 305 308 307 307 306 307 307 311 311 310 310 311 311 310 310 311 314 314 314 312 311 314 315 314 315 315
296 297 297 297 297 297 298 298 297 295 295 296 296 296 298 302 300 302 301 301 302 304 307 306 307 308 306 309 311 311 310 309 311 313 313 313 314 314 314 314 313 313 313 314 316 317 314
297 298 298 299 299 297 297 298 297 296 296 296 295 296 298 301 300 300 301 303 304 304 306 307 308 306 306 311 310 310 310 310 309 311 313 314 314 314 314 316 315 311 313 315 318 316 315
298 298 298 299 299 298 298 298 297 297 297 296 297 296 297 299 300 299 299 299 301 304 305 305 306 307 307 309 309 309 311 310 309 310 311 314 312 313 311 312 313 315 315 314 314 314 314

GFSGBSN_925_thetae_078.txt.gz
Theta_e
306 306 306 305 303 302 304 305 304 303 303 303 304 304 303 304 306 306 304 303 303 303 303 303 304 306 305 311 313 311 312 311 314 315 316 317 320 319 320 319 319 318 318 318 318 319 319
305 305 305 305 305 303 303 303 303 303 302 302 302 303 302 303 304 303 302 302 302 302 302 302 303 305 309 309 309 311 312 310 311 318 319 319 319 319 319 319 318 318 318 318 319 319 319
305 305 304 305 304 304 303 301 302 302 302 301 301 302 302 302 303 302 301 301 301 302 301 302 303 308 310 308 309 309 310 311 310 312 319 319 318 319 319 319 318 319 319 319 319 319 319
304 304 304 304 304 303 303 302 301 300 301 301 300 301 301 302 301 301 301 300 300 300 303 303 305 310 311 308 309 309 309 309 311 311 312 317 319 320 319 319 319 319 319 320 319 319 320
303 303 304 303 304 303 303 302 301 300 301 300 300 301 302 301 301 300 300 300 300 304 305 307 310 311 312 310 310 310 309 309 310 312 311 310 316 318 319 319 319 320 321 321 320 320 321
302 302 303 303 303 303 303 304 302 300 300 300 300 301 301 300 300 300 301 304 307 307 308 311 312 313 313 310 310 311 313 316 312 311 311 310 312 316 318 319 321 320 321 321 322 322 322
301 301 302 301 301 302 302 303 303 301 300 301 300 300 300 300 300 300 302 307 311 313 314 314 315 314 313 311 309 310 311 316 313 311 312 311 310 311 313 319 319 320 321 322 324 323 323
301 301 301 301 301 301 301 301 303 301 300 300 299 298 299 299 299 301 303 310 308 307 309 308 308 308 307 308 308 308 309 315 316 316 315 314 314 312 313 313 315 317 318 321 324 323 321
301 301 301 300 300 300 301 302 302 301 300 300 298 298 299 299 299 303 308 308 307 308 309 309 310 311 311 311 310 310 309 309 316 317 318 320 318 316 313 315 316 319 321 323 323 323 323
300 300 299 299 300 300 300 300 300 301 300 299 298 298 298 299 302 307 308 307 307 308 312 314 311 311 311 311 312 311 310 309 310 315 316 318 318 316 315 318 320 323 321 323 323 324 326
298 299 298 299 299 299 299 299 298 299 300 299 298 297 297 298 302 304 307 306 308 309 319 313 309 311 312 312 312 312 311 310 309 313 313 316 316 317 318 320 319 324 322 323 324 323 324
297 298 298 298 298 298 298 298 299 299 298 299 298 297 297 299 303 303 306 307 308 315 318 308 312 312 313 313 313 312 313 309 310 310 314 315 315 317 319 319 319 319 322 322 323 323 326
297 298 298 297 297 297 297 298 298 297 297 298 298 297 298 299 302 305 305 307 315 313 308 308 310 310 310 310 311 313 314 313 310 312 314 313 314 315 317 319 318 319 319 326 327 327 327
297 297 297 297 297 297 297 297 297 297 298 297 297 297 298 299 300 302 305 310 312 307 309 310 309 309 309 310 312 314 314 315 312 310 309 310 312 312 313 316 317 319 319 327 330 331 327
296 296 296 296 296 297 297 297 297 298 297 297 297 298 298 299 300 302 308 308 306 308 307 307 308 309 307 309 311 315 315 315 316 310 310 312 310 311 314 313 315 320 322 320 326 324 332
296 296 296 296 296 295 296 296 296 296 297 297 297 299 300 300 301 304 308 308 307 306 308 309 309 307 307 309 311 312 312 317 320 315 311 314 314 314 314 315 316 319 319 322 322 327 333
295 296 296 296 296 296 295 296 296 295 297 297 297 299 300 300 303 306 307 307 306 306 307 308 308 308 309 310 310 312 317 318 316 313 315 316 314 315 315 316 318 318 320 321 323 324 330
295 295 295 296 294 295 295 296 296 296 297 296 298 300 302 303 306 306 308 305 306 305 306 305 306 308 310 310 311 311 312 315 311 311 316 318 316 317 316 316 315 318 319 319 325 330 327
295 295 295 295 296 295 295 295 295 296 296 298 299 299 299 303 305 307 305 305 305 306 305 306 305 306 307 308 309 309 311 312 310 309 312 311 316 319 320 321 317 317 318 320 320 324 329
294 295 295 296 296 296 295 295 295 296 295 296 300 301 300 305 304 305 306 305 305 305 305 305 305 306 306 307 307 309 310 310 309 309 308 309 314 319 324 324 321 322 320 320 322 324 326
295 295 295 296 296 296 295 296 295 296 295 296 299 300 302 305 304 304 304 306 307 304 305 305 305 305 306 307 307 308 309 309 309 310 309 311 316 318 315 320 320 322 323 322 325 325 326
294 295 295 295 296 296 297 296 295 296 295 297 299 298 299 301 303 304 304 305 305 306 306 307 306 306 306 306 307 309 309 309 312 310 310 310 315 313 314 314 319 317 316 317 320 321 319
294 295 295 296 297 296 296 297 296 295 295 297 296 297 299 301 300 302 305 304 304 304 305 307 307 308 306 305 308 310 310 311 311 312 311 312 312 313 314 313 315 318 316 316 316 317 317
294 295 296 297 297 297 296 297 297 296 295 296 297 297 300 301 300 302 301 303 304 303 305 305 306 308 308 308 309 310 310 310 311 311 309 310 311 314 317 315 318 315 314 314 315 315 316
295 296 296 297 297 298 298 299 298 297 295 296 297 298 300 300 300 300 300 301 304 304 305 306 305 306 306 310 309 308 309 309 309 309 309 310 311 315 317 315 313 312 312 311 312 313 314
294 296 297 297 297 297 297 298 298 298 296 296 297 298 299 302 300 299 299 300 301 303 304 305 306 306 307 309 309 308 309 308 310 310 310 310 313 314 316 315 314 312 311 314 314 314 316
295 296 296 296 297 297 297 297 298 298 298 296 296 297 298 299 299 300 301 301 301 302 304 306 307 308 308 309 308 309 309 309 312 312 312 313 314 315 315 315 313 311 315 315 317 319 315
295 296 296 297 297 298 298 298 298 298 298 296 297 297 298 299 299 299 300 300 303 304 306 306 307 308 308 308 308 308 311 311 311 311 314 313 314 315 314 314 315 312 313 316 319 317 315
295 296 296 297 298 298 299 299 297 298 298 295 297 296 297 298 298 299 299 299 300 302 304 305 305 306 307 307 308 309 312 314 311 311 313 316 312 313 312 312 312 315 317 315 314 315 314

GFSGBSN_925_thetae_081.txt.gz
Theta_e
306 306 306 305 305 305 305 305 303 303 303 303 302 302 302 303 305 305 304 303 302 301 301 302 303 307 305 308 311 308 309 310 312 313 317 315 313 315 316 316 315 316 315 315 315 315 315
305 306 306 305 305 304 305 304 302 301 302 302 302 301 301 302 303 303 302 301 301 300 300 301 304 307 308 308 305 308 309 311 312 317 316 316 315 316 318 317 317 317 316 316 314 314 315
305 304 305 305 304 304 303 303 302 301 301 300 301 301 300 301 301 301 301 300 300 300 300 301 304 307 308 307 305 306 308 309 310 311 310 318 318 318 316 317 317 317 316 316 315 315 315
304 304 304 304 303 303 303 303 303 303 302 302 302 300 300 302 302 301 300 299 300 300 301 303 306 308 310 306 307 309 309 309 309 309 311 312 311 315 318 317 318 317 316 316 316 316 316
303 303 303 303 303 303 302 302 303 304 302 301 301 300 300 300 301 300 299 299 301 304 305 306 308 309 312 311 311 310 310 309 308 310 311 312 309 312 316 317 317 317 317 317 318 317 317
303 303 302 302 302 302 302 302 302 302 302 300 301 300 300 299 300 299 299 301 307 308 308 308 310 312 313 312 310 311 310 314 315 310 310 311 307 310 313 315 319 317 317 315 317 318 319
301 303 302 301 301 302 302 302 302 301 302 301 301 301 298 298 299 298 299 302 306 310 310 314 313 311 312 312 309 307 308 314 314 310 309 308 306 308 310 315 317 317 317 318 318 318 320
301 301 302 301 301 301 301 300 301 302 301 301 300 300 298 298 299 298 300 304 307 305 308 308 308 308 310 309 307 307 307 309 316 311 309 309 308 309 310 311 311 312 313 315 316 318 318
300 300 300 300 300 300 300 300 301 300 300 301 299 299 298 298 298 300 306 307 308 308 307 308 308 308 308 307 308 308 307 307 309 316 315 313 314 313 315 312 313 315 315 316 317 317 319
299 298 299 299 299 300 300 300 300 300 300 300 299 298 298 297 299 301 303 306 306 307 310 310 312 309 310 310 311 310 309 307 307 309 315 315 316 318 317 316 314 315 315 319 322 327 329
299 298 298 298 299 299 297 297 298 299 300 300 298 298 298 297 298 301 303 305 307 308 315 315 309 309 311 312 312 310 310 308 308 307 311 313 316 316 316 316 315 316 318 321 323 327 327
297 297 298 298 298 298 298 298 297 299 299 297 298 298 297 297 300 301 303 304 308 314 315 309 310 309 311 312 312 312 312 309 308 307 307 309 312 314 315 317 318 320 322 321 322 326 332
297 297 297 298 298 297 298 298 298 297 298 298 298 298 297 299 299 300 301 304 312 314 311 308 311 312 313 311 313 312 313 308 307 309 309 310 311 315 318 320 319 319 323 329 330 330 329
296 296 297 297 297 297 297 297 297 298 297 297 297 297 297 298 298 299 302 308 312 310 310 310 309 309 309 309 310 313 313 313 308 308 307 310 311 312 317 316 317 319 321 328 330 330 329
296 296 296 297 296 296 297 297 296 297 295 297 297 297 298 297 298 299 303 307 309 307 307 309 308 308 309 308 310 313 313 313 314 309 309 310 311 310 311 313 315 317 319 319 324 326 330
295 296 296 296 296 296 296 296 296 296 296 296 297 298 298 298 299 300 304 307 305 306 307 308 309 309 308 308 310 310 311 317 320 316 310 312 316 313 312 312 314 314 317 324 323 329 331
296 296 296 296 296 296 295 296 295 295 297 296 297 299 298 298 300 302 304 305 305 305 306 307 308 308 309 311 310 310 317 318 314 312 313 316 316 315 313 315 317 318 318 321 324 324 334
295 296 295 296 296 296 296 295 294 295 296 296 297 299 301 301 302 303 303 304 305 305 306 305 306 305 307 309 310 311 312 314 309 309 313 313 314 315 313 313 314 317 319 320 327 329 326
295 295 295 295 296 296 296 296 296 294 295 296 298 296 299 298 301 304 305 304 304 305 305 305 306 306 306 306 308 309 310 312 309 310 309 310 313 318 319 320 319 318 319 320 322 323 327
295 295 295 295 296 296 296 295 296 296 295 295 297 293 298 299 300 304 304 304 305 304 304 305 304 304 305 306 306 307 308 311 309 310 310 308 312 316 321 324 320 323 320 320 322 327 324
293 294 295 295 296 296 296 296 295 296 295 295 297 294 299 300 301 303 304 305 307 307 305 305 304 304 305 306 306 306 307 309 310 312 309 309 313 315 315 315 316 322 321 322 324 323 326
294 294 294 295 295 296 296 297 296 295 295 295 297 294 297 299 301 302 302 303 303 304 304 307 308 307 306 305 305 306 310 309 309 312 312 311 311 313 314 313 313 316 319 320 319 322 322
294 295 295 295 296 296 297 297 295 296 295 295 296 296 296 298 300 302 302 304 304 303 303 304 307 308 308 308 307 308 309 309 310 311 312 313 313 312 313 313 317 317 315 316 318 322 321
293 294 295 296 296 297 297 297 297 296 296 295 296 296 295 295 297 299 300 301 303 304 305 304 306 306 308 307 306 308 308 309 310 311 310 311 311 311 312 313 317 317 315 315 316 316 315
293 295 295 296 296 297 297 297 298 297 297 296 295 296 296 292 297 298 299 300 301 303 304 304 306 306 305 307 309 309 307 308 309 311 310 309 310 308 312 313 314 312 313 312 312 313 315
294 295 295 296 296 297 297 297 297 298 297 297 296 296 296 298 296 298 299 300 300 300 302 302 306 304 306 308 309 309 307 308 308 308 308 309 308 309 309 316 313 312 313 314 314 316 316
294 294 295 295 296 296 296 297 297 298 297 297 296 296 297 298 296 298 299 300 301 301 301 303 304 306 306 305 309 305 306 307 309 311 311 309 308 311 310 313 314 312 315 315 316 319 315
293 294 294 295 295 296 297 297 298 298 298 298 296 296 297 298 297 298 298 299 300 301 303 302 302 303 305 302 305 304 304 308 310 311 313 311 310 310 310 310 312 312 314 317 316 314 313
293 294 294 295 296 296 297 298 298 299 298 298 296 295 297 296 296 297 298 298 299 299 301 302 301 304 306 305 305 305 304 307 310 313 312 314 311 311 310 310 313 314 316 314 313 313 312

GFSGBSN_925_thetae_084.txt.gz
Theta_e
305 306 306 306 305 305 306 306 305 303 302 301 301 300 302 303 304 304 303 302 301 300 300 301 305 306 306 307 309 308 308 310 311 313 315 314 309 309 313 313 315 315 316 317 315 314 313
305 305 305 305 304 304 305 305 303 302 302 301 300 301 301 302 303 304 303 301 301 300 299 300 304 306 306 306 302 305 307 306 310 316 316 315 314 312 315 316 314 316 315 316 315 314 313
304 304 304 304 304 303 303 303 303 303 304 302 302 302 301 300 301 300 301 301 300 299 299 300 304 307 306 305 302 304 303 308 309 315 313 316 315 315 316 317 316 316 316 315 314 313 313
304 303 303 303 303 303 302 302 302 303 303 304 303 301 301 300 299 299 300 300 298 298 299 302 306 307 306 304 303 306 307 308 309 309 309 309 311 313 315 316 318 317 315 316 316 315 314
303 304 303 302 302 302 302 302 302 302 303 302 302 300 301 300 299 298 299 299 299 303 303 305 308 307 307 306 311 311 310 309 308 308 308 309 310 307 313 316 317 315 317 316 316 316 315
301 301 303 302 302 302 302 302 301 301 300 302 302 301 300 299 298 298 298 299 307 308 307 309 308 309 308 310 310 309 309 310 313 312 309 309 307 306 310 313 320 318 317 315 315 314 315
301 301 301 302 302 302 301 301 301 299 300 301 302 301 299 298 298 298 298 301 303 305 308 311 311 311 310 311 310 307 306 308 313 310 307 308 306 306 307 312 315 316 316 316 314 314 318
300 300 301 301 301 301 300 300 300 301 301 301 300 300 298 298 297 298 301 303 306 307 306 306 307 308 309 311 310 310 307 306 315 312 308 308 306 306 308 309 311 313 313 311 312 314 320
300 299 299 299 299 299 300 300 300 300 300 300 300 299 298 298 298 299 298 301 304 306 305 307 307 307 307 307 310 310 306 306 308 315 311 308 309 308 308 308 309 309 312 312 314 319 319
299 299 299 298 298 299 299 299 299 299 299 298 298 298 298 298 298 298 299 302 304 306 307 308 310 308 308 308 308 306 307 306 306 307 313 314 313 313 314 316 315 315 313 315 318 324 324
296 297 297 298 298 299 298 298 298 298 299 299 298 296 298 298 298 299 298 301 302 307 308 310 311 309 309 311 310 309 308 306 306 306 310 312 315 315 316 315 314 316 320 320 321 323 324
297 297 297 297 297 298 298 298 298 298 298 298 299 296 298 298 297 297 299 299 304 311 310 312 310 309 311 311 311 311 310 308 307 307 306 307 309 313 314 316 316 319 321 321 322 323 324
297 296 296 297 297 297 297 297 297 297 297 298 297 297 298 298 298 297 298 300 309 309 308 311 311 309 312 312 312 312 310 307 307 307 307 308 308 314 316 319 318 319 319 324 328 327 322
297 296 297 297 296 297 297 297 297 297 297 297 297 297 297 297 297 297 299 306 307 307 309 308 309 312 312 312 312 313 312 309 306 307 307 309 310 315 316 315 318 319 319 323 328 327 326
295 296 296 296 296 296 296 297 296 297 296 296 295 296 297 297 297 297 301 305 306 307 307 307 309 308 308 309 308 312 313 313 310 306 308 308 309 308 314 313 314 319 319 318 324 326 326
295 295 296 296 296 296 296 296 296 296 296 296 296 296 296 297 297 299 302 303 304 305 305 306 308 309 310 311 310 310 316 317 319 311 308 312 315 313 311 312 313 316 318 325 324 326 330
295 295 296 296 296 296 296 296 295 296 295 295 296 297 296 299 298 301 302 303 303 304 305 306 306 306 306 307 308 309 318 316 311 310 312 314 316 316 314 314 314 315 319 320 322 322 327
294 295 296 296 295 296 296 296 295 294 294 295 296 297 299 299 298 299 299 303 304 304 304 305 306 307 306 307 308 309 313 310 308 309 312 310 312 316 314 312 312 315 319 320 326 328 325
294 295 295 295 295 295 296 296 295 295 295 295 297 297 297 298 299 299 302 302 302 303 304 305 305 306 305 306 306 308 310 310 308 309 308 308 315 316 318 318 319 320 319 319 320 321 324
294 295 294 295 295 296 296 295 295 295 295 295 295 297 294 298 298 301 304 304 304 304 304 304 304 305 305 305 306 307 307 309 308 309 309 308 310 315 318 319 320 320 319 320 323 326 323
294 293 294 294 295 295 296 296 296 296 295 295 294 293 296 299 301 301 302 305 305 305 306 305 305 305 305 305 305 305 306 308 309 311 308 308 309 312 314 315 315 316 318 320 321 323 326
294 294 293 294 295 295 296 296 296 296 295 295 294 293 294 296 300 301 302 303 303 303 303 304 306 307 308 308 309 310 309 308 309 310 311 310 311 311 311 312 312 315 313 321 320 320 321
292 294 294 294 294 295 296 296 296 297 296 295 294 295 294 295 297 298 301 301 301 303 304 304 304 307 308 308 307 306 306 307 308 310 310 311 312 310 313 312 312 315 315 317 320 319 319
294 294 293 294 295 296 296 296 297 298 295 294 294 294 294 294 295 296 297 298 300 301 303 304 305 306 306 306 305 306 307 307 308 309 309 310 311 312 312 311 313 312 309 311 317 317 319
295 293 293 294 295 296 296 296 297 297 297 295 294 295 296 290 295 296 297 298 300 300 303 303 302 305 304 306 307 307 305 306 307 309 309 309 308 307 309 311 310 306 308 313 312 317 316
292 292 293 294 295 295 295 296 296 297 298 296 295 294 295 297 294 297 298 299 298 298 299 300 304 303 304 305 305 306 308 307 308 308 309 309 308 307 306 312 311 310 311 313 314 319 314
293 293 293 294 295 295 295 296 296 297 297 298 296 295 295 296 295 296 297 298 299 299 299 300 302 301 302 302 307 305 306 306 307 310 309 307 305 309 307 307 310 310 314 314 317 317 313
292 292 293 294 294 294 295 295 296 297 298 298 297 295 295 293 295 296 297 297 298 300 302 301 298 300 304 302 303 304 302 305 307 308 309 311 311 308 307 309 310 313 314 315 314 310 310
292 293 294 294 294 294 294 295 296 297 298 298 298 296 295 294 294 296 296 297 296 297 298 301 300 302 305 307 303 304 302 301 306 309 311 312 311 310 308 307 311 311 313 311 310 310 309

GFSGBSN_925_thetae_087.txt.gz
Theta_e
305 305 305 305 305 305 305 305 305 304 303 302 301 303 303 303 303 303 302 301 300 301 303 304 304 305 305 304 304 303 307 305 310 312 311 310 308 308 310 312 314 314 315 315 314 313 312
305 304 304 304 304 304 304 304 303 303 303 303 304 303 302 302 303 303 300 298 299 300 301 302 304 305 305 304 301 302 303 306 305 315 316 312 309 308 310 311 313 314 315 316 315 315 314
304 304 303 303 303 303 303 302 302 303 303 303 303 303 301 300 300 299 298 298 298 298 298 301 304 305 305 304 301 303 303 302 303 309 314 314 314 314 312 314 315 315 316 315 313 313 312
303 304 304 303 302 302 302 302 302 302 302 302 302 302 302 300 299 298 298 298 298 299 301 304 305 306 306 305 302 302 302 305 306 308 310 313 311 313 314 315 316 317 315 316 315 313 313
302 301 301 303 302 302 302 302 302 302 301 301 302 302 301 300 298 298 297 297 301 304 306 305 306 307 307 305 308 306 308 307 308 307 308 308 308 307 310 314 316 315 317 316 316 314 315
301 301 301 302 302 302 302 301 301 301 301 301 301 301 300 299 298 298 297 300 306 308 307 307 308 309 307 308 311 309 307 309 308 307 309 307 306 304 309 313 318 318 316 314 316 314 313
301 300 301 301 301 301 301 300 301 300 300 301 301 301 300 299 298 297 297 303 305 305 306 309 309 309 309 310 310 308 308 306 312 309 307 307 306 305 305 312 315 316 316 315 313 313 317
300 300 299 299 299 299 299 300 300 299 299 299 300 300 300 299 297 297 298 299 303 302 305 306 306 306 307 309 310 310 307 306 313 312 307 307 306 307 306 307 311 313 314 313 310 311 317
299 299 299 299 299 298 299 299 299 299 299 299 299 299 299 297 297 298 296 298 300 299 306 306 306 306 306 306 308 307 308 305 307 314 309 307 308 307 307 307 309 308 308 309 311 317 317
297 297 297 297 298 298 298 299 298 298 298 299 299 299 298 297 298 298 296 297 299 300 306 305 308 307 306 306 307 307 308 305 305 309 312 311 310 309 307 308 308 311 312 314 317 319 318
296 296 297 297 297 297 298 298 298 298 298 298 298 298 298 298 299 298 297 298 298 304 305 305 310 307 306 305 308 306 306 305 305 306 311 313 315 313 314 314 313 315 318 319 320 321 322
298 297 296 296 297 297 297 297 297 297 297 297 298 298 298 297 298 297 297 297 302 307 307 308 309 309 308 309 311 308 307 306 305 305 306 309 307 311 314 317 315 318 318 317 321 321 321
297 297 296 297 297 297 297 297 297 297 297 297 297 297 297 298 297 297 297 298 305 306 305 309 309 310 310 311 311 311 308 306 305 307 307 307 306 313 316 318 317 317 315 312 316 323 319
296 296 296 296 296 296 296 296 296 297 296 296 297 296 294 295 296 297 297 303 305 303 305 307 307 307 312 312 312 312 307 307 306 306 305 306 308 313 315 315 317 318 314 313 321 325 326
295 295 295 295 296 296 296 296 296 296 296 296 296 295 295 295 296 297 297 303 303 306 306 306 307 311 311 309 308 313 311 311 306 305 308 308 308 308 314 313 314 319 318 316 319 318 323
294 294 296 296 296 296 296 296 296 296 296 296 296 295 296 296 296 297 297 302 303 303 304 306 309 307 309 307 309 309 314 315 315 308 307 312 312 312 311 312 312 315 316 319 323 324 325
294 295 295 296 296 296 296 296 296 296 295 295 295 295 296 298 297 298 295 302 301 302 303 305 307 307 306 307 308 311 317 312 310 312 312 314 315 315 312 312 314 316 318 318 319 323 328
294 294 294 295 295 295 295 296 296 296 295 295 295 294 296 296 298 292 296 302 303 302 303 303 306 305 305 306 308 309 312 311 308 311 312 309 313 315 315 313 312 312 316 318 321 323 326
294 295 294 295 295 295 295 296 296 295 295 295 295 295 296 297 299 294 299 300 300 300 301 302 304 306 305 306 306 308 308 308 308 308 308 308 313 314 315 317 317 318 319 318 320 321 324
295 294 294 294 294 295 295 296 295 295 295 295 294 295 294 296 298 299 300 301 304 303 303 304 304 305 305 305 305 306 307 309 309 310 311 307 310 312 311 313 318 319 319 318 320 323 324
294 293 294 294 294 294 295 295 296 296 296 295 294 292 293 297 299 298 299 302 304 304 304 305 306 307 307 305 305 308 308 308 310 311 308 307 308 310 311 312 313 314 315 315 319 320 324
292 292 294 293 294 295 295 296 296 295 296 295 292 294 294 296 297 298 299 302 303 304 303 303 305 305 307 307 308 308 307 308 309 307 310 309 310 309 310 310 310 312 311 313 316 320 321
292 292 293 294 293 294 295 296 296 295 296 294 293 294 295 294 295 296 297 297 299 301 304 303 303 306 306 308 306 306 305 306 307 309 307 309 310 310 312 309 310 311 311 308 319 319 318
292 293 294 295 293 294 295 295 296 296 297 294 293 294 294 293 295 296 296 297 297 300 302 302 303 305 304 305 305 305 305 307 306 306 307 308 310 309 311 309 310 308 306 308 311 318 317
293 294 295 293 293 294 295 295 295 296 297 295 293 294 294 292 295 296 297 298 298 298 299 302 303 304 303 304 304 306 305 305 305 306 307 306 307 306 309 310 307 307 306 311 314 313 315
293 294 292 292 293 294 295 295 295 296 297 296 294 294 293 290 293 295 297 298 298 299 300 301 302 301 303 302 304 307 306 306 307 307 307 306 305 306 305 310 306 306 310 312 313 315 313
294 294 292 293 293 294 294 295 295 296 297 298 296 294 293 288 292 295 295 297 298 298 299 301 299 301 300 302 304 306 307 305 306 308 308 307 306 309 308 309 307 307 312 312 315 314 312
294 293 292 292 293 294 294 294 294 296 297 297 297 296 294 290 291 295 295 295 297 298 297 297 297 297 302 303 303 303 302 304 306 305 308 307 307 306 308 310 309 311 312 312 311 309 309
293 293 292 292 293 294 294 294 294 294 296 297 298 296 295 294 292 295 294 295 296 296 295 297 299 299 303 304 304 304 303 299 305 306 308 304 307 311 308 307 310 308 309 308 309 308 308

GFSGBSN_925_thetae_090.txt.gz
Theta_e
305 305 304 304 304 304 304 304 303 303 303 303 303 303 304 304 303 303 302 299 301 301 302 303 304 304 304 304 303 300 300 301 310 313 312 309 307 308 310 310 313 313 314 312 313 312 312
304 304 304 303 303 303 302 302 302 302 302 303 302 302 303 303 303 303 301 298 298 299 300 302 303 304 304 304 301 301 303 303 307 314 313 309 309 307 308 308 312 313 314 315 314 313 313
303 304 304 303 302 302 302 302 302 302 302 301 301 302 302 302 302 302 299 297 298 297 299 303 304 305 304 303 300 301 301 302 302 303 314 313 310 310 307 310 310 310 312 313 312 312 312
302 302 302 303 302 302 302 302 302 301 301 301 301 302 300 299 299 298 297 297 297 300 304 306 306 305 305 302 302 304 303 302 301 302 309 313 313 312 313 313 315 316 313 315 314 312 313
301 301 301 302 302 302 302 301 301 301 300 300 301 301 301 300 299 298 297 297 300 305 306 305 305 305 306 304 307 305 306 304 306 306 306 307 306 306 308 312 313 314 317 315 315 312 314
301 301 301 301 301 301 301 300 300 300 300 300 300 300 300 299 299 298 297 298 305 308 308 307 307 306 304 305 310 310 307 306 308 305 305 305 305 304 306 311 313 316 316 314 315 314 313
300 300 300 300 299 299 299 299 300 299 299 299 299 300 300 300 299 296 297 297 301 301 301 303 304 306 307 308 309 309 309 307 308 307 305 305 305 305 307 309 312 315 315 315 313 312 311
299 299 299 299 299 298 298 299 299 299 299 299 299 299 299 299 297 296 298 295 300 298 301 301 303 303 304 305 307 306 308 306 312 311 306 306 306 306 306 307 311 313 315 314 311 309 316
298 298 298 298 298 298 298 298 299 299 298 298 298 298 299 298 297 298 297 297 297 298 302 304 304 305 306 306 307 306 307 307 312 312 308 308 308 307 307 306 308 308 310 309 310 314 313
297 296 296 297 297 297 297 298 298 298 297 297 297 298 297 297 297 298 297 297 297 298 305 304 306 306 305 306 307 306 306 305 304 314 311 308 308 307 306 307 306 307 307 310 316 315 314
296 296 296 296 296 297 297 297 297 297 297 297 297 298 298 298 297 297 297 297 297 302 305 301 306 306 305 305 304 306 306 304 305 307 311 313 313 311 309 308 307 312 315 316 319 318 320
296 296 296 296 296 297 297 297 297 297 297 297 297 297 297 296 296 296 297 297 300 308 305 305 309 307 306 305 308 306 306 305 304 305 306 310 306 310 313 317 314 318 316 318 319 318 317
296 296 296 296 296 296 296 296 296 296 296 297 296 296 297 297 296 296 296 296 303 305 301 305 307 307 306 309 310 307 307 305 305 306 306 306 306 311 316 318 316 314 314 312 311 319 316
295 295 295 295 295 296 297 296 296 296 296 296 296 295 294 294 294 295 296 298 302 300 303 306 306 307 308 310 310 311 307 306 305 304 304 305 305 310 314 314 317 316 314 315 317 323 321
295 295 295 295 296 296 296 296 296 296 296 296 295 294 295 295 296 296 295 298 300 303 304 306 309 310 311 307 308 312 308 307 305 304 307 305 307 309 314 314 313 318 316 314 316 316 316
294 294 294 295 296 296 296 296 296 296 296 296 295 294 294 297 296 296 296 297 300 302 302 306 310 308 308 306 308 311 314 313 312 307 306 310 311 312 312 312 314 314 315 315 318 323 323
293 294 295 294 295 295 295 295 296 296 296 294 294 293 295 296 296 298 293 295 299 300 302 306 307 310 308 305 307 314 314 313 310 312 311 313 313 315 311 313 316 316 317 316 317 318 322
293 294 294 294 295 295 295 295 296 296 295 294 293 292 295 296 295 297 292 298 299 300 301 302 305 307 308 306 308 312 312 313 309 310 311 310 313 316 315 314 312 312 316 316 315 317 322
293 293 294 294 295 295 295 294 296 295 295 294 293 294 295 296 297 297 296 299 299 299 299 301 304 305 305 306 308 309 310 309 310 308 308 307 313 311 318 316 313 317 318 318 319 317 321
293 294 294 294 295 294 295 295 295 295 296 294 292 293 290 296 298 297 299 299 298 301 299 305 305 305 306 306 307 309 309 309 310 309 311 309 310 309 311 310 315 317 316 317 318 319 321
293 295 293 294 294 294 294 295 295 295 296 294 293 290 293 292 294 296 297 300 303 306 303 304 305 306 307 308 307 309 308 308 308 309 309 307 308 309 310 310 312 312 312 314 318 317 318
293 293 292 293 293 293 294 295 295 295 296 294 292 293 292 293 295 296 296 298 299 300 304 305 304 306 306 307 308 308 306 308 309 307 308 308 310 309 310 309 308 309 309 309 310 312 316
292 293 292 293 293 294 293 294 295 295 296 294 293 293 292 292 294 294 297 296 296 298 301 302 302 305 305 306 305 305 304 304 307 308 307 308 308 308 309 309 307 308 308 306 305 316 317
293 292 292 293 294 295 293 295 295 295 296 296 293 293 294 290 293 295 295 296 297 298 301 301 302 303 305 303 303 304 304 305 306 307 307 308 308 308 310 309 307 306 304 305 310 311 316
292 292 293 294 295 293 293 295 295 295 296 296 294 293 294 288 294 294 295 296 296 298 299 300 303 302 301 303 303 305 304 304 304 304 305 305 306 306 307 309 306 305 307 311 310 309 312
292 292 293 295 292 292 293 294 294 295 296 296 295 294 295 290 291 294 296 297 298 298 298 300 300 299 300 301 303 306 306 306 307 305 305 304 304 305 305 309 305 304 307 310 310 305 311
292 292 293 294 292 292 293 294 294 295 296 297 296 296 294 294 292 294 295 297 297 297 297 299 298 299 298 301 303 306 306 305 305 307 307 306 306 308 307 307 307 306 310 310 310 308 309
292 292 294 294 293 292 293 294 294 294 295 296 297 296 294 293 291 293 294 294 295 296 295 296 296 296 302 302 304 303 302 303 305 304 307 306 306 305 307 308 308 308 310 310 310 308 307
292 293 294 293 293 292 293 294 294 294 294 296 297 296 295 295 293 294 294 294 295 296 294 295 297 297 302 298 301 302 305 300 303 306 306 302 307 310 308 307 308 305 305 303 304 303 304

GFSGBSN_925_thetae_093.txt.gz
Theta_e
305 304 304 303 303 303 302 302 302 303 302 302 301 301 302 303 303 303 302 300 300 300 301 302 303 304 304 304 304 299 300 300 311 307 309 310 312 313 314 314 315 315 314 313 313 313 313
303 303 303 302 302 302 302 302 302 302 302 301 301 301 302 302 302 301 301 299 295 296 298 302 303 304 303 302 300 300 301 302 303 315 312 309 310 311 311 311 313 314 315 314 314 315 314
303 303 304 302 302 302 302 302 302 301 301 300 301 301 301 301 301 301 300 297 296 296 299 304 306 305 304 303 299 300 301 302 301 302 309 311 310 310 310 311 310 311 312 312 314 315 315
302 301 301 301 301 301 301 301 301 301 300 300 300 300 300 300 300 297 296 295 296 299 304 306 307 305 306 304 302 302 301 303 303 302 302 303 312 311 312 313 315 316 314 315 314 312 314
301 300 301 300 301 301 301 300 300 300 300 299 299 299 300 299 299 297 296 296 298 303 307 305 305 305 306 304 306 307 306 304 304 303 302 306 310 312 311 315 312 315 317 318 318 315 315
300 300 300 300 300 299 299 299 300 299 299 299 299 299 299 299 299 298 296 296 302 307 302 306 306 305 304 305 307 306 308 306 306 306 306 306 307 308 308 312 314 315 318 317 317 317 314
299 300 299 299 299 299 298 299 299 298 299 298 298 298 298 299 299 297 297 297 300 301 298 299 300 304 304 302 302 304 308 307 308 306 305 306 308 309 309 311 311 314 316 317 315 314 315
298 298 299 299 298 298 298 298 299 299 298 298 297 297 298 298 297 297 296 297 297 296 299 299 300 300 301 302 303 303 304 308 309 310 306 306 309 308 308 309 311 313 314 314 315 314 314
298 297 297 297 297 297 297 297 298 298 297 297 297 297 298 298 296 297 296 297 297 297 301 301 302 302 302 303 303 304 307 308 310 313 308 306 307 307 307 308 310 311 312 313 313 313 314
297 296 296 296 296 297 297 297 297 297 297 297 297 297 297 297 296 296 296 296 296 296 303 303 305 305 304 306 306 304 304 308 305 314 311 309 308 307 308 308 308 309 309 310 310 313 313
296 296 296 296 296 297 297 296 297 297 296 297 296 297 297 297 296 295 295 295 296 299 301 301 305 306 305 305 305 307 305 306 306 312 312 313 313 309 308 308 308 308 309 310 317 317 319
296 296 296 296 297 297 296 296 296 296 296 296 297 297 297 296 295 295 295 295 298 301 301 302 306 306 307 306 305 305 305 306 305 307 308 311 308 311 310 316 308 316 318 319 319 319 318
295 295 295 295 296 295 296 296 296 296 296 296 296 295 296 295 295 295 295 296 300 300 300 303 305 305 307 308 307 306 305 306 308 309 308 307 307 314 317 318 317 315 316 319 316 319 314
295 295 295 295 295 296 296 296 296 296 296 296 295 293 294 295 296 295 295 298 298 297 300 304 304 306 309 309 310 307 306 306 305 305 307 308 308 313 315 317 319 315 316 317 315 319 320
295 295 294 294 296 296 296 296 296 296 296 296 293 294 294 295 296 295 295 296 297 301 301 302 303 309 311 306 307 308 308 307 306 305 307 307 307 312 314 315 315 317 317 314 317 317 318
295 294 294 294 295 295 295 295 295 296 296 295 294 293 293 296 296 296 296 297 296 297 297 302 306 308 311 308 308 312 313 312 311 306 306 308 315 312 314 314 315 315 316 318 318 321 321
294 293 294 294 294 295 295 295 295 296 295 294 294 293 295 296 295 296 297 295 296 296 299 304 303 302 309 309 308 314 314 313 310 311 310 313 315 315 313 313 317 316 317 317 317 318 319
294 293 293 294 294 295 295 295 295 296 295 294 291 291 293 295 296 298 298 297 297 296 297 300 303 304 307 307 310 313 312 310 309 311 312 312 315 317 316 314 314 315 317 316 317 318 318
295 293 293 295 294 294 294 295 295 296 295 294 292 292 293 296 295 296 297 297 297 297 297 299 300 302 305 309 311 313 311 309 310 310 309 311 313 321 318 315 312 315 317 319 318 317 317
295 292 292 294 293 294 294 294 294 295 295 294 291 291 291 294 296 296 297 296 298 299 299 301 305 304 307 308 310 310 311 308 309 311 313 313 311 311 315 314 314 313 312 315 317 317 315
294 293 293 293 293 293 293 294 293 295 295 294 292 289 293 292 294 295 296 297 298 299 304 305 306 306 308 309 309 309 308 309 308 308 310 310 312 311 310 311 313 312 311 311 314 315 316
292 293 293 292 292 293 293 294 293 295 296 294 294 293 293 294 294 294 296 297 297 298 302 305 303 303 306 307 308 308 306 308 308 308 308 309 312 310 308 309 308 309 308 309 310 311 312
293 293 292 292 293 293 294 293 293 295 296 295 293 293 294 293 294 294 296 295 296 297 299 301 301 303 305 306 305 305 305 305 305 308 307 309 309 307 308 309 307 305 307 305 306 307 314
293 292 293 292 293 293 295 293 295 295 296 296 293 293 294 293 293 294 294 295 296 296 299 300 302 303 304 301 303 303 305 305 306 307 307 309 308 309 308 309 306 305 306 306 308 309 313
292 292 292 292 293 295 293 293 294 295 295 296 294 293 295 293 294 294 295 295 295 298 299 300 302 300 300 302 304 304 305 304 305 307 306 307 308 309 308 307 306 305 310 309 309 308 312
292 292 292 292 293 294 292 292 294 294 295 297 295 295 294 294 293 294 295 296 298 299 298 300 300 298 300 302 304 306 306 306 306 307 306 306 306 308 308 306 306 306 308 310 311 306 309
292 292 292 292 293 293 291 293 294 294 294 297 295 295 293 295 293 293 296 296 296 296 296 298 298 299 299 302 306 306 306 304 305 306 307 308 307 307 306 306 306 308 309 309 308 309 307
291 292 292 292 293 294 291 291 293 293 294 295 297 296 294 294 293 292 293 294 294 295 296 297 298 297 300 303 304 305 305 305 306 306 308 307 308 307 307 308 308 307 309 311 309 306 305
290 292 292 293 294 293 293 292 292 293 294 295 296 296 295 294 294 293 293 294 294 294 296 295 297 297 300 299 301 301 303 303 303 307 306 309 308 308 309 310 304 303 302 300 301 301 301

GFSGBSN_925_thetae_096.txt.gz
Theta_e
305 305 303 303 303 303 302 303 303 302 302 301 301 301 302 302 302 302 301 301 297 295 297 302 303 304 304 305 305 302 302 301 302 310 310 311 312 312 315 317 318 318 318 317 316 316 316
304 303 303 302 301 302 302 302 302 301 301 301 301 301 301 301 301 301 301 297 294 295 297 300 304 305 305 305 303 302 302 302 304 312 310 309 311 313 314 316 317 317 317 317 316 316 316
304 304 304 302 301 301 301 301 301 301 301 300 300 300 300 300 301 300 299 295 295 295 298 303 306 307 306 305 302 302 302 302 304 306 313 312 310 311 312 313 314 315 316 316 317 317 318
303 302 301 301 301 301 300 301 300 301 300 299 300 299 299 299 299 299 297 295 295 297 302 306 306 307 307 305 304 305 304 304 303 302 304 305 310 312 313 313 315 315 316 318 318 317 317
301 301 301 300 299 300 300 299 300 300 299 299 299 299 299 298 297 296 295 295 295 301 305 305 307 307 306 305 306 308 309 309 308 305 304 303 305 314 314 315 317 318 320 321 320 319 318
301 301 300 300 299 299 299 299 299 298 299 299 298 298 298 298 297 297 295 296 298 303 303 305 306 306 305 304 306 308 305 309 310 308 306 305 309 313 316 316 318 318 318 318 319 320 319
301 300 300 299 299 299 299 299 299 299 299 298 298 298 298 298 298 296 297 299 299 302 299 298 299 300 300 300 300 302 302 308 310 309 305 307 308 311 312 314 315 315 316 318 318 318 318
299 299 299 298 298 298 298 298 299 298 298 298 298 298 298 298 296 296 297 299 298 297 299 299 299 300 299 300 301 302 302 306 311 311 305 307 307 309 310 311 312 313 316 316 316 318 318
298 298 297 297 297 297 297 298 298 298 298 297 297 297 298 297 295 297 297 298 297 298 300 299 300 303 305 304 304 304 303 304 309 312 307 308 308 308 310 310 312 314 314 314 315 316 316
297 296 296 296 296 297 297 297 297 297 297 297 297 297 297 295 297 296 297 296 297 298 302 300 304 308 307 306 308 306 304 305 308 311 311 308 307 309 310 311 312 313 312 312 313 314 317
296 296 296 296 296 296 297 297 297 296 297 297 297 297 297 297 297 297 296 296 297 299 300 300 306 307 306 308 308 309 306 306 309 311 314 312 309 309 309 309 309 310 310 310 311 312 314
296 297 296 296 296 296 296 297 296 296 297 297 296 296 297 297 296 297 296 297 299 303 298 300 303 305 303 306 307 308 307 306 308 311 314 313 312 310 310 310 310 310 310 312 315 317 322
296 296 296 295 295 295 296 296 296 297 297 296 295 294 295 296 298 297 297 299 300 298 298 300 302 302 303 308 309 308 308 308 309 313 314 312 311 314 312 314 311 313 316 320 321 322 319
295 295 295 294 295 295 296 296 296 296 296 296 295 293 295 296 296 297 298 299 296 295 297 300 300 302 310 309 312 309 308 308 309 309 310 310 310 316 316 313 314 314 315 318 315 316 316
295 296 294 294 295 295 295 295 296 296 296 296 294 296 296 297 297 298 301 298 296 296 297 297 299 305 305 303 311 309 306 307 308 309 310 310 309 310 316 316 315 317 318 316 316 318 319
295 295 294 294 295 294 296 295 295 296 295 295 296 296 297 297 297 298 300 298 298 298 298 298 302 303 304 305 310 314 309 306 307 308 309 309 313 310 315 316 316 317 316 318 318 322 321
295 294 294 294 294 294 295 295 295 295 295 294 297 298 296 297 297 299 301 299 299 298 298 298 302 303 304 306 309 315 317 312 312 309 309 310 312 314 315 314 317 317 318 317 318 320 320
296 293 293 293 293 294 295 294 293 295 295 295 297 299 296 298 301 299 300 298 298 299 299 298 302 302 304 306 310 315 316 313 311 312 312 315 314 314 314 315 314 314 315 316 317 320 319
294 294 293 294 295 293 294 294 293 295 295 296 298 297 296 299 300 299 299 299 299 299 300 298 299 301 303 307 311 311 314 310 311 312 312 313 316 319 319 317 315 316 317 318 319 318 320
294 295 292 294 294 293 293 294 293 295 295 296 298 300 298 298 298 298 298 299 300 299 303 303 302 307 308 310 309 312 312 310 309 311 313 312 313 315 317 317 316 318 317 317 317 319 317
295 294 292 294 293 293 292 293 293 294 295 296 297 297 296 300 299 298 297 299 299 301 301 305 306 305 307 308 308 310 309 309 307 309 311 313 312 312 313 312 312 311 310 311 312 313 315
295 294 292 293 292 293 292 292 293 295 295 296 299 298 296 297 297 298 297 299 298 299 302 303 305 306 307 307 307 309 308 308 309 308 309 310 312 309 311 309 308 308 307 307 309 310 311
295 293 292 293 292 292 293 294 293 294 295 296 295 295 297 297 297 298 297 296 296 298 300 302 304 305 307 305 304 305 306 307 307 309 310 309 308 307 311 308 306 307 308 307 309 311 311
293 294 293 293 293 293 293 294 293 293 295 295 295 296 297 298 297 297 296 296 297 297 300 302 303 304 304 303 306 306 307 307 307 309 308 307 306 307 308 306 305 308 308 309 310 312 312
291 292 293 293 292 293 294 295 293 294 296 296 295 295 297 299 297 296 297 297 299 300 300 301 302 301 303 305 306 304 306 307 308 308 308 309 307 307 307 306 306 310 310 310 310 311 311
293 292 292 292 292 294 294 292 291 294 295 296 295 295 295 299 298 296 297 298 299 300 299 300 301 301 303 306 306 307 306 306 307 307 308 308 308 307 308 305 307 311 310 310 310 311 307
293 292 291 292 292 293 294 292 291 293 294 295 296 295 294 299 298 297 298 298 298 297 298 299 300 302 303 307 307 307 307 306 306 306 308 309 309 309 308 308 308 309 310 309 311 313 307
292 293 293 292 293 293 293 292 292 293 294 295 296 295 295 297 298 297 297 297 297 298 299 299 302 301 303 305 305 306 307 307 307 308 309 309 310 310 309 309 310 303 308 310 305 304 303
291 292 291 292 292 293 294 292 292 293 293 295 296 294 295 295 297 296 296 296 296 297 298 299 300 300 302 303 303 302 305 305 305 308 307 310 307 309 308 307 302 299 300 297 298 298 300

GFSGBSN_925_thetae_099.txt.gz
Theta_e
307 306 305 304 303 303 303 303 302 301 301 301 301 301 301 302 302 302 301 301 298 295 297 300 303 305 306 306 306 305 305 305 304 303 308 313 315 314 314 316 319 319 320 320 321 320 320
306 305 304 303 303 303 303 303 302 301 301 301 301 301 301 301 301 300 299 293 293 293 295 296 301 306 308 306 305 304 304 304 304 305 305 310 312 315 314 315 318 320 320 321 321 321 320
305 304 304 303 302 303 302 301 301 301 301 300 300 300 300 300 299 295 293 293 292 294 295 297 302 307 308 307 304 304 304 304 304 304 307 311 311 313 315 316 316 317 320 321 321 321 321
305 304 304 302 302 301 300 300 299 300 300 300 300 299 299 298 294 294 293 293 294 295 296 301 306 308 309 305 304 305 305 305 305 305 305 307 312 313 313 315 316 316 318 321 321 320 320
303 302 302 302 301 300 299 299 300 299 299 300 299 299 299 296 295 295 294 295 298 298 301 305 307 308 310 305 306 306 308 308 309 309 306 305 307 312 314 315 317 317 319 319 319 320 320
302 302 302 301 300 299 299 299 299 298 300 299 298 299 298 298 295 294 296 299 299 299 304 304 306 308 308 307 304 306 307 308 311 312 311 306 306 307 311 317 319 319 319 320 321 321 322
302 302 301 300 299 299 299 299 300 299 298 298 298 298 298 297 295 295 299 301 302 304 303 301 302 305 303 301 301 302 301 302 306 311 312 308 306 307 310 315 316 317 318 321 321 321 322
302 301 300 300 299 298 298 298 298 298 298 298 298 298 298 296 294 297 299 302 299 298 300 301 301 301 301 301 303 306 306 304 303 305 312 309 306 307 310 313 315 317 319 322 321 319 320
301 301 300 299 298 298 298 298 298 298 297 297 297 297 298 293 297 299 299 298 298 299 301 300 301 303 307 308 308 308 307 305 303 306 308 311 307 307 309 311 313 317 319 318 318 316 318
299 299 298 298 297 298 297 297 297 297 296 296 297 298 297 294 299 299 299 298 298 299 301 302 303 307 308 307 309 306 308 305 304 306 311 312 308 309 309 311 312 314 315 315 314 317 321
298 297 297 297 297 297 296 297 297 296 296 297 297 297 294 297 299 300 299 298 298 300 303 301 305 307 306 303 304 306 308 307 304 306 309 313 308 310 310 311 312 313 313 314 315 316 316
297 297 297 297 298 297 296 297 295 295 295 296 297 295 294 298 299 299 299 300 301 305 303 299 302 301 301 302 307 309 310 309 306 305 309 311 311 311 310 310 311 312 311 312 312 312 315
297 298 297 296 296 296 296 296 295 294 295 296 296 294 297 298 301 299 300 302 303 300 298 297 299 300 300 308 307 311 311 311 306 305 310 315 317 312 310 311 311 311 312 315 316 317 318
297 297 297 295 295 296 296 295 294 294 294 295 295 297 298 299 299 300 301 304 301 299 298 299 299 300 304 307 308 310 311 309 307 309 314 318 319 312 313 312 312 312 312 321 321 323 320
296 296 295 295 295 296 294 294 294 293 295 295 297 299 299 300 300 300 303 302 299 299 299 299 299 301 306 305 306 310 313 309 307 309 316 318 312 313 313 312 311 313 315 316 321 319 320
296 296 295 295 295 296 296 294 294 294 295 295 299 299 300 300 300 301 305 301 301 300 300 300 301 304 305 304 308 310 308 308 308 310 311 312 315 311 313 315 313 314 314 318 319 319 316
297 296 295 294 295 294 295 294 293 294 295 295 301 302 299 300 301 303 305 302 302 300 300 300 300 300 303 306 306 310 316 308 310 309 310 310 314 311 313 315 315 316 317 316 316 317 323
295 295 293 294 294 294 296 294 292 293 295 298 301 304 299 301 306 303 304 301 301 301 301 301 300 304 304 306 307 311 317 316 313 313 309 311 313 314 313 313 315 314 317 315 319 319 318
296 295 293 294 294 294 295 294 292 294 295 300 303 301 299 301 304 303 302 303 302 303 304 305 305 304 304 308 311 311 310 312 312 314 314 315 315 315 316 315 317 317 318 316 318 319 321
294 295 293 294 296 292 295 293 293 294 295 298 302 304 302 301 301 302 302 303 303 303 304 305 308 307 309 309 307 311 310 311 311 312 314 315 316 313 316 316 315 319 316 316 317 318 318
294 295 294 293 295 292 293 293 293 293 295 298 302 302 300 304 303 301 301 302 302 303 303 304 306 306 307 309 307 307 308 310 310 311 311 314 319 318 316 314 315 316 317 317 318 315 316
294 296 294 292 294 293 293 292 292 294 295 299 300 302 300 301 300 301 301 302 301 301 303 304 305 306 307 307 306 307 306 308 311 310 310 311 312 312 312 313 312 311 310 309 310 311 312
295 295 294 292 294 293 292 293 293 293 296 298 298 298 299 300 300 300 301 299 299 301 302 303 304 305 306 305 305 306 307 308 309 309 310 309 310 311 311 308 308 311 309 309 311 312 313
295 295 293 292 293 293 293 294 293 292 295 298 297 298 298 302 300 299 298 298 299 299 302 303 304 304 304 304 307 307 309 308 308 309 309 309 307 309 309 308 310 310 311 310 313 313 312
293 294 294 293 293 293 293 294 294 293 294 298 298 298 299 300 300 299 298 299 300 301 302 302 302 302 304 307 308 307 308 309 307 308 308 309 309 308 308 310 310 311 311 311 312 313 310
292 293 292 294 293 293 293 294 294 294 295 297 297 297 299 301 301 298 300 300 300 300 301 302 302 303 305 307 308 307 308 308 307 307 308 308 309 310 309 307 311 314 310 310 311 315 309
293 293 293 293 293 293 294 294 292 292 294 296 297 296 298 300 300 299 300 300 300 299 300 301 302 304 305 308 309 308 309 306 309 308 308 309 310 311 309 309 313 306 307 309 313 311 306
293 293 293 293 292 293 293 294 293 292 294 296 297 296 297 299 300 299 300 300 300 300 301 301 303 304 304 307 306 306 308 307 309 308 309 311 312 312 312 310 313 301 308 309 303 302 302
293 293 293 293 292 293 293 293 293 293 294 294 297 295 295 297 299 298 299 299 299 299 301 300 301 302 302 304 304 304 307 307 307 313 307 311 309 309 308 307 301 299 299 297 298 298 299

GFSGBSN_925_thetae_102.txt.gz
Theta_e
309 308 307 306 305 304 304 304 302 301 301 302 301 302 301 301 297 296 298 296 294 293 293 298 303 304 306 305 307 306 306 306 305 305 305 305 309 314 316 314 314 317 321 321 322 321 321
308 307 306 305 304 303 303 303 301 301 302 300 301 301 300 297 295 294 294 293 293 293 294 295 299 303 306 306 306 306 305 306 305 305 306 306 306 310 313 316 315 315 317 320 321 321 322
308 306 305 304 303 303 303 301 301 301 300 300 301 300 295 292 292 293 293 294 295 297 298 296 297 305 305 306 305 306 306 306 305 305 306 306 307 309 311 312 314 316 316 317 321 321 321
306 305 305 304 303 303 301 300 299 300 299 300 300 298 295 293 293 293 293 295 298 299 299 298 301 306 307 307 308 307 306 305 306 306 305 305 305 307 311 311 312 315 317 318 318 320 322
306 305 305 304 303 302 300 299 300 299 300 300 299 299 296 294 293 293 295 299 301 301 299 303 307 308 310 309 308 307 306 308 308 307 307 306 306 307 309 313 313 314 318 318 318 319 321
305 304 304 304 303 301 300 300 300 298 299 298 299 299 295 293 293 296 299 302 302 302 303 304 307 307 309 310 308 303 303 303 309 309 310 311 309 307 308 314 316 314 316 317 319 319 320
304 303 303 303 301 300 300 300 300 299 298 298 298 298 293 293 295 298 300 301 301 303 300 301 302 303 303 302 301 302 302 303 303 302 304 309 312 310 306 308 311 314 315 317 318 321 321
302 302 302 302 300 300 299 300 299 298 298 297 298 296 293 293 298 300 302 300 299 299 301 301 301 301 301 301 302 304 305 307 307 304 302 305 311 311 306 305 307 311 316 318 320 320 322
302 301 302 301 300 299 299 299 298 297 296 296 296 294 293 294 298 302 302 300 299 300 300 301 302 304 308 308 308 306 308 308 309 309 305 303 307 312 308 306 306 310 313 319 320 322 320
301 301 301 300 299 299 299 298 297 295 295 297 295 294 293 297 300 302 301 300 300 300 303 303 306 308 307 304 302 304 306 306 308 309 306 303 304 309 309 306 307 311 313 318 319 321 323
301 300 300 299 298 299 298 297 297 295 296 296 294 293 293 297 301 302 300 301 301 302 307 301 301 303 302 300 301 302 306 307 311 307 304 303 305 310 312 306 307 311 314 317 316 319 319
300 299 299 298 298 298 297 297 295 295 296 295 295 294 295 300 302 301 301 302 303 307 304 300 300 300 301 301 304 306 309 309 310 306 304 303 307 313 313 310 309 312 316 316 316 316 324
299 298 298 297 298 298 297 297 295 294 295 295 295 295 299 300 302 301 303 304 307 304 301 300 301 302 302 304 308 306 308 312 313 308 304 306 308 311 311 311 311 313 316 317 320 323 320
298 298 298 297 297 296 297 297 295 293 293 295 296 297 301 301 301 302 303 307 301 301 301 301 302 302 304 308 305 306 309 314 310 305 306 307 321 316 314 311 312 312 314 319 315 316 315
298 299 298 297 296 296 297 296 294 293 294 295 298 302 302 302 302 302 307 304 302 302 301 301 302 303 304 304 306 309 311 314 306 305 308 319 321 314 312 311 313 312 313 315 327 324 328
298 298 297 296 296 297 297 297 294 293 294 295 301 302 302 301 302 304 306 303 302 302 302 302 304 303 306 307 308 309 313 309 307 309 312 315 320 314 314 312 312 313 313 319 322 330 331
297 297 296 296 296 296 296 296 293 293 294 296 302 304 302 302 304 305 308 303 303 303 303 303 304 306 307 308 308 310 311 315 314 313 313 313 316 314 316 319 314 314 317 319 321 321 326
297 297 296 295 296 296 296 296 292 293 295 298 303 307 301 303 308 307 305 303 304 304 305 306 306 306 308 308 309 310 310 313 311 315 315 312 316 314 312 317 316 315 317 317 324 317 323
297 297 295 295 296 295 296 295 292 293 295 301 305 305 302 303 306 304 303 304 304 304 304 306 307 308 308 308 309 311 309 307 311 315 316 316 315 320 315 314 317 317 317 318 319 321 322
296 296 295 294 295 295 295 295 292 293 295 299 304 307 304 303 304 303 303 304 304 304 304 305 306 308 309 310 306 309 309 309 311 313 314 317 317 318 318 316 319 321 320 320 319 322 320
296 295 294 294 296 295 295 295 293 293 295 299 304 306 302 306 304 302 303 303 303 303 303 304 305 305 306 310 306 307 307 310 309 311 312 314 318 317 317 317 316 319 320 320 317 315 321
295 295 294 294 295 294 294 294 292 293 296 301 300 305 302 302 302 302 301 304 302 301 302 304 304 305 305 305 305 306 307 309 310 311 310 311 317 313 317 317 316 314 312 312 312 314 316
295 294 295 294 294 295 294 293 291 293 296 299 299 300 301 303 302 301 302 300 300 300 302 303 303 305 305 303 305 306 308 309 310 312 311 311 312 315 311 310 311 313 311 314 313 312 315
295 295 295 294 294 294 293 293 293 292 296 300 298 299 300 304 301 300 299 299 300 301 301 302 303 303 303 304 307 309 308 309 308 308 308 311 311 312 309 309 317 313 313 313 312 311 310
294 296 295 294 293 293 294 293 294 292 293 298 299 299 301 302 302 301 300 300 301 301 302 302 303 303 304 306 308 310 309 311 308 307 308 308 311 313 315 313 313 313 311 310 315 311 309
294 295 295 294 293 293 293 293 295 293 292 296 299 299 300 301 303 300 300 302 301 301 301 301 303 303 305 307 309 310 308 307 308 308 308 308 311 315 314 312 317 309 306 307 309 311 306
294 294 294 294 293 293 293 293 294 293 295 297 299 298 299 301 301 301 301 301 301 301 301 302 301 304 304 307 309 310 313 307 310 309 310 312 313 314 314 313 311 303 305 306 313 307 304
292 293 294 294 293 293 294 293 293 292 294 296 298 298 298 299 300 300 300 301 301 300 302 301 303 304 304 307 305 306 307 307 309 309 309 309 312 311 312 313 312 301 305 306 302 301 302
292 292 293 293 293 293 293 293 294 293 294 294 297 296 296 297 299 298 299 299 299 300 301 301 302 303 303 304 304 303 306 309 307 312 307 311 308 307 306 305 301 299 299 299 299 298 300

GFSGBSN_925_thetae_105.txt.gz
Theta_e
312 310 309 308 307 306 304 304 303 301 301 301 299 301 301 301 301 298 293 293 294 294 295 296 298 303 302 306 308 302 304 306 306 305 304 303 302 303 307 312 312 310 309 311 314 317 318
310 309 308 307 306 305 304 304 302 301 301 299 300 300 299 297 294 293 293 294 295 295 298 299 299 303 305 304 302 304 306 307 307 306 306 305 304 303 303 305 309 313 313 311 312 315 318
309 308 307 306 305 304 304 303 302 301 300 298 301 299 296 294 293 293 294 295 297 299 300 300 300 304 305 303 302 304 306 306 306 306 304 304 305 303 304 305 307 309 310 312 314 313 313
309 308 306 304 302 302 304 302 300 300 299 299 300 299 294 293 293 294 296 299 301 302 302 300 300 305 304 303 306 307 307 307 306 306 306 305 305 304 303 304 305 308 309 309 312 314 313
308 307 306 304 302 302 303 301 300 300 297 299 299 298 293 293 294 297 300 301 301 300 301 301 303 306 308 308 308 307 302 302 302 303 307 307 306 304 303 303 303 306 309 309 311 314 314
308 307 305 305 303 302 302 301 301 299 298 297 298 295 293 293 295 299 301 300 299 303 301 304 304 306 307 305 301 301 301 302 302 303 303 305 306 306 304 303 303 305 310 310 310 312 315
307 306 306 305 303 302 302 301 301 299 298 297 295 293 293 293 297 301 301 300 296 299 298 298 298 299 299 300 302 302 302 302 302 302 302 301 300 304 310 304 304 304 308 311 310 312 319
306 305 305 304 303 302 301 300 300 299 297 296 294 293 293 293 298 302 301 299 299 299 299 300 300 300 300 301 304 303 303 304 306 305 307 307 301 300 303 311 307 304 306 308 309 314 321
306 304 302 303 302 301 300 300 300 298 296 294 294 293 293 295 299 302 302 300 300 300 299 301 302 303 308 306 304 303 302 305 304 307 306 308 309 304 302 307 312 308 304 305 306 319 321
303 301 301 302 301 300 300 299 299 297 294 294 294 293 293 297 301 302 301 301 301 301 300 302 301 305 304 303 301 302 302 305 306 306 307 309 308 309 306 308 312 306 304 305 306 320 324
301 300 302 301 300 300 299 299 298 296 294 295 294 294 293 298 299 303 301 301 303 303 304 301 301 302 303 302 303 305 305 305 309 309 309 311 307 305 304 304 310 311 306 306 308 319 320
301 301 299 301 299 298 299 298 297 294 294 294 294 294 296 300 300 302 301 303 304 305 303 301 302 302 303 304 305 305 305 306 307 309 309 310 305 303 309 311 311 311 316 319 318 318 317
300 300 301 300 298 298 298 297 297 294 294 294 295 295 297 299 301 301 302 303 305 300 302 301 301 302 303 305 306 306 308 310 312 311 310 309 304 304 309 310 312 314 314 317 322 319 318
300 300 300 299 298 298 297 298 297 294 293 293 295 297 301 301 302 301 303 304 303 302 301 301 302 303 304 306 307 307 309 312 311 310 309 304 309 309 309 310 313 314 314 316 319 320 317
300 299 299 298 298 298 297 297 297 293 292 294 296 300 301 302 299 302 303 299 301 301 301 302 303 304 305 306 307 308 308 311 312 310 308 312 314 310 313 314 313 313 315 316 321 323 318
299 299 299 298 297 296 297 297 296 293 293 295 297 303 303 300 302 304 302 304 302 302 303 303 305 304 305 306 307 308 308 307 314 311 311 312 312 315 314 312 311 310 313 313 318 324 327
298 299 298 297 296 297 297 297 296 292 294 296 299 302 302 299 304 303 300 302 303 303 304 306 305 307 306 308 306 308 308 307 308 310 310 313 313 317 315 318 313 313 318 319 320 321 324
299 299 297 297 296 297 296 297 294 292 294 296 301 302 302 303 301 299 300 303 303 303 304 305 306 307 307 308 307 306 307 308 307 310 315 314 315 316 315 315 314 316 317 319 321 326 324
298 297 297 296 296 296 297 295 294 292 295 298 301 301 302 303 298 297 303 304 303 303 304 305 306 306 307 308 305 306 305 306 308 311 313 314 316 318 320 316 316 318 317 317 318 320 324
297 297 296 295 296 295 296 295 293 292 295 297 301 300 302 301 301 303 303 304 304 303 303 304 305 305 306 306 306 305 305 307 309 310 313 314 317 317 319 321 318 320 320 320 320 322 322
297 296 296 296 294 295 296 294 292 292 295 298 298 298 301 299 300 302 302 303 303 303 302 303 304 304 304 309 303 303 305 307 309 311 310 311 315 315 317 317 316 318 318 318 319 321 323
296 296 295 295 295 295 296 293 293 292 295 298 293 301 300 298 301 301 302 303 302 301 301 303 302 303 303 304 303 303 304 307 311 311 310 311 315 314 319 313 315 316 313 313 315 319 319
296 295 294 294 295 295 295 293 292 292 296 300 300 299 298 301 301 300 300 300 300 300 301 301 300 303 303 303 302 303 304 306 309 311 310 312 312 314 317 313 315 317 313 312 311 311 313
296 296 295 294 295 295 295 292 292 293 296 298 299 299 296 298 300 300 300 299 300 300 301 302 302 302 302 302 303 305 308 310 310 310 309 309 310 313 311 313 319 310 309 310 308 307 308
295 295 295 295 295 294 292 292 293 292 296 298 300 299 298 296 300 301 300 301 302 301 300 301 301 301 300 303 306 309 309 309 309 309 308 308 311 313 315 316 315 310 305 306 311 307 305
295 295 295 295 293 293 293 293 294 292 293 297 299 299 298 295 300 302 299 300 299 298 299 301 300 300 302 303 307 311 311 308 311 311 308 310 311 313 314 315 315 306 302 302 306 305 304
294 296 295 294 293 293 292 292 294 294 293 297 298 298 299 294 298 300 299 300 299 299 299 300 300 302 301 300 306 308 310 308 310 311 310 308 308 310 311 313 307 301 301 302 309 304 303
294 294 294 293 293 293 292 293 293 293 294 297 298 297 298 298 297 300 300 300 299 298 297 298 298 299 298 302 303 303 306 306 309 309 309 308 310 307 307 308 306 299 301 302 302 300 301
293 293 294 293 293 292 293 293 292 292 293 296 297 296 295 295 295 297 296 296 299 299 299 298 299 302 301 298 300 301 303 303 307 311 307 307 307 304 304 303 300 298 299 299 299 299 299

GFSGBSN_925_thetae_108.txt.gz
Theta_e
311 311 312 310 308 307 306 303 301 301 300 299 298 298 298 295 295 295 293 293 293 294 296 297 303 304 298 303 303 301 303 305 306 305 307 304 302 301 303 312 310 306 307 306 307 307 310
310 310 311 310 308 307 304 304 301 301 299 299 297 297 296 293 293 293 293 294 296 299 300 300 304 304 303 299 301 302 303 306 307 306 305 303 302 302 301 301 302 307 308 310 311 310 309
310 310 311 309 307 306 304 304 301 300 299 299 296 297 293 292 293 293 295 297 300 300 301 301 303 304 304 301 303 305 306 303 302 303 304 304 303 303 302 302 302 303 304 305 307 308 310
310 311 311 309 307 305 303 303 301 300 298 298 298 297 294 292 293 295 298 300 300 300 301 301 302 304 303 304 308 304 302 303 303 302 302 302 303 302 302 302 303 302 302 302 305 307 309
310 310 310 308 306 304 303 303 300 299 298 298 298 295 293 293 293 297 300 300 299 299 301 303 302 305 306 306 305 304 303 301 301 302 302 302 303 304 304 303 302 302 301 302 303 306 307
311 311 310 308 305 303 303 302 300 299 298 298 297 296 293 293 294 299 301 299 298 303 299 304 304 305 305 303 300 302 303 302 301 301 302 301 299 301 302 302 304 303 301 301 304 307 307
312 311 309 307 304 304 304 302 300 299 298 297 296 293 293 293 295 300 300 299 297 296 297 297 298 298 299 299 300 302 303 302 302 302 301 303 303 301 300 301 308 306 303 302 302 303 308
312 311 308 306 304 305 304 302 301 300 299 297 295 293 293 293 297 301 300 298 298 297 299 299 299 299 299 299 300 301 303 302 303 305 306 304 305 306 307 306 302 304 309 307 304 304 305
312 310 307 305 305 305 303 302 301 300 298 296 293 293 293 295 298 302 301 300 301 300 298 300 301 302 303 304 303 303 301 301 301 302 304 306 305 305 308 308 307 301 302 309 308 304 306
311 308 306 305 305 303 302 301 300 299 297 294 294 293 293 298 300 302 300 301 301 301 300 302 301 304 304 303 302 304 304 303 304 305 305 304 305 305 308 308 308 306 304 308 311 307 306
310 307 305 305 302 301 301 301 300 299 295 293 293 293 294 297 300 301 301 301 303 302 301 302 301 302 301 302 303 305 304 304 305 305 306 307 306 307 308 309 309 308 305 308 309 305 308
308 306 304 302 301 301 300 300 299 298 293 293 293 294 294 300 300 301 300 302 303 299 301 302 301 301 301 302 304 304 305 304 305 307 307 308 307 308 307 305 306 308 311 311 312 309 308
306 304 302 301 300 300 300 299 298 295 293 293 294 294 295 299 300 301 302 302 301 300 301 301 301 302 302 303 306 305 307 310 312 311 308 308 308 304 307 308 307 309 312 312 312 315 316
303 302 302 301 300 299 299 298 298 294 293 293 294 295 298 300 302 301 303 302 300 301 301 301 302 303 303 304 306 306 307 308 312 311 310 308 308 309 311 309 307 312 311 313 320 322 319
303 302 301 300 298 298 298 298 297 294 292 293 295 298 299 301 301 302 300 298 301 301 301 303 303 303 303 304 306 306 307 307 311 310 315 314 311 308 308 307 309 311 314 312 318 318 314
301 300 300 298 298 298 298 298 297 294 292 295 297 301 302 302 302 303 299 302 301 302 304 304 304 304 302 305 307 306 307 306 308 308 310 313 313 310 314 313 313 312 313 314 313 313 314
300 300 298 297 298 298 297 297 296 293 294 295 299 301 302 301 303 299 299 300 303 303 304 305 305 305 306 306 307 305 306 306 306 309 311 315 311 316 314 316 316 313 315 317 317 319 320
298 298 298 298 298 297 297 297 296 293 294 296 300 300 302 302 298 292 298 302 303 303 303 304 305 305 305 303 308 305 303 307 305 308 312 312 314 317 316 315 314 316 317 317 317 319 321
298 298 298 296 297 297 297 296 295 293 296 300 300 300 301 302 297 295 300 304 303 302 302 304 305 305 304 302 303 301 303 306 305 307 312 312 316 315 316 317 316 318 316 317 319 318 322
298 297 297 297 297 297 296 296 294 293 296 298 299 300 300 298 296 300 301 303 303 302 302 302 303 302 303 301 305 301 301 304 304 307 312 311 314 314 315 315 312 318 320 319 319 322 319
297 297 296 297 296 296 296 295 294 293 295 299 296 299 300 298 298 300 300 301 302 301 300 300 301 301 302 300 301 301 302 303 305 309 310 311 313 313 316 315 316 315 316 318 321 317 317
297 296 296 296 296 296 296 295 292 293 296 299 296 300 296 297 301 299 300 301 302 300 299 300 300 300 301 302 301 302 301 304 306 308 310 310 313 312 316 314 313 313 311 313 315 314 314
296 296 295 294 295 295 295 294 292 294 297 298 297 298 296 299 298 297 297 299 298 299 300 300 299 300 301 302 300 300 301 303 305 306 309 310 311 314 316 314 314 310 309 309 308 309 311
296 295 295 295 295 295 294 292 292 295 298 298 299 296 294 296 298 298 299 298 300 301 300 301 300 301 300 299 300 303 305 306 307 309 309 311 309 313 314 315 310 308 305 306 305 304 305
295 295 295 296 296 295 293 292 292 295 297 299 299 297 294 293 298 301 300 301 299 299 299 301 300 299 298 300 304 307 307 307 310 309 309 309 310 314 316 315 311 307 303 303 307 305 302
295 295 295 295 294 292 292 293 292 296 297 298 298 299 294 294 298 300 299 299 297 297 297 300 299 299 299 301 304 310 312 308 312 311 308 308 308 313 314 311 312 305 300 301 302 304 301
294 295 295 294 293 292 292 293 292 292 295 298 297 298 296 291 295 298 298 298 298 297 297 297 298 300 298 298 303 306 307 307 311 310 309 308 308 307 309 309 306 299 299 301 308 303 301
295 295 294 293 293 292 292 293 293 292 295 297 296 297 296 292 294 299 299 299 298 296 296 296 296 297 297 299 301 302 305 304 308 308 308 307 308 305 306 305 304 299 300 301 301 300 300
295 294 293 293 293 292 292 293 292 292 296 297 296 296 295 292 292 296 296 296 297 298 296 296 298 300 299 296 297 300 302 302 306 306 307 306 304 303 303 302 299 299 299 299 299 299 299

GFSGBSN_925_thetae_111.txt.gz
Theta_e
316 315 312 311 311 310 308 307 305 302 299 300 295 295 294 295 294 294 294 294 295 297 299 301 304 303 299 299 298 301 304 306 305 306 305 303 302 303 303 309 310 310 309 308 307 305 304
317 315 313 311 311 310 308 307 305 302 300 299 298 295 294 294 293 293 293 295 297 299 300 301 304 303 301 298 301 306 303 305 302 303 303 304 302 301 300 300 302 303 302 301 302 302 304
317 316 312 311 312 310 308 307 304 302 300 299 298 295 294 294 293 293 294 298 300 300 299 301 304 303 303 300 307 305 303 302 302 301 302 302 302 302 302 302 302 301 302 302 302 301 303
317 316 313 311 312 310 309 306 304 302 300 299 298 295 294 293 293 294 297 300 300 299 300 300 303 303 301 303 306 306 302 302 302 301 301 301 302 300 301 301 302 303 302 302 302 301 301
319 316 314 311 312 311 308 306 304 302 301 299 298 295 293 293 293 294 299 300 299 300 301 302 303 304 303 304 305 303 302 301 302 301 302 302 302 300 303 303 303 303 303 302 302 302 301
320 316 314 311 312 310 308 305 303 301 300 299 297 295 293 293 293 297 301 299 299 300 303 302 305 303 303 303 300 301 303 302 300 300 301 301 299 298 299 300 304 306 305 304 305 302 300
319 317 314 312 312 310 307 305 302 301 300 298 297 294 292 293 294 300 300 298 298 297 297 298 299 298 298 299 300 301 303 302 301 301 301 302 304 303 302 300 300 300 300 300 304 306 304
320 317 314 312 311 309 307 305 302 301 299 298 297 293 293 293 296 300 300 299 299 298 300 299 298 297 298 299 299 300 301 301 300 300 303 304 304 302 304 305 306 305 305 304 303 303 307
320 318 314 312 311 308 306 305 303 300 299 299 296 293 293 293 298 301 301 301 300 300 299 300 301 301 301 300 302 301 302 301 302 303 302 303 303 303 303 304 303 305 307 306 305 302 307
319 316 314 312 310 307 304 304 302 300 300 298 294 293 293 297 300 301 301 301 302 301 301 301 301 302 302 301 302 303 303 303 303 304 304 304 304 303 303 304 304 307 307 307 305 305 306
318 317 314 311 308 306 303 302 300 300 299 296 293 294 294 298 300 300 301 300 303 301 301 302 301 302 300 301 301 304 304 303 304 305 307 309 305 305 306 306 307 307 308 308 306 305 309
318 315 313 310 307 305 303 301 300 298 298 294 294 294 295 300 300 301 299 302 303 300 301 301 301 301 302 302 303 304 304 304 304 305 306 307 306 307 307 307 306 307 308 309 308 308 312
318 315 312 308 306 304 302 301 299 298 297 294 294 295 296 300 300 301 302 302 300 299 301 301 301 302 302 303 304 305 305 307 312 312 310 309 307 307 308 309 306 307 310 308 313 306 311
317 314 310 307 305 302 301 300 299 298 295 294 294 295 295 299 300 301 303 301 299 301 300 301 302 302 302 304 305 305 306 306 309 311 311 311 310 307 310 306 306 309 309 312 314 318 317
315 310 308 305 303 301 300 299 297 296 296 294 295 296 298 299 300 301 299 300 301 300 300 302 303 302 302 303 305 305 305 306 309 308 313 313 310 308 308 308 307 310 312 311 315 316 320
312 308 305 303 302 300 299 298 297 295 293 293 297 301 301 302 301 302 300 302 301 301 303 303 303 302 300 303 305 305 305 305 307 306 308 314 314 310 313 312 309 311 313 317 317 319 310
307 305 303 302 300 299 298 297 297 296 294 296 301 300 301 301 303 299 300 300 302 302 304 304 302 303 304 301 304 302 306 305 306 306 306 312 312 313 313 316 316 314 313 315 316 315 315
305 303 302 300 299 297 297 298 296 296 294 297 300 301 301 302 301 294 300 301 302 302 302 303 304 303 301 299 305 302 303 306 305 305 307 311 314 314 315 315 314 315 315 316 315 317 319
302 301 299 298 297 297 297 297 296 295 295 300 300 300 300 302 301 298 300 303 302 302 302 303 304 303 300 297 302 300 299 303 303 303 310 311 313 315 312 314 314 316 315 317 318 318 318
298 297 297 297 297 297 297 296 296 295 298 301 299 301 300 298 296 300 301 302 302 301 301 301 302 300 301 299 303 300 299 301 301 303 308 310 313 314 315 314 315 316 317 318 318 319 315
296 297 297 298 297 297 296 295 296 295 298 300 297 300 300 301 299 299 299 301 301 301 299 299 300 299 300 298 301 301 300 300 302 306 308 310 312 314 312 312 310 311 314 319 318 314 313
297 297 296 296 296 296 295 295 294 295 297 299 298 300 295 300 301 299 300 300 301 300 298 298 299 299 299 300 301 301 300 301 303 305 307 310 311 311 313 309 308 308 308 308 313 311 309
297 297 297 297 297 296 295 295 294 295 298 297 296 297 297 298 298 297 298 300 299 298 299 299 300 300 300 300 299 299 299 301 301 303 305 310 311 313 314 313 311 307 306 306 306 305 309
297 297 296 296 296 296 295 294 293 296 299 298 297 295 296 298 298 299 299 298 300 300 299 300 299 299 299 298 298 300 301 301 302 304 305 309 310 314 314 314 310 306 303 306 303 302 304
296 295 296 296 296 295 295 292 296 298 299 298 298 297 295 296 298 299 299 299 298 298 299 300 299 298 297 298 302 306 306 305 309 309 308 308 310 314 316 311 309 306 302 302 305 303 300
296 296 296 296 295 294 293 293 296 298 298 298 298 298 294 297 298 299 298 298 296 297 297 298 298 297 297 300 303 307 310 307 309 310 307 308 306 311 313 311 310 303 299 300 301 304 299
295 295 295 294 293 293 292 293 296 297 298 297 297 298 295 293 295 297 296 297 296 295 296 296 297 298 296 296 301 303 303 306 310 309 308 307 307 307 309 308 305 299 300 301 307 303 299
295 295 294 293 292 293 292 292 294 297 297 297 295 296 295 292 294 298 299 298 296 294 294 295 294 295 295 297 299 300 303 305 308 307 309 305 307 304 305 303 303 297 300 301 300 299 297
295 294 293 293 293 293 293 292 293 297 296 296 295 295 295 291 293 296 296 297 298 296 294 295 297 299 297 295 297 297 301 302 305 309 306 305 302 303 302 300 299 299 298 298 297 296 299

GFSGBSN_925_thetae_117.txt.gz
Theta_e
323 322 321 318 319 318 315 313 310 308 308 305 304 301 300 296 295 295 294 294 295 298 299 299 298 300 300 298 298 305 303 304 303 303 303 303 304 303 303 302 303 303 303 304 303 303 303
324 323 322 321 321 319 319 316 312 309 309 306 304 301 300 298 295 294 294 294 297 299 299 298 299 300 300 299 301 306 304 302 301 301 301 302 303 302 302 302 303 303 303 303 303 303 303
325 325 324 323 320 320 319 316 314 311 310 307 304 302 300 298 296 294 293 295 298 299 298 298 299 300 300 299 303 304 302 302 302 301 301 301 301 303 302 302 302 302 303 304 304 303 303
323 324 324 324 322 320 320 319 315 311 310 309 305 302 300 297 295 293 293 297 299 299 300 300 300 301 300 301 303 304 303 302 302 302 301 301 300 301 301 301 302 303 304 304 303 304 304
317 321 322 322 323 323 320 320 318 312 311 310 306 302 300 298 294 293 296 299 299 301 301 301 301 302 301 302 302 301 301 301 301 301 301 300 300 301 301 302 302 302 304 303 303 303 303
310 313 320 322 321 322 321 320 318 315 312 310 307 303 299 297 293 294 299 298 301 301 302 302 304 302 301 301 300 300 301 301 300 300 301 301 301 301 301 302 304 303 302 302 302 302 302
308 308 310 317 320 321 320 319 318 314 312 310 307 303 299 296 293 298 299 298 296 296 299 298 298 300 298 299 300 300 301 300 301 301 302 301 303 304 304 302 303 303 303 302 302 303 303
306 305 305 307 309 316 318 318 318 315 312 310 306 302 299 294 293 300 299 297 297 298 301 299 298 298 298 298 301 301 300 304 303 304 301 304 306 306 303 303 303 303 303 304 304 303 303
305 305 305 305 306 311 319 318 317 315 311 310 306 301 297 293 298 300 299 299 299 300 301 300 299 300 301 299 302 301 302 303 304 303 304 307 307 303 303 304 304 304 304 304 304 304 304
304 305 305 304 303 304 310 317 316 314 312 309 306 300 296 293 297 300 300 300 300 300 301 300 301 301 301 301 302 302 302 304 304 306 305 306 304 304 305 307 305 306 304 303 304 306 308
305 305 304 303 304 304 305 312 316 313 310 307 305 299 296 295 299 300 300 301 301 298 296 300 300 301 301 302 302 303 303 303 307 308 307 308 307 308 309 309 304 305 304 306 307 308 308
304 305 304 303 304 305 306 308 315 312 308 305 305 298 294 295 300 300 300 302 301 300 297 301 300 301 302 302 303 303 304 304 304 307 305 307 306 307 307 307 306 306 307 308 308 309 311
303 305 305 304 303 303 306 308 312 311 305 304 302 299 296 296 300 300 301 302 300 299 299 300 300 302 301 303 304 304 304 309 309 309 308 308 308 306 306 308 306 307 309 313 312 313 312
302 303 304 304 303 303 304 307 312 309 304 302 299 297 295 298 300 299 302 301 299 299 299 301 302 301 303 303 304 304 304 306 308 307 308 309 309 307 306 308 310 308 308 313 315 314 315
303 304 304 303 302 303 304 304 311 306 302 300 298 297 296 299 300 301 301 303 299 300 300 302 302 302 303 302 304 304 304 305 307 306 305 307 309 308 308 309 309 310 311 310 315 314 316
302 304 303 302 301 302 303 305 308 304 301 299 296 295 295 299 300 301 302 303 300 300 302 302 302 303 304 303 304 304 304 304 305 306 304 306 311 308 309 310 310 310 310 318 315 318 316
302 301 302 302 301 302 303 305 306 302 301 298 295 297 296 297 300 301 305 302 301 302 303 304 303 304 304 303 304 305 304 304 304 305 302 304 306 309 310 312 312 312 314 316 318 317 320
301 299 300 300 301 302 303 307 304 301 297 297 296 301 298 299 303 302 302 301 302 303 302 303 303 303 303 301 304 301 304 303 303 303 303 306 311 309 310 309 312 313 314 316 316 317 318
299 300 301 302 304 303 305 307 302 299 300 297 298 299 298 300 303 302 301 302 302 302 302 303 304 302 298 300 299 300 301 302 302 301 307 308 311 313 310 312 306 310 312 314 316 317 319
303 310 313 312 309 305 307 303 300 298 301 301 300 302 300 300 299 303 303 303 302 301 301 302 302 301 301 302 301 300 302 302 301 301 305 308 311 311 310 309 309 307 309 313 317 315 308
315 315 312 308 306 308 304 301 298 299 299 300 300 301 301 302 302 302 303 303 303 302 300 299 300 300 300 299 301 302 302 301 300 303 305 308 311 311 311 309 307 306 305 307 308 308 306
313 313 310 308 308 304 301 299 298 298 299 298 299 300 300 301 301 302 303 303 302 299 299 299 301 298 299 300 300 300 300 300 301 302 303 308 310 311 312 312 311 306 304 304 307 305 303
306 306 305 304 303 301 299 297 298 299 299 297 296 297 301 302 301 302 302 302 301 300 300 298 299 300 300 299 298 299 299 300 300 300 302 305 307 311 313 312 309 308 304 303 303 303 305
300 301 301 300 299 299 298 298 299 299 299 298 297 298 301 301 301 301 301 301 299 299 300 299 298 299 298 297 298 298 298 299 299 300 301 306 306 310 314 312 312 306 302 302 300 300 301
296 295 298 298 298 298 297 297 299 299 298 298 297 298 299 301 300 300 300 300 299 299 299 299 298 297 297 299 303 306 306 306 306 304 303 304 307 310 314 311 308 305 301 302 303 300 298
296 297 296 295 295 296 297 298 299 298 298 300 298 298 298 300 300 299 299 299 298 297 297 298 296 296 298 301 304 307 307 306 308 309 307 306 306 309 311 313 312 302 299 300 301 302 296
294 294 294 295 295 296 297 298 299 299 300 299 296 297 298 298 296 297 298 298 296 296 296 297 298 299 296 300 303 305 305 304 308 307 308 305 306 306 307 308 303 298 300 301 306 302 295
294 294 294 295 296 296 297 298 298 298 299 300 295 297 298 297 297 297 298 297 296 295 296 295 297 298 297 299 300 301 304 303 306 306 307 303 304 304 305 307 306 298 301 303 299 296 294
294 295 296 297 298 298 298 297 297 298 298 299 295 297 298 296 297 295 295 296 295 293 296 295 297 299 298 298 299 299 302 302 304 308 303 304 302 302 301 300 297 298 297 296 298 296 294

GFSGBSN_925_thetae_120.txt.gz
Theta_e
325 324 323 324 321 319 318 319 316 317 310 308 307 304 302 299 296 295 295 294 294 296 298 298 298 299 303 303 303 305 304 303 303 303 304 305 306 306 306 306 306 306 306 306 306 306 306
326 325 325 324 323 321 320 320 318 315 312 310 308 305 303 300 297 295 294 294 295 297 298 298 298 299 304 303 303 306 304 303 303 303 303 304 305 305 306 306 306 307 306 306 306 307 307
324 325 325 325 323 323 321 320 320 316 313 313 309 306 304 300 297 295 294 294 296 298 298 299 299 301 304 304 304 305 303 304 303 303 304 303 303 305 306 306 306 306 306 307 308 307 306
317 321 323 323 324 323 322 321 321 318 315 313 310 308 304 300 297 295 293 295 298 298 300 300 300 304 304 302 304 305 304 304 303 303 303 303 303 304 305 306 306 307 307 308 307 307 307
311 312 318 321 322 323 321 322 320 319 316 314 311 309 305 301 297 294 294 298 298 300 300 301 305 306 305 303 304 302 302 303 304 303 303 302 303 305 306 307 308 308 307 307 307 307 306
308 310 311 313 316 320 320 321 321 319 317 314 312 310 306 301 296 293 297 299 301 302 304 304 305 308 304 304 302 302 302 303 304 305 305 305 306 307 307 307 308 307 308 308 308 307 307
307 308 307 308 309 316 320 321 321 320 318 314 313 310 306 304 295 294 299 303 303 303 303 303 303 303 302 302 301 303 303 305 305 307 309 307 308 308 307 307 307 306 307 308 308 308 307
307 306 305 305 305 307 312 317 319 319 317 316 314 311 308 303 294 296 300 301 301 302 302 302 302 302 301 301 305 304 303 307 308 310 307 309 311 307 307 307 307 308 308 309 308 307 307
302 301 303 304 304 305 305 307 313 317 317 317 315 311 307 301 294 299 301 301 299 302 305 304 303 303 303 303 305 305 306 307 309 309 309 311 309 307 308 309 309 310 309 309 308 308 310
302 303 303 304 305 304 303 303 305 314 317 317 313 311 306 295 296 300 301 299 300 301 305 305 304 303 304 304 305 304 305 307 309 310 310 310 309 308 309 310 311 311 307 306 307 310 313
302 302 302 304 304 303 302 302 303 308 314 316 314 311 304 296 298 301 300 300 301 302 308 303 302 303 304 305 305 306 305 307 310 310 310 311 310 310 312 311 308 309 309 308 309 312 313
302 302 302 303 304 304 303 304 305 306 313 312 312 311 302 296 299 300 300 301 304 304 305 303 302 303 304 305 305 306 307 307 308 310 311 311 309 309 311 310 310 309 310 312 313 313 316
302 302 302 301 302 305 304 303 303 306 309 311 307 308 300 297 300 300 302 304 302 306 302 302 303 303 304 305 306 306 308 311 311 311 311 310 311 310 309 311 312 310 314 317 317 320 314
301 302 302 302 302 303 305 304 303 305 307 309 304 305 297 296 299 299 303 305 304 307 302 302 303 303 304 305 306 306 307 310 309 308 309 311 312 311 310 311 312 312 314 315 318 318 318
300 302 302 301 302 303 304 303 302 303 307 307 300 299 298 298 299 300 305 304 306 307 303 304 303 303 305 305 306 307 307 308 308 305 309 311 313 309 309 310 312 313 314 313 316 317 319
301 302 302 302 302 302 304 303 302 304 307 302 300 297 297 299 300 301 304 304 305 302 303 304 303 304 306 305 306 306 307 307 307 306 305 308 313 309 310 311 312 313 313 316 319 321 321
300 302 302 302 302 301 304 303 302 302 303 301 298 298 295 297 299 302 305 304 303 302 303 303 305 305 305 307 306 307 307 306 305 306 305 307 310 311 310 312 312 313 315 315 317 317 320
301 301 301 301 302 302 304 304 302 302 302 300 298 301 295 299 302 302 304 303 302 303 303 304 304 305 306 307 306 313 309 306 304 303 308 308 311 312 312 311 309 310 313 316 320 319 320
301 301 301 301 301 301 302 302 302 303 301 299 300 297 295 299 303 304 303 303 303 304 303 304 304 305 304 309 308 307 307 305 304 303 309 310 312 314 313 314 310 309 308 309 312 318 319
300 300 300 300 300 300 301 302 303 302 301 302 299 299 297 297 302 304 305 303 304 303 304 304 304 304 304 304 304 306 307 304 304 302 303 308 311 314 314 311 309 309 308 309 317 322 314
299 299 299 300 301 302 301 301 301 302 301 303 301 302 300 302 302 303 304 304 304 304 303 303 304 303 302 303 304 305 304 304 302 305 307 309 311 312 311 310 311 308 307 309 309 312 314
298 300 302 305 310 312 309 302 302 302 302 304 300 302 302 304 301 304 305 305 303 303 303 303 303 303 302 302 302 302 302 302 302 305 304 309 313 313 313 314 313 308 306 307 308 307 305
299 304 309 312 312 313 311 303 303 301 303 305 299 302 303 301 302 306 306 304 303 302 300 302 302 302 302 302 301 301 301 301 301 301 305 309 309 311 314 314 311 312 306 306 305 304 307
301 308 307 307 310 310 305 303 303 303 304 302 300 302 305 304 305 305 304 303 303 302 301 301 302 302 301 301 301 301 301 301 302 303 303 308 307 309 314 314 317 308 304 303 303 302 302
300 307 307 306 306 305 303 302 303 303 302 300 300 302 305 305 304 303 303 303 302 302 301 301 300 300 301 301 300 306 309 309 309 307 306 306 307 310 313 317 309 306 304 305 306 302 300
297 303 302 301 301 301 301 300 300 300 299 299 299 301 304 304 304 302 303 302 302 301 302 301 300 300 301 301 305 306 307 306 309 310 308 306 307 310 311 315 314 305 301 301 303 306 299
296 299 300 301 300 299 298 299 299 299 299 299 297 300 302 302 300 302 302 302 301 301 301 300 301 301 301 305 306 306 308 307 309 308 310 309 308 309 311 312 306 300 301 302 308 305 298
296 296 298 298 298 299 299 298 299 299 299 300 296 299 302 301 299 300 300 299 299 300 300 300 301 301 302 305 304 305 306 307 308 307 307 306 307 308 308 310 310 299 302 306 300 298 298
294 296 297 297 297 298 298 299 299 299 300 299 298 298 300 302 300 297 296 296 298 298 299 300 302 301 301 303 303 304 306 307 307 309 305 307 305 306 304 303 299 298 299 299 298 297 297

GFSGBSN_925_thetae_123.txt.gz
Theta_e
327 325 325 325 323 323 323 321 319 318 316 311 309 308 305 303 299 296 295 294 294 295 297 298 298 299 307 308 307 306 304 304 305 305 306 307 309 309 309 309 309 309 310 309 309 309 309
326 326 326 326 325 324 324 323 321 319 318 314 311 309 307 304 301 297 295 294 294 296 297 298 299 300 309 306 306 307 306 305 305 306 307 307 308 308 308 309 309 310 309 309 309 310 310
321 325 325 325 325 325 324 322 322 320 319 317 314 310 309 305 303 297 295 294 295 297 297 299 300 305 308 307 306 306 305 306 306 306 307 307 306 307 309 310 310 309 309 310 311 310 309
315 320 320 322 323 324 324 324 322 321 319 319 316 312 310 307 303 297 294 294 296 298 299 300 300 306 308 305 306 306 306 306 306 306 306 306 305 307 308 310 309 310 311 312 311 311 309
310 311 313 315 320 321 322 323 322 321 321 320 317 314 311 308 304 298 294 295 297 299 300 301 307 308 308 303 305 305 305 306 306 307 306 305 305 309 310 310 311 312 311 311 311 311 310
308 308 308 310 313 315 318 320 321 320 319 319 317 314 313 309 305 297 294 297 304 300 307 305 306 309 307 306 305 305 305 306 308 308 308 308 309 310 311 311 312 311 310 311 311 311 311
307 308 307 307 307 308 310 316 319 319 319 318 317 315 313 311 304 295 299 306 310 310 306 308 307 307 305 305 304 305 306 307 308 309 311 311 311 312 312 311 310 310 311 312 312 311 310
305 306 307 307 306 305 306 309 316 319 320 319 318 316 314 310 305 295 300 306 305 302 304 307 305 304 304 304 306 306 306 309 311 312 312 311 313 312 310 310 310 311 313 313 312 311 310
303 302 302 302 304 306 305 306 307 309 316 318 317 316 312 308 300 295 301 301 301 301 305 309 306 305 305 304 306 308 308 310 310 312 312 312 312 310 308 310 312 313 314 314 311 310 311
303 303 302 302 302 304 305 304 304 304 306 314 316 316 314 306 298 299 301 300 299 302 310 314 306 305 305 305 306 307 307 309 311 311 312 312 312 310 310 311 313 314 313 310 311 312 314
302 303 302 301 302 303 305 304 303 302 303 308 314 315 314 306 302 303 302 301 301 304 319 312 306 305 306 305 308 307 307 309 310 312 311 313 312 311 312 313 312 312 313 313 314 315 316
302 301 301 302 302 302 304 303 303 303 304 306 312 313 309 301 299 302 300 301 301 308 315 307 305 305 306 306 307 308 309 309 310 311 311 312 312 311 312 313 312 313 314 315 317 317 318
301 301 301 301 302 301 301 303 304 304 304 307 311 307 308 303 304 301 300 304 305 313 308 307 306 305 306 307 307 307 309 312 314 313 315 313 313 312 312 313 313 314 315 318 317 320 319
300 301 300 301 302 302 301 302 304 304 303 306 307 304 304 301 301 301 303 305 310 316 314 306 306 306 306 307 307 308 308 311 310 310 310 311 316 313 312 312 313 313 314 316 316 318 317
301 300 301 300 301 302 302 301 303 304 303 305 305 301 299 298 300 301 304 308 314 316 313 306 306 306 306 307 308 308 308 309 311 309 312 312 313 312 311 311 312 315 314 316 320 317 323
300 300 300 301 300 302 302 301 302 303 303 305 301 300 299 299 300 302 305 310 311 310 306 306 306 307 308 307 306 307 308 308 309 308 308 312 317 311 311 312 313 314 313 317 319 323 322
299 300 300 300 301 301 302 302 301 303 302 304 300 302 299 299 299 300 306 310 312 308 306 306 306 307 307 308 307 308 308 308 308 309 308 310 313 313 312 314 313 315 316 317 317 317 322
298 298 299 299 301 301 301 302 301 303 302 302 300 305 299 299 300 302 307 309 308 307 305 305 306 307 308 310 308 320 310 309 307 307 310 310 313 314 313 312 311 311 313 313 319 318 321
298 298 299 300 301 301 301 301 302 302 302 301 302 297 298 299 308 305 305 307 307 306 305 305 306 307 308 311 312 310 310 306 305 306 310 311 313 317 316 315 313 312 311 310 311 313 318
296 298 299 299 301 301 301 302 301 302 302 302 299 300 297 295 304 308 306 309 307 306 305 305 305 306 306 306 305 308 310 306 305 305 304 309 312 315 319 316 312 312 310 309 312 318 323
296 297 298 299 301 301 301 302 302 302 303 302 301 304 303 301 302 306 308 308 308 306 305 305 306 305 304 305 305 306 308 305 305 304 305 310 313 312 313 312 312 310 309 310 309 313 315
297 298 300 300 300 300 300 301 302 302 303 302 303 307 305 306 303 306 308 309 308 307 305 306 305 305 304 304 304 304 305 306 305 308 310 310 314 315 314 313 312 314 308 309 309 308 307
297 299 299 299 300 299 299 300 301 301 303 303 304 305 306 305 305 305 310 308 308 307 304 304 304 305 305 303 303 304 305 304 304 308 308 312 312 312 315 314 313 316 309 309 307 306 309
298 298 299 299 299 299 300 301 301 301 302 303 304 306 308 310 308 306 307 307 306 305 304 304 304 304 304 303 303 302 302 302 303 303 305 310 310 310 313 315 316 309 307 307 307 305 304
298 298 298 299 301 305 306 306 304 302 302 304 304 306 308 310 306 305 306 306 305 304 305 304 304 304 303 302 301 302 305 306 305 306 308 308 309 312 314 314 311 308 306 306 307 306 303
297 299 304 306 306 306 307 307 309 303 303 304 304 304 307 310 308 306 307 306 307 306 304 304 302 302 302 301 302 305 307 305 308 309 309 308 309 311 312 313 316 310 304 304 305 308 302
300 302 303 304 305 308 309 310 309 303 303 303 303 304 307 309 307 306 307 307 304 303 303 303 303 302 303 302 305 306 308 307 310 311 312 310 310 312 312 312 309 302 302 303 309 308 301
299 300 300 300 302 303 303 303 303 303 302 302 300 304 305 306 304 303 303 304 303 304 303 303 302 302 302 305 306 306 308 308 310 309 309 310 310 310 310 310 311 300 303 307 303 301 300
297 299 300 300 300 300 300 300 300 300 301 302 301 301 301 302 302 300 300 300 301 302 303 303 303 302 302 305 304 305 307 309 307 309 307 308 307 309 307 306 300 299 302 301 300 299 299

GFSGBSN_925_thetae_126.txt.gz
Theta_e
326 325 326 325 325 324 324 324 324 323 319 317 315 311 309 308 304 300 296 295 295 295 296 297 298 299 304 312 309 306 306 306 306 306 307 308 308 310 310 311 310 310 310 311 311 310 310
323 325 326 327 326 325 324 324 324 322 323 318 317 315 311 310 306 304 297 296 295 295 296 297 299 299 311 309 308 308 307 306 307 307 308 308 309 308 308 309 310 311 311 310 310 310 311
315 319 324 325 325 326 325 324 324 323 322 321 318 317 314 311 308 306 298 296 295 295 297 298 300 304 308 308 308 308 307 307 307 307 308 308 308 308 309 310 311 311 309 310 312 312 311
311 314 320 321 322 324 324 325 324 324 322 321 319 317 315 312 310 307 300 296 295 296 297 299 300 306 309 307 307 307 308 307 308 307 308 308 308 308 308 310 310 310 311 312 312 312 312
310 310 312 315 317 321 321 322 322 323 322 321 320 318 316 313 310 308 301 295 296 299 299 300 306 312 311 306 305 307 306 307 307 308 308 308 307 308 310 310 311 312 312 313 311 312 311
308 309 308 308 311 313 316 318 320 321 321 321 319 319 317 314 313 311 300 296 298 300 305 308 307 307 310 309 307 306 306 306 308 309 309 309 308 310 311 312 312 313 311 310 310 312 312
306 307 308 308 307 307 309 310 314 316 318 320 319 318 316 314 313 311 304 304 309 314 308 311 312 310 310 307 306 306 306 307 308 309 310 312 312 312 312 313 312 311 310 310 312 313 312
305 305 306 308 307 307 306 306 308 312 317 318 319 318 317 314 312 309 296 304 304 303 307 310 312 312 308 306 307 307 307 307 309 311 312 313 312 312 313 311 310 310 311 312 313 313 312
304 304 302 303 303 303 306 305 306 307 310 316 318 317 316 313 309 305 302 304 302 301 305 313 315 314 311 307 306 307 308 309 309 311 312 312 313 313 311 311 309 311 313 313 313 311 311
303 303 303 302 303 303 303 305 305 303 304 307 315 316 315 310 306 305 305 305 302 302 314 318 314 310 310 306 307 306 309 309 310 311 311 311 312 312 312 311 311 312 313 312 312 313 314
302 303 302 303 302 301 302 305 305 303 302 303 310 313 314 313 307 307 305 302 300 309 320 314 309 307 307 306 308 307 308 309 309 311 312 310 313 312 310 310 312 314 313 313 313 314 316
302 301 302 302 302 302 302 304 305 304 303 304 307 310 312 306 303 303 301 301 307 317 319 316 308 308 307 307 307 309 308 308 311 311 312 312 312 312 311 312 313 313 313 314 315 316 320
302 301 302 301 301 301 302 301 302 303 304 304 307 309 309 307 303 301 301 304 313 318 314 313 310 307 307 308 307 308 309 310 309 314 313 312 312 311 311 312 313 313 315 317 316 320 319
301 301 302 301 300 300 302 302 301 303 304 303 307 309 304 303 305 303 304 308 315 316 315 312 310 308 307 307 308 309 308 309 310 311 311 310 314 313 313 313 313 314 314 315 315 318 320
301 301 300 300 300 300 300 302 301 302 304 303 307 302 302 301 302 304 307 314 314 313 313 315 316 311 309 308 309 309 309 308 309 312 310 315 312 313 313 313 311 315 315 315 318 316 320
300 300 300 300 300 301 300 301 301 301 304 303 303 301 300 301 301 303 307 311 312 313 314 313 313 309 309 309 308 309 309 309 308 311 309 312 316 312 312 311 311 312 313 316 319 321 319
298 299 300 300 299 299 300 300 301 301 304 303 301 304 300 301 302 303 308 309 311 310 311 312 312 310 309 312 310 308 308 309 309 309 308 310 313 313 311 312 311 315 316 317 317 318 320
298 298 298 297 298 300 299 300 301 300 303 303 302 306 299 301 302 304 308 308 308 310 311 311 309 309 310 311 311 312 310 309 309 308 310 309 313 314 314 313 313 312 313 313 315 315 318
297 296 297 298 299 298 299 301 301 300 303 302 304 299 300 300 305 306 306 306 308 309 311 309 308 307 310 314 312 314 312 309 307 307 311 311 312 315 316 314 313 312 312 311 311 312 314
296 296 297 298 298 299 299 300 301 301 302 303 299 301 297 300 303 307 308 308 308 308 309 308 307 307 309 309 308 310 310 309 306 306 306 310 312 315 319 320 316 315 312 310 311 316 317
296 297 297 296 297 297 299 299 300 301 301 302 303 304 302 301 300 304 308 308 308 310 308 309 308 307 308 308 308 306 308 309 307 307 304 308 314 313 313 313 314 312 311 310 310 311 316
296 296 296 296 297 297 298 299 300 301 301 302 301 305 305 304 303 302 306 310 309 309 309 308 307 307 307 306 306 306 306 308 306 306 305 308 314 311 313 312 313 315 311 310 310 308 308
295 296 296 296 297 297 298 299 300 301 301 301 302 303 306 307 306 305 305 307 309 308 309 307 307 308 307 305 304 305 306 307 306 307 309 312 312 313 313 314 313 316 314 311 310 309 309
295 296 296 296 296 297 298 300 300 300 300 301 302 304 306 308 307 307 305 306 308 308 310 308 306 306 305 305 304 303 304 304 304 304 307 311 312 312 313 316 318 310 309 308 308 307 305
295 295 295 296 297 299 299 300 300 301 300 302 302 304 307 308 307 306 306 306 307 308 309 307 305 304 305 304 304 301 302 302 302 303 304 305 310 312 312 314 311 309 308 309 308 308 305
295 295 295 297 298 298 298 299 300 300 300 302 302 303 306 308 308 305 307 305 309 309 307 305 305 306 305 304 303 301 304 304 304 304 303 305 311 311 312 312 311 310 307 306 307 311 304
294 294 298 297 297 298 299 299 299 300 300 301 302 303 305 307 307 308 308 308 308 308 307 306 304 305 306 305 305 304 307 306 307 311 312 311 312 311 312 310 309 304 304 304 309 309 303
294 297 298 300 301 303 304 303 300 300 300 301 302 303 306 307 308 308 307 307 308 307 307 305 304 304 305 305 303 305 309 310 309 310 310 311 311 312 312 311 312 302 303 307 305 303 301
297 297 301 302 303 304 304 304 305 303 301 301 303 302 304 308 304 305 305 306 306 305 305 304 305 303 304 305 306 307 310 312 308 313 309 311 309 312 307 306 300 300 303 302 301 301 299

GFSGBSN_925_thetae_129.txt.gz
Theta_e
322 325 326 326 326 325 323 323 323 324 324 323 321 318 317 316 312 307 303 298 297 296 296 297 298 299 301 312 312 306 306 306 306 307 307 307 306 306 306 305 305 306 307 307 307 307 307
320 321 322 325 325 326 325 325 324 324 323 323 321 319 319 316 313 311 307 300 298 296 296 297 298 299 309 309 308 308 307 306 306 307 307 307 307 306 306 306 306 308 308 307 307 307 306
315 317 319 323 324 325 326 325 325 324 323 322 323 320 319 317 314 312 311 305 298 297 296 297 299 301 308 308 308 308 307 307 307 307 307 307 308 306 305 306 308 308 307 306 307 307 307
310 312 314 318 321 323 324 325 325 324 324 323 322 321 319 318 316 314 315 312 301 297 297 299 300 302 307 308 308 307 307 307 307 307 307 308 308 306 306 306 307 308 307 307 309 309 308
308 310 310 312 316 319 321 322 322 322 322 322 322 320 319 318 315 315 316 317 306 299 299 301 305 309 311 307 306 306 307 306 307 307 308 308 307 305 306 306 306 308 308 308 309 308 308
308 309 309 308 309 312 315 316 317 320 320 321 321 320 319 318 316 316 316 316 311 305 308 308 308 307 306 308 307 307 306 306 307 307 308 308 306 305 305 305 307 310 309 306 306 306 308
307 307 307 308 308 307 309 311 312 314 318 319 319 318 318 317 316 315 315 308 307 312 309 309 310 308 310 310 307 306 306 306 307 307 307 307 307 307 307 308 310 310 308 306 306 308 310
305 305 305 307 308 308 307 307 307 308 311 315 316 319 318 316 314 313 305 305 303 302 302 306 309 310 311 312 307 306 306 306 307 307 307 308 309 310 311 311 309 308 308 308 309 310 311
304 304 304 303 304 304 305 307 306 306 307 315 317 317 317 315 313 312 304 305 303 301 302 310 311 312 313 313 311 307 306 306 306 307 309 310 311 312 312 311 311 308 308 309 311 310 310
303 303 303 303 303 303 303 304 305 304 303 307 315 316 315 314 312 308 304 307 304 302 311 316 316 313 314 307 306 307 307 306 308 308 309 309 310 311 311 311 310 309 310 312 312 312 312
302 301 303 302 303 303 301 302 305 304 302 303 309 314 314 312 308 307 304 304 303 308 315 312 309 307 307 306 308 307 308 308 307 308 309 310 310 310 311 311 309 309 312 312 312 311 311
302 302 302 302 302 303 302 302 305 304 303 304 306 310 312 311 306 305 303 300 308 314 317 314 307 307 307 306 307 307 307 307 307 308 309 310 310 310 311 311 311 312 312 311 312 312 313
303 302 302 302 302 301 301 302 304 302 303 303 306 308 309 309 305 302 301 306 314 318 315 315 313 308 307 307 307 306 309 309 307 309 310 310 310 308 310 310 311 311 311 314 313 314 316
302 302 302 302 302 301 300 302 301 301 304 303 304 307 306 306 304 302 305 311 316 314 316 314 313 309 307 307 308 308 306 306 308 308 308 310 310 312 310 309 311 311 312 315 315 315 315
300 300 301 301 302 302 301 301 302 301 304 303 307 303 303 305 302 305 307 314 312 313 312 313 314 317 316 308 308 308 308 308 308 308 311 313 315 312 311 312 312 312 312 312 316 315 311
298 300 300 300 300 300 300 300 300 301 304 303 303 302 302 303 303 305 308 309 311 309 309 311 315 315 314 310 307 307 308 309 309 309 308 313 311 311 310 312 311 311 311 314 315 314 318
298 299 300 299 299 299 301 301 299 301 304 303 303 304 302 302 303 304 308 305 307 308 308 311 313 313 313 309 310 308 309 309 310 309 308 311 310 312 311 312 311 311 311 317 318 316 312
299 299 298 297 298 300 299 298 299 301 304 303 302 304 301 302 302 303 304 307 307 306 307 309 310 312 310 308 309 308 309 310 309 309 310 309 313 315 312 312 311 312 315 317 314 313 311
299 298 298 297 297 297 297 300 299 300 303 303 302 300 301 301 304 304 303 305 305 305 307 308 309 310 309 308 306 309 310 309 307 309 311 311 312 313 314 314 314 315 312 311 311 309 308
296 297 297 298 296 296 297 297 298 300 302 302 299 300 299 301 302 303 303 304 306 305 306 306 308 308 308 309 309 306 311 310 307 307 307 310 313 314 314 315 315 318 315 310 310 304 307
297 297 298 297 296 297 298 298 298 300 301 302 301 300 299 300 301 303 304 306 305 305 307 306 307 309 308 307 308 307 309 309 308 307 305 307 310 313 313 312 312 313 314 311 311 309 312
296 297 297 297 297 296 296 295 298 299 301 302 300 300 299 300 300 301 302 303 306 307 305 305 308 308 308 306 305 306 306 308 308 307 306 305 308 309 309 309 311 312 310 307 310 308 307
296 297 297 296 296 295 296 295 295 298 300 302 301 302 301 301 300 300 301 303 304 306 306 305 307 307 307 306 305 303 303 304 307 307 306 306 309 311 312 312 315 314 309 307 310 309 309
296 297 296 296 296 296 296 296 295 295 299 301 301 302 301 302 303 302 303 301 302 303 307 306 307 307 305 302 303 303 303 305 306 306 306 309 311 311 312 309 313 310 309 309 310 308 304
294 295 295 295 296 295 296 296 296 296 298 300 301 300 302 303 301 304 304 304 302 303 305 306 307 306 303 303 304 304 303 304 304 305 304 305 310 310 310 311 310 309 308 309 310 308 303
294 294 295 295 296 296 296 296 296 296 297 299 300 301 300 302 303 302 303 304 303 302 303 306 305 303 303 303 304 305 304 303 303 303 303 304 309 307 309 312 310 308 305 305 306 308 304
294 294 295 295 295 295 296 296 296 296 297 299 300 301 302 301 301 303 302 303 304 303 304 305 305 305 303 303 306 305 303 304 306 307 303 303 306 309 309 310 308 304 303 304 308 304 304
293 294 294 294 295 295 295 296 296 297 299 299 300 300 301 302 302 302 303 303 305 304 304 304 303 303 305 305 304 302 304 305 305 309 307 305 310 310 309 309 308 302 302 306 303 300 297
293 294 294 295 295 295 296 296 298 299 299 300 300 300 301 302 302 303 303 304 305 305 302 302 302 302 302 302 303 302 304 306 309 312 310 312 309 308 306 304 300 301 303 301 300 297 295

GFSGBSN_925_thetae_132.txt.gz
Theta_e
322 325 326 327 327 326 325 323 323 323 323 324 322 321 320 320 317 316 312 309 302 299 297 297 298 299 302 307 310 308 307 305 306 307 306 305 305 305 305 304 303 305 306 306 306 306 306
318 319 320 321 325 324 326 326 324 323 324 324 323 322 320 320 317 315 316 314 308 302 299 297 298 299 306 307 308 308 307 306 306 306 307 306 306 305 305 305 304 305 305 305 305 305 306
314 317 318 320 322 322 324 325 325 324 324 324 323 323 322 320 320 316 317 318 317 308 302 298 299 300 305 305 307 308 307 307 307 307 306 307 307 306 305 305 305 306 306 305 306 306 306
311 311 313 315 317 321 324 324 325 325 325 324 324 322 321 321 319 318 317 319 319 316 302 299 301 301 304 309 310 307 307 307 307 307 307 307 307 305 305 304 305 307 307 307 307 306 306
310 309 310 311 313 317 321 323 323 323 324 323 322 322 321 320 319 318 319 319 318 317 305 303 305 307 310 308 306 307 307 306 306 307 307 308 306 305 304 305 303 305 306 307 307 306 308
308 309 309 309 309 312 315 318 319 321 321 321 321 321 320 319 318 317 318 318 316 312 308 307 308 307 307 308 307 306 306 306 306 306 306 307 304 304 302 302 306 307 307 306 305 304 306
307 307 307 308 308 308 309 311 312 315 317 319 319 320 319 318 317 316 316 309 308 310 308 309 310 308 309 309 306 306 306 305 306 306 306 306 305 306 305 305 307 307 307 306 304 306 308
306 306 305 306 308 308 307 307 308 309 311 315 319 319 317 317 316 315 311 305 303 302 305 305 307 309 311 310 310 305 306 305 306 306 306 306 306 307 308 309 309 308 307 306 306 308 309
305 305 304 303 304 305 305 307 306 306 307 311 314 318 318 317 315 314 308 307 304 301 301 307 307 310 311 311 313 313 304 305 306 305 306 307 309 309 310 310 310 309 307 307 307 309 309
303 304 304 303 303 303 303 304 305 304 305 309 315 316 317 315 312 311 307 307 305 301 309 312 314 314 313 310 309 307 306 306 305 306 306 307 308 309 309 309 310 310 308 308 311 310 310
303 302 302 302 303 302 301 301 305 303 302 305 314 315 315 314 311 304 305 306 304 307 305 310 307 307 305 311 307 307 306 306 306 307 307 308 307 307 309 310 310 308 311 311 311 310 310
301 302 301 303 302 302 302 301 305 303 302 303 310 313 312 308 306 305 303 302 308 309 314 313 306 306 306 305 306 306 307 306 307 307 308 307 308 308 308 309 309 310 311 310 311 310 312
303 302 302 302 301 302 301 301 305 304 303 305 308 309 310 310 307 305 301 308 311 314 312 315 310 307 306 306 306 306 307 307 307 308 309 307 308 307 308 308 309 310 309 312 313 313 316
303 303 302 302 302 302 301 302 301 302 303 303 305 306 308 308 308 302 307 309 314 312 314 314 313 313 307 307 306 307 305 307 306 306 306 308 310 310 310 308 309 310 311 313 316 313 314
300 300 301 302 302 302 301 300 302 300 304 303 305 305 305 307 304 303 309 311 308 311 311 311 313 315 315 310 306 307 306 305 305 306 309 310 311 311 309 310 310 311 312 311 313 313 312
298 299 300 300 301 302 301 300 302 301 304 303 303 303 304 305 302 305 309 309 309 310 309 311 314 314 315 309 308 306 307 308 308 307 307 311 309 309 310 309 310 310 310 311 311 312 319
299 297 297 299 300 301 300 300 299 301 303 304 303 302 303 302 303 304 308 305 306 307 307 309 311 312 312 310 308 307 307 308 308 309 308 310 306 309 310 310 311 310 310 314 315 315 317
300 299 298 299 300 299 299 300 300 302 303 303 303 299 302 302 304 304 305 304 305 304 305 307 309 310 310 308 308 305 308 308 308 308 310 310 311 311 311 310 310 310 312 314 315 317 312
300 299 299 298 298 298 299 300 299 301 303 302 300 301 301 302 305 304 301 304 304 304 305 307 308 309 307 305 304 306 308 308 307 308 309 309 311 310 310 313 314 316 314 311 311 308 308
298 298 298 299 298 296 297 298 299 299 302 301 298 301 300 301 300 301 302 302 303 304 304 304 306 306 307 308 307 304 310 309 306 307 310 310 311 311 312 314 314 315 315 313 311 305 306
297 296 297 299 298 298 297 297 297 299 301 302 298 296 298 301 302 301 301 302 302 303 304 304 305 305 306 306 307 307 306 308 307 308 305 306 307 311 310 311 311 311 311 313 313 310 310
296 296 296 296 297 298 297 295 296 298 300 301 300 300 297 297 300 302 301 301 302 304 303 305 305 305 305 306 305 304 305 306 307 306 304 304 302 306 306 309 310 309 308 309 312 309 306
295 295 295 294 296 297 297 295 297 297 299 301 300 299 297 299 298 300 300 300 301 302 302 303 303 303 304 305 304 303 302 303 305 305 305 305 304 308 308 308 310 311 309 310 308 308 307
294 294 295 295 296 297 297 296 296 296 298 301 301 300 301 300 299 300 300 300 300 301 303 304 304 303 304 302 302 302 302 302 303 303 305 305 305 307 309 309 307 304 309 309 310 309 303
293 293 294 295 296 297 297 296 296 295 295 298 301 300 297 301 300 300 300 301 300 300 301 302 302 304 301 303 305 306 303 303 304 304 305 305 307 311 310 310 306 309 307 308 310 308 302
293 294 294 294 296 297 297 297 295 294 295 298 299 301 300 299 299 300 302 302 300 299 300 301 302 302 301 302 304 306 306 304 304 304 304 304 306 308 309 310 308 306 304 304 307 308 302
293 293 294 294 295 296 296 296 296 294 295 298 297 299 300 300 299 300 300 299 302 301 301 303 303 304 303 304 305 304 303 303 303 304 304 305 306 307 308 309 307 304 303 303 309 305 301
293 293 293 294 294 295 295 295 295 295 294 297 297 298 298 300 300 299 299 300 300 301 302 302 301 301 304 305 306 303 303 303 303 304 304 304 305 306 307 308 307 302 301 305 300 296 295
293 293 293 293 293 294 294 294 295 295 295 297 296 297 298 299 300 300 300 301 301 301 301 302 301 301 302 302 303 301 303 304 303 305 309 307 307 308 306 304 300 301 301 299 297 295 293